<?xml version="1.0" encoding="UTF-8" standalone="no" ?>
<gpx xmlns="http://www.topografix.com/GPX/1/1" xmlns:xsi="http://www.w3.org/2001/XMLSchema-instance" xsi:schemaLocation="http://www.topografix.com/GPX/1/1 http://www.topografix.com/GPX/1/1/gpx.xsd" version="1.1" creator="VisuGPX - https://www.visugpx.com">
  <metadata>
    <name>160921HR3ROBJeunes</name>
    <desc><![CDATA[Sortie satisfaisante pour cz jour]]></desc>
  </metadata>
  <trk>
    <name><![CDATA[160921HR3ROBJeunes]]></name>
    <trkseg>
      <trkpt lat="43.41502" lon="6.06687">
        <ele>229</ele>
        <time>2016-09-21T12:09:44Z</time>
      </trkpt>
      <trkpt lat="43.41502" lon="6.06683">
        <ele>229</ele>
        <time>2016-09-21T12:09:45Z</time>
      </trkpt>
      <trkpt lat="43.41505" lon="6.06656">
        <ele>228.80000305176</ele>
        <time>2016-09-21T12:09:50Z</time>
      </trkpt>
      <trkpt lat="43.4151" lon="6.06628">
        <ele>229</ele>
        <time>2016-09-21T12:09:55Z</time>
      </trkpt>
      <trkpt lat="43.41515" lon="6.06592">
        <ele>229.19999694824</ele>
        <time>2016-09-21T12:10:01Z</time>
      </trkpt>
      <trkpt lat="43.41519" lon="6.06567">
        <ele>229.19999694824</ele>
        <time>2016-09-21T12:10:05Z</time>
      </trkpt>
      <trkpt lat="43.41523" lon="6.06543">
        <ele>229.39999389648</ele>
        <time>2016-09-21T12:10:09Z</time>
      </trkpt>
      <trkpt lat="43.41529" lon="6.06512">
        <ele>229.80000305176</ele>
        <time>2016-09-21T12:10:14Z</time>
      </trkpt>
      <trkpt lat="43.41531" lon="6.06506">
        <ele>229.80000305176</ele>
        <time>2016-09-21T12:10:15Z</time>
      </trkpt>
      <trkpt lat="43.41542" lon="6.06487">
        <ele>230.19999694824</ele>
        <time>2016-09-21T12:10:19Z</time>
      </trkpt>
      <trkpt lat="43.41548" lon="6.06469">
        <ele>230.80000305176</ele>
        <time>2016-09-21T12:10:22Z</time>
      </trkpt>
      <trkpt lat="43.41548" lon="6.0645">
        <ele>231.39999389648</ele>
        <time>2016-09-21T12:10:25Z</time>
      </trkpt>
      <trkpt lat="43.41552" lon="6.06413">
        <ele>231.80000305176</ele>
        <time>2016-09-21T12:10:31Z</time>
      </trkpt>
      <trkpt lat="43.41558" lon="6.06376">
        <ele>233.80000305176</ele>
        <time>2016-09-21T12:10:38Z</time>
      </trkpt>
      <trkpt lat="43.4156" lon="6.06366">
        <ele>234</ele>
        <time>2016-09-21T12:10:40Z</time>
      </trkpt>
      <trkpt lat="43.41563" lon="6.06352">
        <ele>235.19999694824</ele>
        <time>2016-09-21T12:10:43Z</time>
      </trkpt>
      <trkpt lat="43.41567" lon="6.06344">
        <ele>235.80000305176</ele>
        <time>2016-09-21T12:10:45Z</time>
      </trkpt>
      <trkpt lat="43.41571" lon="6.06337">
        <ele>236.39999389648</ele>
        <time>2016-09-21T12:10:47Z</time>
      </trkpt>
      <trkpt lat="43.41583" lon="6.0632">
        <ele>237.39999389648</ele>
        <time>2016-09-21T12:10:52Z</time>
      </trkpt>
      <trkpt lat="43.41588" lon="6.06308">
        <ele>237.80000305176</ele>
        <time>2016-09-21T12:10:55Z</time>
      </trkpt>
      <trkpt lat="43.41589" lon="6.06295">
        <ele>238.39999389648</ele>
        <time>2016-09-21T12:10:58Z</time>
      </trkpt>
      <trkpt lat="43.41588" lon="6.06276">
        <ele>239</ele>
        <time>2016-09-21T12:11:03Z</time>
      </trkpt>
      <trkpt lat="43.41589" lon="6.0627">
        <ele>239.60000610352</ele>
        <time>2016-09-21T12:11:05Z</time>
      </trkpt>
      <trkpt lat="43.4159" lon="6.06267">
        <ele>240.19999694824</ele>
        <time>2016-09-21T12:11:07Z</time>
      </trkpt>
      <trkpt lat="43.41597" lon="6.06259">
        <ele>240.39999389648</ele>
        <time>2016-09-21T12:11:12Z</time>
      </trkpt>
      <trkpt lat="43.41601" lon="6.06255">
        <ele>240.19999694824</ele>
        <time>2016-09-21T12:11:15Z</time>
      </trkpt>
      <trkpt lat="43.41607" lon="6.06236">
        <ele>240.60000610352</ele>
        <time>2016-09-21T12:11:23Z</time>
      </trkpt>
      <trkpt lat="43.4161" lon="6.06233">
        <ele>240.60000610352</ele>
        <time>2016-09-21T12:11:25Z</time>
      </trkpt>
      <trkpt lat="43.41622" lon="6.06232">
        <ele>240.60000610352</ele>
        <time>2016-09-21T12:11:30Z</time>
      </trkpt>
      <trkpt lat="43.41627" lon="6.06231">
        <ele>240.80000305176</ele>
        <time>2016-09-21T12:11:32Z</time>
      </trkpt>
      <trkpt lat="43.41632" lon="6.06234">
        <ele>241.19999694824</ele>
        <time>2016-09-21T12:11:35Z</time>
      </trkpt>
      <trkpt lat="43.41643" lon="6.06239">
        <ele>241.80000305176</ele>
        <time>2016-09-21T12:11:39Z</time>
      </trkpt>
      <trkpt lat="43.4166" lon="6.06246">
        <ele>242.60000610352</ele>
        <time>2016-09-21T12:11:45Z</time>
      </trkpt>
      <trkpt lat="43.41674" lon="6.06249">
        <ele>242.80000305176</ele>
        <time>2016-09-21T12:11:49Z</time>
      </trkpt>
      <trkpt lat="43.41698" lon="6.06251">
        <ele>242.80000305176</ele>
        <time>2016-09-21T12:11:55Z</time>
      </trkpt>
      <trkpt lat="43.41736" lon="6.06252">
        <ele>243.39999389648</ele>
        <time>2016-09-21T12:12:05Z</time>
      </trkpt>
      <trkpt lat="43.4175" lon="6.06254">
        <ele>243.80000305176</ele>
        <time>2016-09-21T12:12:09Z</time>
      </trkpt>
      <trkpt lat="43.41766" lon="6.06259">
        <ele>244.80000305176</ele>
        <time>2016-09-21T12:12:14Z</time>
      </trkpt>
      <trkpt lat="43.41779" lon="6.06266">
        <ele>245.39999389648</ele>
        <time>2016-09-21T12:12:18Z</time>
      </trkpt>
      <trkpt lat="43.41789" lon="6.06274">
        <ele>246.19999694824</ele>
        <time>2016-09-21T12:12:21Z</time>
      </trkpt>
      <trkpt lat="43.418" lon="6.06285">
        <ele>247</ele>
        <time>2016-09-21T12:12:25Z</time>
      </trkpt>
      <trkpt lat="43.41806" lon="6.0629">
        <ele>247.39999389648</ele>
        <time>2016-09-21T12:12:27Z</time>
      </trkpt>
      <trkpt lat="43.41829" lon="6.06295">
        <ele>248.39999389648</ele>
        <time>2016-09-21T12:12:35Z</time>
      </trkpt>
      <trkpt lat="43.41853" lon="6.06294">
        <ele>249.60000610352</ele>
        <time>2016-09-21T12:12:43Z</time>
      </trkpt>
      <trkpt lat="43.41858" lon="6.06294">
        <ele>250</ele>
        <time>2016-09-21T12:12:45Z</time>
      </trkpt>
      <trkpt lat="43.41869" lon="6.06294">
        <ele>250.60000610352</ele>
        <time>2016-09-21T12:12:49Z</time>
      </trkpt>
      <trkpt lat="43.41885" lon="6.06295">
        <ele>252</ele>
        <time>2016-09-21T12:12:55Z</time>
      </trkpt>
      <trkpt lat="43.41898" lon="6.06296">
        <ele>252.80000305176</ele>
        <time>2016-09-21T12:13:00Z</time>
      </trkpt>
      <trkpt lat="43.41917" lon="6.06295">
        <ele>254</ele>
        <time>2016-09-21T12:13:08Z</time>
      </trkpt>
      <trkpt lat="43.41926" lon="6.06293">
        <ele>255</ele>
        <time>2016-09-21T12:13:12Z</time>
      </trkpt>
      <trkpt lat="43.41934" lon="6.06291">
        <ele>255</ele>
        <time>2016-09-21T12:13:15Z</time>
      </trkpt>
      <trkpt lat="43.41953" lon="6.06285">
        <ele>255.80000305176</ele>
        <time>2016-09-21T12:13:22Z</time>
      </trkpt>
      <trkpt lat="43.41961" lon="6.06282">
        <ele>256.20001220703</ele>
        <time>2016-09-21T12:13:25Z</time>
      </trkpt>
      <trkpt lat="43.41974" lon="6.06278">
        <ele>257</ele>
        <time>2016-09-21T12:13:30Z</time>
      </trkpt>
      <trkpt lat="43.41993" lon="6.06271">
        <ele>259.39999389648</ele>
        <time>2016-09-21T12:13:38Z</time>
      </trkpt>
      <trkpt lat="43.42002" lon="6.06267">
        <ele>260.20001220703</ele>
        <time>2016-09-21T12:13:42Z</time>
      </trkpt>
      <trkpt lat="43.42004" lon="6.06267">
        <ele>260.39999389648</ele>
        <time>2016-09-21T12:13:43Z</time>
      </trkpt>
      <trkpt lat="43.42006" lon="6.06266">
        <ele>261</ele>
        <time>2016-09-21T12:13:45Z</time>
      </trkpt>
      <trkpt lat="43.4201" lon="6.06264">
        <ele>261.60000610352</ele>
        <time>2016-09-21T12:13:47Z</time>
      </trkpt>
      <trkpt lat="43.42023" lon="6.06259">
        <ele>262.60000610352</ele>
        <time>2016-09-21T12:13:54Z</time>
      </trkpt>
      <trkpt lat="43.42033" lon="6.06257">
        <ele>264</ele>
        <time>2016-09-21T12:13:59Z</time>
      </trkpt>
      <trkpt lat="43.42041" lon="6.06254">
        <ele>265</ele>
        <time>2016-09-21T12:14:03Z</time>
      </trkpt>
      <trkpt lat="43.42051" lon="6.06251">
        <ele>266</ele>
        <time>2016-09-21T12:14:08Z</time>
      </trkpt>
      <trkpt lat="43.4206" lon="6.06247">
        <ele>267.39999389648</ele>
        <time>2016-09-21T12:14:13Z</time>
      </trkpt>
      <trkpt lat="43.42064" lon="6.06246">
        <ele>268</ele>
        <time>2016-09-21T12:14:15Z</time>
      </trkpt>
      <trkpt lat="43.4207" lon="6.06244">
        <ele>268.60000610352</ele>
        <time>2016-09-21T12:14:18Z</time>
      </trkpt>
      <trkpt lat="43.42079" lon="6.0624">
        <ele>269.60000610352</ele>
        <time>2016-09-21T12:14:23Z</time>
      </trkpt>
      <trkpt lat="43.42082" lon="6.06239">
        <ele>270.20001220703</ele>
        <time>2016-09-21T12:14:25Z</time>
      </trkpt>
      <trkpt lat="43.42087" lon="6.06238">
        <ele>270.79998779297</ele>
        <time>2016-09-21T12:14:28Z</time>
      </trkpt>
      <trkpt lat="43.42099" lon="6.06234">
        <ele>272</ele>
        <time>2016-09-21T12:14:35Z</time>
      </trkpt>
      <trkpt lat="43.42109" lon="6.06231">
        <ele>273</ele>
        <time>2016-09-21T12:14:41Z</time>
      </trkpt>
      <trkpt lat="43.42115" lon="6.06229">
        <ele>273.60000610352</ele>
        <time>2016-09-21T12:14:45Z</time>
      </trkpt>
      <trkpt lat="43.42121" lon="6.06227">
        <ele>274</ele>
        <time>2016-09-21T12:14:48Z</time>
      </trkpt>
      <trkpt lat="43.42134" lon="6.06222">
        <ele>274.79998779297</ele>
        <time>2016-09-21T12:14:55Z</time>
      </trkpt>
      <trkpt lat="43.42137" lon="6.06221">
        <ele>275</ele>
        <time>2016-09-21T12:14:57Z</time>
      </trkpt>
      <trkpt lat="43.42147" lon="6.06218">
        <ele>275.39999389648</ele>
        <time>2016-09-21T12:15:04Z</time>
      </trkpt>
      <trkpt lat="43.42147" lon="6.06217">
        <ele>275.39999389648</ele>
        <time>2016-09-21T12:15:05Z</time>
      </trkpt>
      <trkpt lat="43.4215" lon="6.06214">
        <ele>275.39999389648</ele>
        <time>2016-09-21T12:15:09Z</time>
      </trkpt>
      <trkpt lat="43.42151" lon="6.06211">
        <ele>275.60000610352</ele>
        <time>2016-09-21T12:15:12Z</time>
      </trkpt>
      <trkpt lat="43.4215" lon="6.06207">
        <ele>275.39999389648</ele>
        <time>2016-09-21T12:15:15Z</time>
      </trkpt>
      <trkpt lat="43.42149" lon="6.06206">
        <ele>275.39999389648</ele>
        <time>2016-09-21T12:15:22Z</time>
      </trkpt>
      <trkpt lat="43.42149" lon="6.06206">
        <ele>275.39999389648</ele>
        <time>2016-09-21T12:15:25Z</time>
      </trkpt>
      <trkpt lat="43.42149" lon="6.06206">
        <ele>275.39999389648</ele>
        <time>2016-09-21T12:15:28Z</time>
      </trkpt>
      <trkpt lat="43.42149" lon="6.06206">
        <ele>275.39999389648</ele>
        <time>2016-09-21T12:15:32Z</time>
      </trkpt>
      <trkpt lat="43.42149" lon="6.06206">
        <ele>275.60000610352</ele>
        <time>2016-09-21T12:15:35Z</time>
      </trkpt>
      <trkpt lat="43.42149" lon="6.06206">
        <ele>275.60000610352</ele>
        <time>2016-09-21T12:15:39Z</time>
      </trkpt>
      <trkpt lat="43.42149" lon="6.06206">
        <ele>275.60000610352</ele>
        <time>2016-09-21T12:15:45Z</time>
      </trkpt>
      <trkpt lat="43.42148" lon="6.06204">
        <ele>275.20001220703</ele>
        <time>2016-09-21T12:16:05Z</time>
      </trkpt>
      <trkpt lat="43.42144" lon="6.06184">
        <ele>274.79998779297</ele>
        <time>2016-09-21T12:16:15Z</time>
      </trkpt>
      <trkpt lat="43.42134" lon="6.06159">
        <ele>273.79998779297</ele>
        <time>2016-09-21T12:16:21Z</time>
      </trkpt>
      <trkpt lat="43.42126" lon="6.06134">
        <ele>273</ele>
        <time>2016-09-21T12:16:25Z</time>
      </trkpt>
      <trkpt lat="43.42118" lon="6.06097">
        <ele>273.60000610352</ele>
        <time>2016-09-21T12:16:31Z</time>
      </trkpt>
      <trkpt lat="43.42115" lon="6.06074">
        <ele>274</ele>
        <time>2016-09-21T12:16:35Z</time>
      </trkpt>
      <trkpt lat="43.42111" lon="6.06046">
        <ele>276.20001220703</ele>
        <time>2016-09-21T12:16:40Z</time>
      </trkpt>
      <trkpt lat="43.4211" lon="6.06041">
        <ele>276.60000610352</ele>
        <time>2016-09-21T12:16:41Z</time>
      </trkpt>
      <trkpt lat="43.42107" lon="6.0602">
        <ele>277.20001220703</ele>
        <time>2016-09-21T12:16:45Z</time>
      </trkpt>
      <trkpt lat="43.42092" lon="6.05956">
        <ele>276.39999389648</ele>
        <time>2016-09-21T12:16:55Z</time>
      </trkpt>
      <trkpt lat="43.42078" lon="6.05899">
        <ele>276.20001220703</ele>
        <time>2016-09-21T12:17:03Z</time>
      </trkpt>
      <trkpt lat="43.42074" lon="6.05885">
        <ele>276</ele>
        <time>2016-09-21T12:17:05Z</time>
      </trkpt>
      <trkpt lat="43.42067" lon="6.05858">
        <ele>275.60000610352</ele>
        <time>2016-09-21T12:17:09Z</time>
      </trkpt>
      <trkpt lat="43.42058" lon="6.05822">
        <ele>274.20001220703</ele>
        <time>2016-09-21T12:17:13Z</time>
      </trkpt>
      <trkpt lat="43.42053" lon="6.05801">
        <ele>272.79998779297</ele>
        <time>2016-09-21T12:17:15Z</time>
      </trkpt>
      <trkpt lat="43.42045" lon="6.05752">
        <ele>272</ele>
        <time>2016-09-21T12:17:20Z</time>
      </trkpt>
      <trkpt lat="43.4204" lon="6.05723">
        <ele>271.79998779297</ele>
        <time>2016-09-21T12:17:23Z</time>
      </trkpt>
      <trkpt lat="43.42036" lon="6.05705">
        <ele>271.79998779297</ele>
        <time>2016-09-21T12:17:25Z</time>
      </trkpt>
      <trkpt lat="43.42035" lon="6.05696">
        <ele>271.79998779297</ele>
        <time>2016-09-21T12:17:26Z</time>
      </trkpt>
      <trkpt lat="43.42025" lon="6.0565">
        <ele>272.79998779297</ele>
        <time>2016-09-21T12:17:32Z</time>
      </trkpt>
      <trkpt lat="43.4202" lon="6.05629">
        <ele>273.60000610352</ele>
        <time>2016-09-21T12:17:35Z</time>
      </trkpt>
      <trkpt lat="43.42019" lon="6.05616">
        <ele>274</ele>
        <time>2016-09-21T12:17:37Z</time>
      </trkpt>
      <trkpt lat="43.42018" lon="6.05603">
        <ele>274.79998779297</ele>
        <time>2016-09-21T12:17:39Z</time>
      </trkpt>
      <trkpt lat="43.42017" lon="6.05597">
        <ele>275.20001220703</ele>
        <time>2016-09-21T12:17:40Z</time>
      </trkpt>
      <trkpt lat="43.42014" lon="6.05578">
        <ele>276.20001220703</ele>
        <time>2016-09-21T12:17:43Z</time>
      </trkpt>
      <trkpt lat="43.42012" lon="6.05566">
        <ele>276.79998779297</ele>
        <time>2016-09-21T12:17:45Z</time>
      </trkpt>
      <trkpt lat="43.4201" lon="6.05554">
        <ele>277.20001220703</ele>
        <time>2016-09-21T12:17:47Z</time>
      </trkpt>
      <trkpt lat="43.42009" lon="6.05542">
        <ele>277.60000610352</ele>
        <time>2016-09-21T12:17:49Z</time>
      </trkpt>
      <trkpt lat="43.42007" lon="6.05532">
        <ele>278.39999389648</ele>
        <time>2016-09-21T12:17:51Z</time>
      </trkpt>
      <trkpt lat="43.42005" lon="6.05514">
        <ele>279.60000610352</ele>
        <time>2016-09-21T12:17:55Z</time>
      </trkpt>
      <trkpt lat="43.42004" lon="6.05502">
        <ele>280.60000610352</ele>
        <time>2016-09-21T12:17:58Z</time>
      </trkpt>
      <trkpt lat="43.41997" lon="6.05474">
        <ele>281.20001220703</ele>
        <time>2016-09-21T12:18:05Z</time>
      </trkpt>
      <trkpt lat="43.41994" lon="6.0546">
        <ele>281.39999389648</ele>
        <time>2016-09-21T12:18:08Z</time>
      </trkpt>
      <trkpt lat="43.41987" lon="6.05436">
        <ele>281</ele>
        <time>2016-09-21T12:18:12Z</time>
      </trkpt>
      <trkpt lat="43.41982" lon="6.05413">
        <ele>280</ele>
        <time>2016-09-21T12:18:15Z</time>
      </trkpt>
      <trkpt lat="43.41979" lon="6.05405">
        <ele>279.60000610352</ele>
        <time>2016-09-21T12:18:16Z</time>
      </trkpt>
      <trkpt lat="43.41971" lon="6.05378">
        <ele>278</ele>
        <time>2016-09-21T12:18:19Z</time>
      </trkpt>
      <trkpt lat="43.41962" lon="6.05347">
        <ele>276.60000610352</ele>
        <time>2016-09-21T12:18:22Z</time>
      </trkpt>
      <trkpt lat="43.41954" lon="6.05316">
        <ele>275.39999389648</ele>
        <time>2016-09-21T12:18:25Z</time>
      </trkpt>
      <trkpt lat="43.41947" lon="6.05274">
        <ele>273.20001220703</ele>
        <time>2016-09-21T12:18:29Z</time>
      </trkpt>
      <trkpt lat="43.41943" lon="6.05253">
        <ele>272.20001220703</ele>
        <time>2016-09-21T12:18:31Z</time>
      </trkpt>
      <trkpt lat="43.41941" lon="6.05231">
        <ele>271</ele>
        <time>2016-09-21T12:18:33Z</time>
      </trkpt>
      <trkpt lat="43.41939" lon="6.05211">
        <ele>269.79998779297</ele>
        <time>2016-09-21T12:18:35Z</time>
      </trkpt>
      <trkpt lat="43.41936" lon="6.05183">
        <ele>268.79998779297</ele>
        <time>2016-09-21T12:18:38Z</time>
      </trkpt>
      <trkpt lat="43.41936" lon="6.05161">
        <ele>268.20001220703</ele>
        <time>2016-09-21T12:18:41Z</time>
      </trkpt>
      <trkpt lat="43.41937" lon="6.05155">
        <ele>267.79998779297</ele>
        <time>2016-09-21T12:18:42Z</time>
      </trkpt>
      <trkpt lat="43.4194" lon="6.05149">
        <ele>267.39999389648</ele>
        <time>2016-09-21T12:18:43Z</time>
      </trkpt>
      <trkpt lat="43.41948" lon="6.05142">
        <ele>266.79998779297</ele>
        <time>2016-09-21T12:18:45Z</time>
      </trkpt>
      <trkpt lat="43.4197" lon="6.05132">
        <ele>267.39999389648</ele>
        <time>2016-09-21T12:18:50Z</time>
      </trkpt>
      <trkpt lat="43.4199" lon="6.05129">
        <ele>268.39999389648</ele>
        <time>2016-09-21T12:18:55Z</time>
      </trkpt>
      <trkpt lat="43.41998" lon="6.05127">
        <ele>268.79998779297</ele>
        <time>2016-09-21T12:18:57Z</time>
      </trkpt>
      <trkpt lat="43.42032" lon="6.05119">
        <ele>269.79998779297</ele>
        <time>2016-09-21T12:19:05Z</time>
      </trkpt>
      <trkpt lat="43.42058" lon="6.05114">
        <ele>270.79998779297</ele>
        <time>2016-09-21T12:19:11Z</time>
      </trkpt>
      <trkpt lat="43.42073" lon="6.05114">
        <ele>271.60000610352</ele>
        <time>2016-09-21T12:19:15Z</time>
      </trkpt>
      <trkpt lat="43.4208" lon="6.05114">
        <ele>272</ele>
        <time>2016-09-21T12:19:17Z</time>
      </trkpt>
      <trkpt lat="43.42097" lon="6.05116">
        <ele>272.60000610352</ele>
        <time>2016-09-21T12:19:22Z</time>
      </trkpt>
      <trkpt lat="43.42107" lon="6.05117">
        <ele>273.20001220703</ele>
        <time>2016-09-21T12:19:25Z</time>
      </trkpt>
      <trkpt lat="43.42125" lon="6.05118">
        <ele>274.20001220703</ele>
        <time>2016-09-21T12:19:34Z</time>
      </trkpt>
      <trkpt lat="43.42126" lon="6.05119">
        <ele>274.39999389648</ele>
        <time>2016-09-21T12:19:35Z</time>
      </trkpt>
      <trkpt lat="43.42132" lon="6.05122">
        <ele>274.60000610352</ele>
        <time>2016-09-21T12:19:41Z</time>
      </trkpt>
      <trkpt lat="43.42133" lon="6.05125">
        <ele>275</ele>
        <time>2016-09-21T12:19:45Z</time>
      </trkpt>
      <trkpt lat="43.42132" lon="6.05127">
        <ele>275.20001220703</ele>
        <time>2016-09-21T12:19:49Z</time>
      </trkpt>
      <trkpt lat="43.42131" lon="6.05127">
        <ele>275.60000610352</ele>
        <time>2016-09-21T12:19:55Z</time>
      </trkpt>
      <trkpt lat="43.4213" lon="6.05126">
        <ele>275.39999389648</ele>
        <time>2016-09-21T12:20:03Z</time>
      </trkpt>
      <trkpt lat="43.4213" lon="6.05127">
        <ele>275.60000610352</ele>
        <time>2016-09-21T12:20:10Z</time>
      </trkpt>
      <trkpt lat="43.42131" lon="6.05127">
        <ele>275.39999389648</ele>
        <time>2016-09-21T12:20:15Z</time>
      </trkpt>
      <trkpt lat="43.4213" lon="6.05127">
        <ele>275.60000610352</ele>
        <time>2016-09-21T12:20:18Z</time>
      </trkpt>
      <trkpt lat="43.42131" lon="6.05127">
        <ele>275.60000610352</ele>
        <time>2016-09-21T12:20:25Z</time>
      </trkpt>
      <trkpt lat="43.42131" lon="6.05126">
        <ele>275.60000610352</ele>
        <time>2016-09-21T12:20:30Z</time>
      </trkpt>
      <trkpt lat="43.42131" lon="6.05127">
        <ele>275.79998779297</ele>
        <time>2016-09-21T12:20:35Z</time>
      </trkpt>
      <trkpt lat="43.42131" lon="6.05128">
        <ele>275.60000610352</ele>
        <time>2016-09-21T12:20:39Z</time>
      </trkpt>
      <trkpt lat="43.42133" lon="6.05127">
        <ele>275.20001220703</ele>
        <time>2016-09-21T12:20:45Z</time>
      </trkpt>
      <trkpt lat="43.42133" lon="6.05127">
        <ele>275.20001220703</ele>
        <time>2016-09-21T12:20:55Z</time>
      </trkpt>
      <trkpt lat="43.4214" lon="6.05137">
        <ele>275.20001220703</ele>
        <time>2016-09-21T12:21:11Z</time>
      </trkpt>
      <trkpt lat="43.42145" lon="6.05142">
        <ele>275.60000610352</ele>
        <time>2016-09-21T12:21:15Z</time>
      </trkpt>
      <trkpt lat="43.42165" lon="6.05159">
        <ele>275.79998779297</ele>
        <time>2016-09-21T12:21:25Z</time>
      </trkpt>
      <trkpt lat="43.42181" lon="6.0517">
        <ele>276.39999389648</ele>
        <time>2016-09-21T12:21:32Z</time>
      </trkpt>
      <trkpt lat="43.42188" lon="6.05174">
        <ele>276.60000610352</ele>
        <time>2016-09-21T12:21:35Z</time>
      </trkpt>
      <trkpt lat="43.42212" lon="6.05189">
        <ele>277.39999389648</ele>
        <time>2016-09-21T12:21:45Z</time>
      </trkpt>
      <trkpt lat="43.42216" lon="6.05192">
        <ele>277.39999389648</ele>
        <time>2016-09-21T12:21:47Z</time>
      </trkpt>
      <trkpt lat="43.4223" lon="6.05203">
        <ele>278.39999389648</ele>
        <time>2016-09-21T12:21:53Z</time>
      </trkpt>
      <trkpt lat="43.42234" lon="6.05207">
        <ele>278.60000610352</ele>
        <time>2016-09-21T12:21:55Z</time>
      </trkpt>
      <trkpt lat="43.42248" lon="6.05216">
        <ele>279.60000610352</ele>
        <time>2016-09-21T12:22:01Z</time>
      </trkpt>
      <trkpt lat="43.42258" lon="6.05216">
        <ele>280.20001220703</ele>
        <time>2016-09-21T12:22:05Z</time>
      </trkpt>
      <trkpt lat="43.42269" lon="6.05216">
        <ele>280.60000610352</ele>
        <time>2016-09-21T12:22:09Z</time>
      </trkpt>
      <trkpt lat="43.42271" lon="6.05216">
        <ele>280.60000610352</ele>
        <time>2016-09-21T12:22:10Z</time>
      </trkpt>
      <trkpt lat="43.42282" lon="6.05218">
        <ele>280.79998779297</ele>
        <time>2016-09-21T12:22:15Z</time>
      </trkpt>
      <trkpt lat="43.42303" lon="6.05224">
        <ele>281.39999389648</ele>
        <time>2016-09-21T12:22:25Z</time>
      </trkpt>
      <trkpt lat="43.42307" lon="6.05224">
        <ele>281.60000610352</ele>
        <time>2016-09-21T12:22:27Z</time>
      </trkpt>
      <trkpt lat="43.42324" lon="6.05227">
        <ele>282.60000610352</ele>
        <time>2016-09-21T12:22:35Z</time>
      </trkpt>
      <trkpt lat="43.42332" lon="6.0523">
        <ele>283.39999389648</ele>
        <time>2016-09-21T12:22:39Z</time>
      </trkpt>
      <trkpt lat="43.42334" lon="6.05231">
        <ele>284</ele>
        <time>2016-09-21T12:22:40Z</time>
      </trkpt>
      <trkpt lat="43.4234" lon="6.05233">
        <ele>285.20001220703</ele>
        <time>2016-09-21T12:22:43Z</time>
      </trkpt>
      <trkpt lat="43.42344" lon="6.05234">
        <ele>285.60000610352</ele>
        <time>2016-09-21T12:22:45Z</time>
      </trkpt>
      <trkpt lat="43.42354" lon="6.05234">
        <ele>286.20001220703</ele>
        <time>2016-09-21T12:22:50Z</time>
      </trkpt>
      <trkpt lat="43.42362" lon="6.05231">
        <ele>286.60000610352</ele>
        <time>2016-09-21T12:22:55Z</time>
      </trkpt>
      <trkpt lat="43.42372" lon="6.05229">
        <ele>287.20001220703</ele>
        <time>2016-09-21T12:23:01Z</time>
      </trkpt>
      <trkpt lat="43.4238" lon="6.05228">
        <ele>287.60000610352</ele>
        <time>2016-09-21T12:23:05Z</time>
      </trkpt>
      <trkpt lat="43.42397" lon="6.05224">
        <ele>288.20001220703</ele>
        <time>2016-09-21T12:23:15Z</time>
      </trkpt>
      <trkpt lat="43.42415" lon="6.05223">
        <ele>288.79998779297</ele>
        <time>2016-09-21T12:23:25Z</time>
      </trkpt>
      <trkpt lat="43.42432" lon="6.05223">
        <ele>289.20001220703</ele>
        <time>2016-09-21T12:23:33Z</time>
      </trkpt>
      <trkpt lat="43.42436" lon="6.05224">
        <ele>289.60000610352</ele>
        <time>2016-09-21T12:23:35Z</time>
      </trkpt>
      <trkpt lat="43.4245" lon="6.05219">
        <ele>290.39999389648</ele>
        <time>2016-09-21T12:23:40Z</time>
      </trkpt>
      <trkpt lat="43.42457" lon="6.05215">
        <ele>291.20001220703</ele>
        <time>2016-09-21T12:23:43Z</time>
      </trkpt>
      <trkpt lat="43.42459" lon="6.05214">
        <ele>291.79998779297</ele>
        <time>2016-09-21T12:23:44Z</time>
      </trkpt>
      <trkpt lat="43.4246" lon="6.05213">
        <ele>292.20001220703</ele>
        <time>2016-09-21T12:23:45Z</time>
      </trkpt>
      <trkpt lat="43.42464" lon="6.05212">
        <ele>293.20001220703</ele>
        <time>2016-09-21T12:23:47Z</time>
      </trkpt>
      <trkpt lat="43.42471" lon="6.05213">
        <ele>293.79998779297</ele>
        <time>2016-09-21T12:23:51Z</time>
      </trkpt>
      <trkpt lat="43.4248" lon="6.05216">
        <ele>294</ele>
        <time>2016-09-21T12:23:55Z</time>
      </trkpt>
      <trkpt lat="43.4249" lon="6.05219">
        <ele>293.79998779297</ele>
        <time>2016-09-21T12:23:59Z</time>
      </trkpt>
      <trkpt lat="43.42508" lon="6.05224">
        <ele>293</ele>
        <time>2016-09-21T12:24:05Z</time>
      </trkpt>
      <trkpt lat="43.42534" lon="6.05225">
        <ele>293.60000610352</ele>
        <time>2016-09-21T12:24:15Z</time>
      </trkpt>
      <trkpt lat="43.42542" lon="6.05223">
        <ele>294.20001220703</ele>
        <time>2016-09-21T12:24:18Z</time>
      </trkpt>
      <trkpt lat="43.42553" lon="6.05219">
        <ele>296</ele>
        <time>2016-09-21T12:24:23Z</time>
      </trkpt>
      <trkpt lat="43.42557" lon="6.05219">
        <ele>296.20001220703</ele>
        <time>2016-09-21T12:24:25Z</time>
      </trkpt>
      <trkpt lat="43.42563" lon="6.0522">
        <ele>296.39999389648</ele>
        <time>2016-09-21T12:24:28Z</time>
      </trkpt>
      <trkpt lat="43.42579" lon="6.05225">
        <ele>296.20001220703</ele>
        <time>2016-09-21T12:24:35Z</time>
      </trkpt>
      <trkpt lat="43.42602" lon="6.05243">
        <ele>296.39999389648</ele>
        <time>2016-09-21T12:24:45Z</time>
      </trkpt>
      <trkpt lat="43.42624" lon="6.05261">
        <ele>297.60000610352</ele>
        <time>2016-09-21T12:24:55Z</time>
      </trkpt>
      <trkpt lat="43.42635" lon="6.05265">
        <ele>298.60000610352</ele>
        <time>2016-09-21T12:25:05Z</time>
      </trkpt>
      <trkpt lat="43.42634" lon="6.05265">
        <ele>299</ele>
        <time>2016-09-21T12:25:08Z</time>
      </trkpt>
      <trkpt lat="43.42632" lon="6.05265">
        <ele>299.39999389648</ele>
        <time>2016-09-21T12:25:12Z</time>
      </trkpt>
      <trkpt lat="43.42632" lon="6.05265">
        <ele>299.39999389648</ele>
        <time>2016-09-21T12:25:15Z</time>
      </trkpt>
      <trkpt lat="43.42633" lon="6.05267">
        <ele>299.39999389648</ele>
        <time>2016-09-21T12:25:18Z</time>
      </trkpt>
      <trkpt lat="43.42633" lon="6.05267">
        <ele>299.39999389648</ele>
        <time>2016-09-21T12:25:23Z</time>
      </trkpt>
      <trkpt lat="43.42633" lon="6.05267">
        <ele>299.39999389648</ele>
        <time>2016-09-21T12:25:25Z</time>
      </trkpt>
      <trkpt lat="43.42633" lon="6.05267">
        <ele>299.60000610352</ele>
        <time>2016-09-21T12:25:30Z</time>
      </trkpt>
      <trkpt lat="43.42633" lon="6.05267">
        <ele>299.39999389648</ele>
        <time>2016-09-21T12:25:33Z</time>
      </trkpt>
      <trkpt lat="43.42633" lon="6.05267">
        <ele>299.39999389648</ele>
        <time>2016-09-21T12:25:35Z</time>
      </trkpt>
      <trkpt lat="43.42633" lon="6.05268">
        <ele>299.60000610352</ele>
        <time>2016-09-21T12:25:39Z</time>
      </trkpt>
      <trkpt lat="43.42633" lon="6.05268">
        <ele>299.60000610352</ele>
        <time>2016-09-21T12:25:42Z</time>
      </trkpt>
      <trkpt lat="43.42633" lon="6.05269">
        <ele>299.60000610352</ele>
        <time>2016-09-21T12:25:45Z</time>
      </trkpt>
      <trkpt lat="43.42631" lon="6.05268">
        <ele>299.39999389648</ele>
        <time>2016-09-21T12:25:55Z</time>
      </trkpt>
      <trkpt lat="43.42631" lon="6.05266">
        <ele>299</ele>
        <time>2016-09-21T12:26:05Z</time>
      </trkpt>
      <trkpt lat="43.42631" lon="6.05267">
        <ele>298.79998779297</ele>
        <time>2016-09-21T12:26:15Z</time>
      </trkpt>
      <trkpt lat="43.42632" lon="6.05266">
        <ele>298.60000610352</ele>
        <time>2016-09-21T12:26:21Z</time>
      </trkpt>
      <trkpt lat="43.42633" lon="6.05264">
        <ele>298.60000610352</ele>
        <time>2016-09-21T12:26:35Z</time>
      </trkpt>
      <trkpt lat="43.42633" lon="6.05264">
        <ele>298.60000610352</ele>
        <time>2016-09-21T12:26:45Z</time>
      </trkpt>
      <trkpt lat="43.42633" lon="6.05265">
        <ele>298.60000610352</ele>
        <time>2016-09-21T12:26:48Z</time>
      </trkpt>
      <trkpt lat="43.42633" lon="6.05268">
        <ele>300.39999389648</ele>
        <time>2016-09-21T12:26:54Z</time>
      </trkpt>
      <trkpt lat="43.42633" lon="6.05268">
        <ele>300.20001220703</ele>
        <time>2016-09-21T12:26:55Z</time>
      </trkpt>
      <trkpt lat="43.42633" lon="6.05267">
        <ele>300.20001220703</ele>
        <time>2016-09-21T12:27:03Z</time>
      </trkpt>
      <trkpt lat="43.42635" lon="6.05267">
        <ele>300.20001220703</ele>
        <time>2016-09-21T12:27:05Z</time>
      </trkpt>
      <trkpt lat="43.42636" lon="6.05267">
        <ele>300.20001220703</ele>
        <time>2016-09-21T12:27:15Z</time>
      </trkpt>
      <trkpt lat="43.42635" lon="6.05267">
        <ele>300.20001220703</ele>
        <time>2016-09-21T12:27:21Z</time>
      </trkpt>
      <trkpt lat="43.42635" lon="6.05266">
        <ele>300</ele>
        <time>2016-09-21T12:27:25Z</time>
      </trkpt>
      <trkpt lat="43.42635" lon="6.05267">
        <ele>300.20001220703</ele>
        <time>2016-09-21T12:27:35Z</time>
      </trkpt>
      <trkpt lat="43.42634" lon="6.05265">
        <ele>300.39999389648</ele>
        <time>2016-09-21T12:27:45Z</time>
      </trkpt>
      <trkpt lat="43.42637" lon="6.05263">
        <ele>300</ele>
        <time>2016-09-21T12:27:48Z</time>
      </trkpt>
      <trkpt lat="43.4265" lon="6.05255">
        <ele>300.60000610352</ele>
        <time>2016-09-21T12:27:55Z</time>
      </trkpt>
      <trkpt lat="43.42663" lon="6.05245">
        <ele>300.79998779297</ele>
        <time>2016-09-21T12:28:05Z</time>
      </trkpt>
      <trkpt lat="43.42669" lon="6.05239">
        <ele>301.60000610352</ele>
        <time>2016-09-21T12:28:09Z</time>
      </trkpt>
      <trkpt lat="43.42675" lon="6.05235">
        <ele>302</ele>
        <time>2016-09-21T12:28:12Z</time>
      </trkpt>
      <trkpt lat="43.42678" lon="6.05232">
        <ele>302.20001220703</ele>
        <time>2016-09-21T12:28:14Z</time>
      </trkpt>
      <trkpt lat="43.4268" lon="6.05231">
        <ele>302.20001220703</ele>
        <time>2016-09-21T12:28:15Z</time>
      </trkpt>
      <trkpt lat="43.42683" lon="6.0523">
        <ele>302.20001220703</ele>
        <time>2016-09-21T12:28:17Z</time>
      </trkpt>
      <trkpt lat="43.42684" lon="6.05228">
        <ele>302.39999389648</ele>
        <time>2016-09-21T12:28:18Z</time>
      </trkpt>
      <trkpt lat="43.42686" lon="6.05227">
        <ele>302.60000610352</ele>
        <time>2016-09-21T12:28:20Z</time>
      </trkpt>
      <trkpt lat="43.42691" lon="6.05225">
        <ele>303.79998779297</ele>
        <time>2016-09-21T12:28:23Z</time>
      </trkpt>
      <trkpt lat="43.42694" lon="6.05225">
        <ele>304</ele>
        <time>2016-09-21T12:28:25Z</time>
      </trkpt>
      <trkpt lat="43.42699" lon="6.05224">
        <ele>304.79998779297</ele>
        <time>2016-09-21T12:28:29Z</time>
      </trkpt>
      <trkpt lat="43.42706" lon="6.05219">
        <ele>305.79998779297</ele>
        <time>2016-09-21T12:28:35Z</time>
      </trkpt>
      <trkpt lat="43.42707" lon="6.05218">
        <ele>305.79998779297</ele>
        <time>2016-09-21T12:28:36Z</time>
      </trkpt>
      <trkpt lat="43.42716" lon="6.05209">
        <ele>306.79998779297</ele>
        <time>2016-09-21T12:28:43Z</time>
      </trkpt>
      <trkpt lat="43.42717" lon="6.05205">
        <ele>307</ele>
        <time>2016-09-21T12:28:45Z</time>
      </trkpt>
      <trkpt lat="43.42724" lon="6.0519">
        <ele>308.20001220703</ele>
        <time>2016-09-21T12:28:54Z</time>
      </trkpt>
      <trkpt lat="43.42725" lon="6.05189">
        <ele>308.39999389648</ele>
        <time>2016-09-21T12:28:55Z</time>
      </trkpt>
      <trkpt lat="43.42731" lon="6.05181">
        <ele>309.20001220703</ele>
        <time>2016-09-21T12:29:00Z</time>
      </trkpt>
      <trkpt lat="43.42733" lon="6.0517">
        <ele>309.79998779297</ele>
        <time>2016-09-21T12:29:05Z</time>
      </trkpt>
      <trkpt lat="43.42735" lon="6.0516">
        <ele>310.39999389648</ele>
        <time>2016-09-21T12:29:10Z</time>
      </trkpt>
      <trkpt lat="43.42738" lon="6.05154">
        <ele>311.39999389648</ele>
        <time>2016-09-21T12:29:15Z</time>
      </trkpt>
      <trkpt lat="43.42744" lon="6.05143">
        <ele>312.39999389648</ele>
        <time>2016-09-21T12:29:23Z</time>
      </trkpt>
      <trkpt lat="43.42745" lon="6.05141">
        <ele>312.79998779297</ele>
        <time>2016-09-21T12:29:25Z</time>
      </trkpt>
      <trkpt lat="43.42749" lon="6.05138">
        <ele>313</ele>
        <time>2016-09-21T12:29:30Z</time>
      </trkpt>
      <trkpt lat="43.42747" lon="6.05138">
        <ele>313</ele>
        <time>2016-09-21T12:29:33Z</time>
      </trkpt>
      <trkpt lat="43.42746" lon="6.05138">
        <ele>313</ele>
        <time>2016-09-21T12:29:35Z</time>
      </trkpt>
      <trkpt lat="43.42746" lon="6.05138">
        <ele>313.20001220703</ele>
        <time>2016-09-21T12:29:38Z</time>
      </trkpt>
      <trkpt lat="43.42746" lon="6.05138">
        <ele>313.20001220703</ele>
        <time>2016-09-21T12:29:42Z</time>
      </trkpt>
      <trkpt lat="43.42746" lon="6.05138">
        <ele>313</ele>
        <time>2016-09-21T12:29:45Z</time>
      </trkpt>
      <trkpt lat="43.42744" lon="6.05137">
        <ele>313</ele>
        <time>2016-09-21T12:30:01Z</time>
      </trkpt>
      <trkpt lat="43.42743" lon="6.05139">
        <ele>313</ele>
        <time>2016-09-21T12:30:05Z</time>
      </trkpt>
      <trkpt lat="43.42744" lon="6.0514">
        <ele>313</ele>
        <time>2016-09-21T12:30:11Z</time>
      </trkpt>
      <trkpt lat="43.42746" lon="6.0514">
        <ele>312.79998779297</ele>
        <time>2016-09-21T12:30:15Z</time>
      </trkpt>
      <trkpt lat="43.42746" lon="6.0514">
        <ele>312.79998779297</ele>
        <time>2016-09-21T12:30:18Z</time>
      </trkpt>
      <trkpt lat="43.42746" lon="6.05141">
        <ele>312.79998779297</ele>
        <time>2016-09-21T12:30:20Z</time>
      </trkpt>
      <trkpt lat="43.42745" lon="6.0514">
        <ele>312.39999389648</ele>
        <time>2016-09-21T12:30:25Z</time>
      </trkpt>
      <trkpt lat="43.42747" lon="6.0514">
        <ele>312.20001220703</ele>
        <time>2016-09-21T12:30:35Z</time>
      </trkpt>
      <trkpt lat="43.42749" lon="6.05141">
        <ele>312.20001220703</ele>
        <time>2016-09-21T12:30:38Z</time>
      </trkpt>
      <trkpt lat="43.4275" lon="6.05142">
        <ele>312</ele>
        <time>2016-09-21T12:30:42Z</time>
      </trkpt>
      <trkpt lat="43.42751" lon="6.05141">
        <ele>312</ele>
        <time>2016-09-21T12:30:45Z</time>
      </trkpt>
      <trkpt lat="43.42751" lon="6.05141">
        <ele>312</ele>
        <time>2016-09-21T12:30:51Z</time>
      </trkpt>
      <trkpt lat="43.42752" lon="6.05137">
        <ele>312.20001220703</ele>
        <time>2016-09-21T12:30:55Z</time>
      </trkpt>
      <trkpt lat="43.42753" lon="6.05135">
        <ele>312.20001220703</ele>
        <time>2016-09-21T12:30:57Z</time>
      </trkpt>
      <trkpt lat="43.42758" lon="6.05118">
        <ele>312.79998779297</ele>
        <time>2016-09-21T12:31:05Z</time>
      </trkpt>
      <trkpt lat="43.42752" lon="6.05096">
        <ele>313.39999389648</ele>
        <time>2016-09-21T12:31:15Z</time>
      </trkpt>
      <trkpt lat="43.42752" lon="6.05093">
        <ele>313.39999389648</ele>
        <time>2016-09-21T12:31:16Z</time>
      </trkpt>
      <trkpt lat="43.42752" lon="6.05076">
        <ele>314.20001220703</ele>
        <time>2016-09-21T12:31:23Z</time>
      </trkpt>
      <trkpt lat="43.42752" lon="6.05071">
        <ele>314.60000610352</ele>
        <time>2016-09-21T12:31:25Z</time>
      </trkpt>
      <trkpt lat="43.42754" lon="6.05059">
        <ele>315.20001220703</ele>
        <time>2016-09-21T12:31:29Z</time>
      </trkpt>
      <trkpt lat="43.42756" lon="6.05054">
        <ele>315.60000610352</ele>
        <time>2016-09-21T12:31:31Z</time>
      </trkpt>
      <trkpt lat="43.4276" lon="6.05044">
        <ele>316</ele>
        <time>2016-09-21T12:31:35Z</time>
      </trkpt>
      <trkpt lat="43.42766" lon="6.05021">
        <ele>316.60000610352</ele>
        <time>2016-09-21T12:31:45Z</time>
      </trkpt>
      <trkpt lat="43.42767" lon="6.05016">
        <ele>316.79998779297</ele>
        <time>2016-09-21T12:31:47Z</time>
      </trkpt>
      <trkpt lat="43.42764" lon="6.04994">
        <ele>317.39999389648</ele>
        <time>2016-09-21T12:31:55Z</time>
      </trkpt>
      <trkpt lat="43.42763" lon="6.04989">
        <ele>317.79998779297</ele>
        <time>2016-09-21T12:31:57Z</time>
      </trkpt>
      <trkpt lat="43.42762" lon="6.04968">
        <ele>318.20001220703</ele>
        <time>2016-09-21T12:32:05Z</time>
      </trkpt>
      <trkpt lat="43.42762" lon="6.04958">
        <ele>318.79998779297</ele>
        <time>2016-09-21T12:32:09Z</time>
      </trkpt>
      <trkpt lat="43.4276" lon="6.04944">
        <ele>319.60000610352</ele>
        <time>2016-09-21T12:32:15Z</time>
      </trkpt>
      <trkpt lat="43.42761" lon="6.04935">
        <ele>319.79998779297</ele>
        <time>2016-09-21T12:32:20Z</time>
      </trkpt>
      <trkpt lat="43.42761" lon="6.04935">
        <ele>320.20001220703</ele>
        <time>2016-09-21T12:32:24Z</time>
      </trkpt>
      <trkpt lat="43.42761" lon="6.04935">
        <ele>320.20001220703</ele>
        <time>2016-09-21T12:32:25Z</time>
      </trkpt>
      <trkpt lat="43.42761" lon="6.04935">
        <ele>320.20001220703</ele>
        <time>2016-09-21T12:32:34Z</time>
      </trkpt>
      <trkpt lat="43.42761" lon="6.04935">
        <ele>320</ele>
        <time>2016-09-21T12:32:35Z</time>
      </trkpt>
      <trkpt lat="43.4276" lon="6.04934">
        <ele>320</ele>
        <time>2016-09-21T12:32:45Z</time>
      </trkpt>
      <trkpt lat="43.42759" lon="6.04925">
        <ele>320.39999389648</ele>
        <time>2016-09-21T12:32:55Z</time>
      </trkpt>
      <trkpt lat="43.42757" lon="6.0492">
        <ele>320.79998779297</ele>
        <time>2016-09-21T12:32:58Z</time>
      </trkpt>
      <trkpt lat="43.42757" lon="6.04919">
        <ele>321.20001220703</ele>
        <time>2016-09-21T12:32:59Z</time>
      </trkpt>
      <trkpt lat="43.42757" lon="6.04905">
        <ele>321.60000610352</ele>
        <time>2016-09-21T12:33:05Z</time>
      </trkpt>
      <trkpt lat="43.42764" lon="6.04889">
        <ele>322.39999389648</ele>
        <time>2016-09-21T12:33:12Z</time>
      </trkpt>
      <trkpt lat="43.42768" lon="6.04884">
        <ele>323</ele>
        <time>2016-09-21T12:33:15Z</time>
      </trkpt>
      <trkpt lat="43.42771" lon="6.04878">
        <ele>323.39999389648</ele>
        <time>2016-09-21T12:33:18Z</time>
      </trkpt>
      <trkpt lat="43.42775" lon="6.04861">
        <ele>324.20001220703</ele>
        <time>2016-09-21T12:33:25Z</time>
      </trkpt>
      <trkpt lat="43.42775" lon="6.04859">
        <ele>324.39999389648</ele>
        <time>2016-09-21T12:33:26Z</time>
      </trkpt>
      <trkpt lat="43.42778" lon="6.04844">
        <ele>325.39999389648</ele>
        <time>2016-09-21T12:33:33Z</time>
      </trkpt>
      <trkpt lat="43.42778" lon="6.0484">
        <ele>325.60000610352</ele>
        <time>2016-09-21T12:33:35Z</time>
      </trkpt>
      <trkpt lat="43.42786" lon="6.04828">
        <ele>326.39999389648</ele>
        <time>2016-09-21T12:33:45Z</time>
      </trkpt>
      <trkpt lat="43.42787" lon="6.04828">
        <ele>326.60000610352</ele>
        <time>2016-09-21T12:33:47Z</time>
      </trkpt>
      <trkpt lat="43.42787" lon="6.04829">
        <ele>326.60000610352</ele>
        <time>2016-09-21T12:33:53Z</time>
      </trkpt>
      <trkpt lat="43.42787" lon="6.0483">
        <ele>326.60000610352</ele>
        <time>2016-09-21T12:33:55Z</time>
      </trkpt>
      <trkpt lat="43.42786" lon="6.04831">
        <ele>326.60000610352</ele>
        <time>2016-09-21T12:34:02Z</time>
      </trkpt>
      <trkpt lat="43.42786" lon="6.04831">
        <ele>326.60000610352</ele>
        <time>2016-09-21T12:34:05Z</time>
      </trkpt>
      <trkpt lat="43.42786" lon="6.04831">
        <ele>326.39999389648</ele>
        <time>2016-09-21T12:34:12Z</time>
      </trkpt>
      <trkpt lat="43.42785" lon="6.04831">
        <ele>326.39999389648</ele>
        <time>2016-09-21T12:34:15Z</time>
      </trkpt>
      <trkpt lat="43.42786" lon="6.04831">
        <ele>326.79998779297</ele>
        <time>2016-09-21T12:34:24Z</time>
      </trkpt>
      <trkpt lat="43.42786" lon="6.04831">
        <ele>326.79998779297</ele>
        <time>2016-09-21T12:34:25Z</time>
      </trkpt>
      <trkpt lat="43.42788" lon="6.0483">
        <ele>326.79998779297</ele>
        <time>2016-09-21T12:34:27Z</time>
      </trkpt>
      <trkpt lat="43.42802" lon="6.0484">
        <ele>326.60000610352</ele>
        <time>2016-09-21T12:34:35Z</time>
      </trkpt>
      <trkpt lat="43.42812" lon="6.04852">
        <ele>327</ele>
        <time>2016-09-21T12:34:41Z</time>
      </trkpt>
      <trkpt lat="43.42821" lon="6.04855">
        <ele>327.60000610352</ele>
        <time>2016-09-21T12:34:44Z</time>
      </trkpt>
      <trkpt lat="43.42823" lon="6.04855">
        <ele>328.20001220703</ele>
        <time>2016-09-21T12:34:45Z</time>
      </trkpt>
      <trkpt lat="43.42827" lon="6.04855">
        <ele>328.79998779297</ele>
        <time>2016-09-21T12:34:47Z</time>
      </trkpt>
      <trkpt lat="43.42831" lon="6.04855">
        <ele>329.20001220703</ele>
        <time>2016-09-21T12:34:49Z</time>
      </trkpt>
      <trkpt lat="43.42835" lon="6.04856">
        <ele>329.79998779297</ele>
        <time>2016-09-21T12:34:51Z</time>
      </trkpt>
      <trkpt lat="43.42837" lon="6.04856">
        <ele>330</ele>
        <time>2016-09-21T12:34:52Z</time>
      </trkpt>
      <trkpt lat="43.42842" lon="6.04855">
        <ele>330.60000610352</ele>
        <time>2016-09-21T12:34:54Z</time>
      </trkpt>
      <trkpt lat="43.42843" lon="6.04857">
        <ele>330.79998779297</ele>
        <time>2016-09-21T12:34:55Z</time>
      </trkpt>
      <trkpt lat="43.42845" lon="6.04859">
        <ele>331.20001220703</ele>
        <time>2016-09-21T12:34:57Z</time>
      </trkpt>
      <trkpt lat="43.42852" lon="6.04864">
        <ele>332.39999389648</ele>
        <time>2016-09-21T12:35:03Z</time>
      </trkpt>
      <trkpt lat="43.42864" lon="6.04883">
        <ele>333</ele>
        <time>2016-09-21T12:35:15Z</time>
      </trkpt>
      <trkpt lat="43.42873" lon="6.04897">
        <ele>332.20001220703</ele>
        <time>2016-09-21T12:35:23Z</time>
      </trkpt>
      <trkpt lat="43.42874" lon="6.04902">
        <ele>332.20001220703</ele>
        <time>2016-09-21T12:35:25Z</time>
      </trkpt>
      <trkpt lat="43.42879" lon="6.04913">
        <ele>332</ele>
        <time>2016-09-21T12:35:31Z</time>
      </trkpt>
      <trkpt lat="43.4288" lon="6.04916">
        <ele>332</ele>
        <time>2016-09-21T12:35:35Z</time>
      </trkpt>
      <trkpt lat="43.42883" lon="6.04918">
        <ele>332</ele>
        <time>2016-09-21T12:35:39Z</time>
      </trkpt>
      <trkpt lat="43.42891" lon="6.04922">
        <ele>332.39999389648</ele>
        <time>2016-09-21T12:35:44Z</time>
      </trkpt>
      <trkpt lat="43.42892" lon="6.04922">
        <ele>332.39999389648</ele>
        <time>2016-09-21T12:35:45Z</time>
      </trkpt>
      <trkpt lat="43.42901" lon="6.04922">
        <ele>332.20001220703</ele>
        <time>2016-09-21T12:35:49Z</time>
      </trkpt>
      <trkpt lat="43.42913" lon="6.04918">
        <ele>332.20001220703</ele>
        <time>2016-09-21T12:35:55Z</time>
      </trkpt>
      <trkpt lat="43.42922" lon="6.04916">
        <ele>332.79998779297</ele>
        <time>2016-09-21T12:36:00Z</time>
      </trkpt>
      <trkpt lat="43.42924" lon="6.04917">
        <ele>333</ele>
        <time>2016-09-21T12:36:05Z</time>
      </trkpt>
      <trkpt lat="43.42924" lon="6.04916">
        <ele>333</ele>
        <time>2016-09-21T12:36:10Z</time>
      </trkpt>
      <trkpt lat="43.42923" lon="6.04916">
        <ele>332.79998779297</ele>
        <time>2016-09-21T12:36:15Z</time>
      </trkpt>
      <trkpt lat="43.42924" lon="6.04916">
        <ele>332.79998779297</ele>
        <time>2016-09-21T12:36:25Z</time>
      </trkpt>
      <trkpt lat="43.42925" lon="6.04915">
        <ele>333</ele>
        <time>2016-09-21T12:36:45Z</time>
      </trkpt>
      <trkpt lat="43.42926" lon="6.04917">
        <ele>333.20001220703</ele>
        <time>2016-09-21T12:36:55Z</time>
      </trkpt>
      <trkpt lat="43.42925" lon="6.04916">
        <ele>333</ele>
        <time>2016-09-21T12:37:05Z</time>
      </trkpt>
      <trkpt lat="43.42926" lon="6.04917">
        <ele>333.20001220703</ele>
        <time>2016-09-21T12:37:15Z</time>
      </trkpt>
      <trkpt lat="43.42924" lon="6.04917">
        <ele>333.20001220703</ele>
        <time>2016-09-21T12:37:40Z</time>
      </trkpt>
      <trkpt lat="43.42926" lon="6.04917">
        <ele>333.20001220703</ele>
        <time>2016-09-21T12:37:45Z</time>
      </trkpt>
      <trkpt lat="43.42926" lon="6.04917">
        <ele>333.20001220703</ele>
        <time>2016-09-21T12:37:55Z</time>
      </trkpt>
      <trkpt lat="43.42924" lon="6.04918">
        <ele>333.20001220703</ele>
        <time>2016-09-21T12:38:25Z</time>
      </trkpt>
      <trkpt lat="43.42926" lon="6.04917">
        <ele>333.20001220703</ele>
        <time>2016-09-21T12:38:35Z</time>
      </trkpt>
      <trkpt lat="43.42926" lon="6.04917">
        <ele>333.20001220703</ele>
        <time>2016-09-21T12:38:40Z</time>
      </trkpt>
      <trkpt lat="43.42926" lon="6.04916">
        <ele>333.20001220703</ele>
        <time>2016-09-21T12:38:55Z</time>
      </trkpt>
      <trkpt lat="43.42926" lon="6.04916">
        <ele>333.20001220703</ele>
        <time>2016-09-21T12:39:05Z</time>
      </trkpt>
      <trkpt lat="43.42926" lon="6.04916">
        <ele>333.20001220703</ele>
        <time>2016-09-21T12:39:15Z</time>
      </trkpt>
      <trkpt lat="43.42928" lon="6.04916">
        <ele>333.20001220703</ele>
        <time>2016-09-21T12:39:34Z</time>
      </trkpt>
      <trkpt lat="43.4293" lon="6.04918">
        <ele>333.20001220703</ele>
        <time>2016-09-21T12:39:36Z</time>
      </trkpt>
      <trkpt lat="43.4293" lon="6.0492">
        <ele>333.60000610352</ele>
        <time>2016-09-21T12:39:37Z</time>
      </trkpt>
      <trkpt lat="43.42932" lon="6.04929">
        <ele>333.79998779297</ele>
        <time>2016-09-21T12:39:41Z</time>
      </trkpt>
      <trkpt lat="43.42933" lon="6.04941">
        <ele>333.79998779297</ele>
        <time>2016-09-21T12:39:45Z</time>
      </trkpt>
      <trkpt lat="43.4293" lon="6.04976">
        <ele>334.60000610352</ele>
        <time>2016-09-21T12:39:55Z</time>
      </trkpt>
      <trkpt lat="43.42928" lon="6.04986">
        <ele>334.79998779297</ele>
        <time>2016-09-21T12:39:58Z</time>
      </trkpt>
      <trkpt lat="43.42925" lon="6.05009">
        <ele>335.20001220703</ele>
        <time>2016-09-21T12:40:05Z</time>
      </trkpt>
      <trkpt lat="43.42923" lon="6.05029">
        <ele>335.79998779297</ele>
        <time>2016-09-21T12:40:12Z</time>
      </trkpt>
      <trkpt lat="43.42922" lon="6.0504">
        <ele>336.20001220703</ele>
        <time>2016-09-21T12:40:15Z</time>
      </trkpt>
      <trkpt lat="43.42916" lon="6.05073">
        <ele>336.39999389648</ele>
        <time>2016-09-21T12:40:25Z</time>
      </trkpt>
      <trkpt lat="43.42913" lon="6.05109">
        <ele>337</ele>
        <time>2016-09-21T12:40:35Z</time>
      </trkpt>
      <trkpt lat="43.4291" lon="6.0513">
        <ele>337.39999389648</ele>
        <time>2016-09-21T12:40:41Z</time>
      </trkpt>
      <trkpt lat="43.42908" lon="6.05144">
        <ele>338</ele>
        <time>2016-09-21T12:40:45Z</time>
      </trkpt>
      <trkpt lat="43.42904" lon="6.05177">
        <ele>339.39999389648</ele>
        <time>2016-09-21T12:40:55Z</time>
      </trkpt>
      <trkpt lat="43.42902" lon="6.05194">
        <ele>339.79998779297</ele>
        <time>2016-09-21T12:41:00Z</time>
      </trkpt>
      <trkpt lat="43.429" lon="6.05214">
        <ele>339.79998779297</ele>
        <time>2016-09-21T12:41:05Z</time>
      </trkpt>
      <trkpt lat="43.42898" lon="6.05221">
        <ele>340</ele>
        <time>2016-09-21T12:41:07Z</time>
      </trkpt>
      <trkpt lat="43.42895" lon="6.05245">
        <ele>340.39999389648</ele>
        <time>2016-09-21T12:41:15Z</time>
      </trkpt>
      <trkpt lat="43.42892" lon="6.05271">
        <ele>340.79998779297</ele>
        <time>2016-09-21T12:41:23Z</time>
      </trkpt>
      <trkpt lat="43.42889" lon="6.05297">
        <ele>340.79998779297</ele>
        <time>2016-09-21T12:41:31Z</time>
      </trkpt>
      <trkpt lat="43.42888" lon="6.05312">
        <ele>340.79998779297</ele>
        <time>2016-09-21T12:41:35Z</time>
      </trkpt>
      <trkpt lat="43.42885" lon="6.05334">
        <ele>340</ele>
        <time>2016-09-21T12:41:40Z</time>
      </trkpt>
      <trkpt lat="43.42883" lon="6.0535">
        <ele>339.60000610352</ele>
        <time>2016-09-21T12:41:43Z</time>
      </trkpt>
      <trkpt lat="43.4288" lon="6.05361">
        <ele>339</ele>
        <time>2016-09-21T12:41:45Z</time>
      </trkpt>
      <trkpt lat="43.42879" lon="6.05374">
        <ele>339</ele>
        <time>2016-09-21T12:41:47Z</time>
      </trkpt>
      <trkpt lat="43.42878" lon="6.05395">
        <ele>338.20001220703</ele>
        <time>2016-09-21T12:41:50Z</time>
      </trkpt>
      <trkpt lat="43.42878" lon="6.05403">
        <ele>338</ele>
        <time>2016-09-21T12:41:51Z</time>
      </trkpt>
      <trkpt lat="43.42877" lon="6.05411">
        <ele>337.79998779297</ele>
        <time>2016-09-21T12:41:52Z</time>
      </trkpt>
      <trkpt lat="43.42874" lon="6.05434">
        <ele>336.79998779297</ele>
        <time>2016-09-21T12:41:55Z</time>
      </trkpt>
      <trkpt lat="43.4287" lon="6.05464">
        <ele>335.60000610352</ele>
        <time>2016-09-21T12:41:59Z</time>
      </trkpt>
      <trkpt lat="43.42865" lon="6.05507">
        <ele>335.20001220703</ele>
        <time>2016-09-21T12:42:05Z</time>
      </trkpt>
      <trkpt lat="43.42862" lon="6.05544">
        <ele>335</ele>
        <time>2016-09-21T12:42:13Z</time>
      </trkpt>
      <trkpt lat="43.42865" lon="6.05545">
        <ele>335</ele>
        <time>2016-09-21T12:42:15Z</time>
      </trkpt>
      <trkpt lat="43.42865" lon="6.05544">
        <ele>335</ele>
        <time>2016-09-21T12:42:19Z</time>
      </trkpt>
      <trkpt lat="43.42866" lon="6.05544">
        <ele>335.20001220703</ele>
        <time>2016-09-21T12:42:25Z</time>
      </trkpt>
      <trkpt lat="43.42865" lon="6.05543">
        <ele>335.39999389648</ele>
        <time>2016-09-21T12:42:35Z</time>
      </trkpt>
      <trkpt lat="43.42865" lon="6.05542">
        <ele>335.20001220703</ele>
        <time>2016-09-21T12:42:40Z</time>
      </trkpt>
      <trkpt lat="43.42865" lon="6.05542">
        <ele>335.20001220703</ele>
        <time>2016-09-21T12:42:45Z</time>
      </trkpt>
      <trkpt lat="43.42865" lon="6.05542">
        <ele>335.79998779297</ele>
        <time>2016-09-21T12:42:55Z</time>
      </trkpt>
      <trkpt lat="43.42865" lon="6.05542">
        <ele>335.79998779297</ele>
        <time>2016-09-21T12:43:05Z</time>
      </trkpt>
      <trkpt lat="43.42865" lon="6.05542">
        <ele>335.39999389648</ele>
        <time>2016-09-21T12:43:15Z</time>
      </trkpt>
      <trkpt lat="43.42866" lon="6.05542">
        <ele>335.20001220703</ele>
        <time>2016-09-21T12:43:25Z</time>
      </trkpt>
      <trkpt lat="43.42867" lon="6.05541">
        <ele>335.20001220703</ele>
        <time>2016-09-21T12:43:33Z</time>
      </trkpt>
      <trkpt lat="43.42867" lon="6.05541">
        <ele>335.20001220703</ele>
        <time>2016-09-21T12:43:35Z</time>
      </trkpt>
      <trkpt lat="43.42879" lon="6.05544">
        <ele>334.39999389648</ele>
        <time>2016-09-21T12:43:43Z</time>
      </trkpt>
      <trkpt lat="43.42884" lon="6.05546">
        <ele>334.20001220703</ele>
        <time>2016-09-21T12:43:45Z</time>
      </trkpt>
      <trkpt lat="43.42897" lon="6.05554">
        <ele>334</ele>
        <time>2016-09-21T12:43:50Z</time>
      </trkpt>
      <trkpt lat="43.42912" lon="6.0555">
        <ele>333.60000610352</ele>
        <time>2016-09-21T12:43:55Z</time>
      </trkpt>
      <trkpt lat="43.42918" lon="6.05546">
        <ele>333.20001220703</ele>
        <time>2016-09-21T12:43:57Z</time>
      </trkpt>
      <trkpt lat="43.4294" lon="6.05528">
        <ele>332.20001220703</ele>
        <time>2016-09-21T12:44:05Z</time>
      </trkpt>
      <trkpt lat="43.4295" lon="6.05522">
        <ele>332.39999389648</ele>
        <time>2016-09-21T12:44:09Z</time>
      </trkpt>
      <trkpt lat="43.42958" lon="6.05517">
        <ele>333</ele>
        <time>2016-09-21T12:44:12Z</time>
      </trkpt>
      <trkpt lat="43.42969" lon="6.05514">
        <ele>334.39999389648</ele>
        <time>2016-09-21T12:44:16Z</time>
      </trkpt>
      <trkpt lat="43.42974" lon="6.05512">
        <ele>335.39999389648</ele>
        <time>2016-09-21T12:44:18Z</time>
      </trkpt>
      <trkpt lat="43.42977" lon="6.05512">
        <ele>336</ele>
        <time>2016-09-21T12:44:19Z</time>
      </trkpt>
      <trkpt lat="43.42986" lon="6.05505">
        <ele>337</ele>
        <time>2016-09-21T12:44:23Z</time>
      </trkpt>
      <trkpt lat="43.4299" lon="6.05503">
        <ele>337.20001220703</ele>
        <time>2016-09-21T12:44:25Z</time>
      </trkpt>
      <trkpt lat="43.42994" lon="6.05501">
        <ele>337.79998779297</ele>
        <time>2016-09-21T12:44:27Z</time>
      </trkpt>
      <trkpt lat="43.42998" lon="6.05502">
        <ele>339.20001220703</ele>
        <time>2016-09-21T12:44:29Z</time>
      </trkpt>
      <trkpt lat="43.43" lon="6.05502">
        <ele>339.39999389648</ele>
        <time>2016-09-21T12:44:30Z</time>
      </trkpt>
      <trkpt lat="43.43005" lon="6.05503">
        <ele>340.20001220703</ele>
        <time>2016-09-21T12:44:33Z</time>
      </trkpt>
      <trkpt lat="43.43007" lon="6.05502">
        <ele>340.39999389648</ele>
        <time>2016-09-21T12:44:35Z</time>
      </trkpt>
      <trkpt lat="43.43006" lon="6.05502">
        <ele>340.60000610352</ele>
        <time>2016-09-21T12:44:38Z</time>
      </trkpt>
      <trkpt lat="43.43006" lon="6.05502">
        <ele>340.60000610352</ele>
        <time>2016-09-21T12:44:40Z</time>
      </trkpt>
      <trkpt lat="43.43006" lon="6.05502">
        <ele>340.60000610352</ele>
        <time>2016-09-21T12:44:42Z</time>
      </trkpt>
      <trkpt lat="43.43006" lon="6.05502">
        <ele>340.39999389648</ele>
        <time>2016-09-21T12:44:45Z</time>
      </trkpt>
      <trkpt lat="43.43006" lon="6.05502">
        <ele>340.39999389648</ele>
        <time>2016-09-21T12:44:55Z</time>
      </trkpt>
      <trkpt lat="43.43007" lon="6.05502">
        <ele>340.39999389648</ele>
        <time>2016-09-21T12:45:05Z</time>
      </trkpt>
      <trkpt lat="43.43007" lon="6.05502">
        <ele>340.39999389648</ele>
        <time>2016-09-21T12:45:20Z</time>
      </trkpt>
      <trkpt lat="43.43007" lon="6.05502">
        <ele>340.39999389648</ele>
        <time>2016-09-21T12:45:25Z</time>
      </trkpt>
      <trkpt lat="43.43007" lon="6.05502">
        <ele>340.39999389648</ele>
        <time>2016-09-21T12:45:29Z</time>
      </trkpt>
      <trkpt lat="43.43007" lon="6.05502">
        <ele>340.20001220703</ele>
        <time>2016-09-21T12:45:32Z</time>
      </trkpt>
      <trkpt lat="43.43007" lon="6.05502">
        <ele>340.20001220703</ele>
        <time>2016-09-21T12:45:35Z</time>
      </trkpt>
      <trkpt lat="43.43007" lon="6.05502">
        <ele>340.39999389648</ele>
        <time>2016-09-21T12:45:39Z</time>
      </trkpt>
      <trkpt lat="43.43007" lon="6.05502">
        <ele>340.39999389648</ele>
        <time>2016-09-21T12:45:45Z</time>
      </trkpt>
      <trkpt lat="43.43006" lon="6.05503">
        <ele>340.39999389648</ele>
        <time>2016-09-21T12:45:55Z</time>
      </trkpt>
      <trkpt lat="43.43006" lon="6.05503">
        <ele>340.39999389648</ele>
        <time>2016-09-21T12:46:01Z</time>
      </trkpt>
      <trkpt lat="43.43005" lon="6.05503">
        <ele>340.39999389648</ele>
        <time>2016-09-21T12:46:10Z</time>
      </trkpt>
      <trkpt lat="43.43006" lon="6.05503">
        <ele>340.39999389648</ele>
        <time>2016-09-21T12:46:15Z</time>
      </trkpt>
      <trkpt lat="43.43007" lon="6.05503">
        <ele>340.39999389648</ele>
        <time>2016-09-21T12:46:25Z</time>
      </trkpt>
      <trkpt lat="43.43008" lon="6.05505">
        <ele>340.39999389648</ele>
        <time>2016-09-21T12:46:35Z</time>
      </trkpt>
      <trkpt lat="43.43013" lon="6.05512">
        <ele>339</ele>
        <time>2016-09-21T12:46:39Z</time>
      </trkpt>
      <trkpt lat="43.43017" lon="6.05522">
        <ele>337.60000610352</ele>
        <time>2016-09-21T12:46:42Z</time>
      </trkpt>
      <trkpt lat="43.43019" lon="6.05535">
        <ele>337.60000610352</ele>
        <time>2016-09-21T12:46:45Z</time>
      </trkpt>
      <trkpt lat="43.43024" lon="6.05552">
        <ele>337.20001220703</ele>
        <time>2016-09-21T12:46:50Z</time>
      </trkpt>
      <trkpt lat="43.43024" lon="6.05554">
        <ele>337.20001220703</ele>
        <time>2016-09-21T12:46:55Z</time>
      </trkpt>
      <trkpt lat="43.43023" lon="6.05556">
        <ele>337.20001220703</ele>
        <time>2016-09-21T12:47:04Z</time>
      </trkpt>
      <trkpt lat="43.43024" lon="6.05557">
        <ele>337.20001220703</ele>
        <time>2016-09-21T12:47:05Z</time>
      </trkpt>
      <trkpt lat="43.43033" lon="6.05592">
        <ele>336.79998779297</ele>
        <time>2016-09-21T12:47:15Z</time>
      </trkpt>
      <trkpt lat="43.43034" lon="6.05608">
        <ele>336.39999389648</ele>
        <time>2016-09-21T12:47:18Z</time>
      </trkpt>
      <trkpt lat="43.43033" lon="6.05614">
        <ele>336.20001220703</ele>
        <time>2016-09-21T12:47:19Z</time>
      </trkpt>
      <trkpt lat="43.43029" lon="6.05634">
        <ele>335.39999389648</ele>
        <time>2016-09-21T12:47:22Z</time>
      </trkpt>
      <trkpt lat="43.43026" lon="6.05649">
        <ele>334.20001220703</ele>
        <time>2016-09-21T12:47:25Z</time>
      </trkpt>
      <trkpt lat="43.43027" lon="6.05672">
        <ele>333</ele>
        <time>2016-09-21T12:47:32Z</time>
      </trkpt>
      <trkpt lat="43.43029" lon="6.05683">
        <ele>332.39999389648</ele>
        <time>2016-09-21T12:47:35Z</time>
      </trkpt>
      <trkpt lat="43.4303" lon="6.05687">
        <ele>331.79998779297</ele>
        <time>2016-09-21T12:47:36Z</time>
      </trkpt>
      <trkpt lat="43.43022" lon="6.05715">
        <ele>330.79998779297</ele>
        <time>2016-09-21T12:47:43Z</time>
      </trkpt>
      <trkpt lat="43.43019" lon="6.05725">
        <ele>330</ele>
        <time>2016-09-21T12:47:45Z</time>
      </trkpt>
      <trkpt lat="43.43017" lon="6.05729">
        <ele>329.79998779297</ele>
        <time>2016-09-21T12:47:46Z</time>
      </trkpt>
      <trkpt lat="43.43003" lon="6.05754">
        <ele>328.79998779297</ele>
        <time>2016-09-21T12:47:54Z</time>
      </trkpt>
      <trkpt lat="43.43002" lon="6.05759">
        <ele>329</ele>
        <time>2016-09-21T12:47:55Z</time>
      </trkpt>
      <trkpt lat="43.42999" lon="6.05783">
        <ele>328.79998779297</ele>
        <time>2016-09-21T12:48:01Z</time>
      </trkpt>
      <trkpt lat="43.42999" lon="6.05794">
        <ele>328</ele>
        <time>2016-09-21T12:48:05Z</time>
      </trkpt>
      <trkpt lat="43.43" lon="6.05796">
        <ele>327.60000610352</ele>
        <time>2016-09-21T12:48:07Z</time>
      </trkpt>
      <trkpt lat="43.43002" lon="6.058">
        <ele>326.39999389648</ele>
        <time>2016-09-21T12:48:11Z</time>
      </trkpt>
      <trkpt lat="43.43003" lon="6.0581">
        <ele>325.39999389648</ele>
        <time>2016-09-21T12:48:15Z</time>
      </trkpt>
      <trkpt lat="43.43003" lon="6.05813">
        <ele>325.20001220703</ele>
        <time>2016-09-21T12:48:16Z</time>
      </trkpt>
      <trkpt lat="43.43003" lon="6.05826">
        <ele>324</ele>
        <time>2016-09-21T12:48:19Z</time>
      </trkpt>
      <trkpt lat="43.43004" lon="6.05843">
        <ele>322.79998779297</ele>
        <time>2016-09-21T12:48:23Z</time>
      </trkpt>
      <trkpt lat="43.43005" lon="6.0585">
        <ele>321.39999389648</ele>
        <time>2016-09-21T12:48:25Z</time>
      </trkpt>
      <trkpt lat="43.43008" lon="6.05854">
        <ele>320</ele>
        <time>2016-09-21T12:48:27Z</time>
      </trkpt>
      <trkpt lat="43.43012" lon="6.05857">
        <ele>318.79998779297</ele>
        <time>2016-09-21T12:48:30Z</time>
      </trkpt>
      <trkpt lat="43.43016" lon="6.05859">
        <ele>317.60000610352</ele>
        <time>2016-09-21T12:48:32Z</time>
      </trkpt>
      <trkpt lat="43.4302" lon="6.0586">
        <ele>316.60000610352</ele>
        <time>2016-09-21T12:48:34Z</time>
      </trkpt>
      <trkpt lat="43.43022" lon="6.0586">
        <ele>316.20001220703</ele>
        <time>2016-09-21T12:48:35Z</time>
      </trkpt>
      <trkpt lat="43.43024" lon="6.05861">
        <ele>315.39999389648</ele>
        <time>2016-09-21T12:48:37Z</time>
      </trkpt>
      <trkpt lat="43.43025" lon="6.0586">
        <ele>314.60000610352</ele>
        <time>2016-09-21T12:48:45Z</time>
      </trkpt>
      <trkpt lat="43.43026" lon="6.05861">
        <ele>314.39999389648</ele>
        <time>2016-09-21T12:48:55Z</time>
      </trkpt>
      <trkpt lat="43.43044" lon="6.05856">
        <ele>313</ele>
        <time>2016-09-21T12:49:03Z</time>
      </trkpt>
      <trkpt lat="43.43048" lon="6.05854">
        <ele>311.60000610352</ele>
        <time>2016-09-21T12:49:05Z</time>
      </trkpt>
      <trkpt lat="43.43058" lon="6.0585">
        <ele>310.39999389648</ele>
        <time>2016-09-21T12:49:08Z</time>
      </trkpt>
      <trkpt lat="43.43065" lon="6.05849">
        <ele>308.60000610352</ele>
        <time>2016-09-21T12:49:10Z</time>
      </trkpt>
      <trkpt lat="43.43071" lon="6.05849">
        <ele>307.20001220703</ele>
        <time>2016-09-21T12:49:12Z</time>
      </trkpt>
      <trkpt lat="43.43078" lon="6.05847">
        <ele>306</ele>
        <time>2016-09-21T12:49:15Z</time>
      </trkpt>
      <trkpt lat="43.43088" lon="6.05845">
        <ele>304.60000610352</ele>
        <time>2016-09-21T12:49:18Z</time>
      </trkpt>
      <trkpt lat="43.43094" lon="6.05842">
        <ele>303.60000610352</ele>
        <time>2016-09-21T12:49:21Z</time>
      </trkpt>
      <trkpt lat="43.431" lon="6.05842">
        <ele>302.39999389648</ele>
        <time>2016-09-21T12:49:24Z</time>
      </trkpt>
      <trkpt lat="43.43103" lon="6.05842">
        <ele>302</ele>
        <time>2016-09-21T12:49:25Z</time>
      </trkpt>
      <trkpt lat="43.43106" lon="6.0584">
        <ele>300.39999389648</ele>
        <time>2016-09-21T12:49:27Z</time>
      </trkpt>
      <trkpt lat="43.43107" lon="6.0584">
        <ele>299.60000610352</ele>
        <time>2016-09-21T12:49:28Z</time>
      </trkpt>
      <trkpt lat="43.43108" lon="6.0584">
        <ele>298.79998779297</ele>
        <time>2016-09-21T12:49:35Z</time>
      </trkpt>
      <trkpt lat="43.43116" lon="6.05843">
        <ele>298.39999389648</ele>
        <time>2016-09-21T12:49:39Z</time>
      </trkpt>
      <trkpt lat="43.43127" lon="6.05843">
        <ele>297.39999389648</ele>
        <time>2016-09-21T12:49:43Z</time>
      </trkpt>
      <trkpt lat="43.43134" lon="6.05843">
        <ele>296.20001220703</ele>
        <time>2016-09-21T12:49:45Z</time>
      </trkpt>
      <trkpt lat="43.4314" lon="6.05841">
        <ele>295.20001220703</ele>
        <time>2016-09-21T12:49:47Z</time>
      </trkpt>
      <trkpt lat="43.43148" lon="6.05839">
        <ele>294</ele>
        <time>2016-09-21T12:49:50Z</time>
      </trkpt>
      <trkpt lat="43.43153" lon="6.05837">
        <ele>292.79998779297</ele>
        <time>2016-09-21T12:49:52Z</time>
      </trkpt>
      <trkpt lat="43.43173" lon="6.05831">
        <ele>290.60000610352</ele>
        <time>2016-09-21T12:49:58Z</time>
      </trkpt>
      <trkpt lat="43.43179" lon="6.05824">
        <ele>288.60000610352</ele>
        <time>2016-09-21T12:50:00Z</time>
      </trkpt>
      <trkpt lat="43.4318" lon="6.05819">
        <ele>287.39999389648</ele>
        <time>2016-09-21T12:50:01Z</time>
      </trkpt>
      <trkpt lat="43.43181" lon="6.05815">
        <ele>286.79998779297</ele>
        <time>2016-09-21T12:50:02Z</time>
      </trkpt>
      <trkpt lat="43.4318" lon="6.05813">
        <ele>286.39999389648</ele>
        <time>2016-09-21T12:50:04Z</time>
      </trkpt>
      <trkpt lat="43.4318" lon="6.05813">
        <ele>286.39999389648</ele>
        <time>2016-09-21T12:50:05Z</time>
      </trkpt>
      <trkpt lat="43.4318" lon="6.05814">
        <ele>286.39999389648</ele>
        <time>2016-09-21T12:50:15Z</time>
      </trkpt>
      <trkpt lat="43.43179" lon="6.05812">
        <ele>286.39999389648</ele>
        <time>2016-09-21T12:50:25Z</time>
      </trkpt>
      <trkpt lat="43.43179" lon="6.05812">
        <ele>286.39999389648</ele>
        <time>2016-09-21T12:50:35Z</time>
      </trkpt>
      <trkpt lat="43.43179" lon="6.05811">
        <ele>286.39999389648</ele>
        <time>2016-09-21T12:50:45Z</time>
      </trkpt>
      <trkpt lat="43.43179" lon="6.05812">
        <ele>286.20001220703</ele>
        <time>2016-09-21T12:50:55Z</time>
      </trkpt>
      <trkpt lat="43.4318" lon="6.05813">
        <ele>286.39999389648</ele>
        <time>2016-09-21T12:51:05Z</time>
      </trkpt>
      <trkpt lat="43.4318" lon="6.05814">
        <ele>286.39999389648</ele>
        <time>2016-09-21T12:51:15Z</time>
      </trkpt>
      <trkpt lat="43.4318" lon="6.05814">
        <ele>286.39999389648</ele>
        <time>2016-09-21T12:51:25Z</time>
      </trkpt>
      <trkpt lat="43.4318" lon="6.05813">
        <ele>286.39999389648</ele>
        <time>2016-09-21T12:51:35Z</time>
      </trkpt>
      <trkpt lat="43.4318" lon="6.05813">
        <ele>286.39999389648</ele>
        <time>2016-09-21T12:51:45Z</time>
      </trkpt>
      <trkpt lat="43.43183" lon="6.0581">
        <ele>286.39999389648</ele>
        <time>2016-09-21T12:51:51Z</time>
      </trkpt>
      <trkpt lat="43.43186" lon="6.05802">
        <ele>286</ele>
        <time>2016-09-21T12:51:55Z</time>
      </trkpt>
      <trkpt lat="43.43195" lon="6.05785">
        <ele>285.60000610352</ele>
        <time>2016-09-21T12:52:01Z</time>
      </trkpt>
      <trkpt lat="43.432" lon="6.05779">
        <ele>285.39999389648</ele>
        <time>2016-09-21T12:52:03Z</time>
      </trkpt>
      <trkpt lat="43.43205" lon="6.05775">
        <ele>284.79998779297</ele>
        <time>2016-09-21T12:52:05Z</time>
      </trkpt>
      <trkpt lat="43.43211" lon="6.05767">
        <ele>284.20001220703</ele>
        <time>2016-09-21T12:52:08Z</time>
      </trkpt>
      <trkpt lat="43.43212" lon="6.05747">
        <ele>284.20001220703</ele>
        <time>2016-09-21T12:52:13Z</time>
      </trkpt>
      <trkpt lat="43.43213" lon="6.05738">
        <ele>284.39999389648</ele>
        <time>2016-09-21T12:52:15Z</time>
      </trkpt>
      <trkpt lat="43.43217" lon="6.05689">
        <ele>283.79998779297</ele>
        <time>2016-09-21T12:52:25Z</time>
      </trkpt>
      <trkpt lat="43.43221" lon="6.05634">
        <ele>283.60000610352</ele>
        <time>2016-09-21T12:52:35Z</time>
      </trkpt>
      <trkpt lat="43.43224" lon="6.05612">
        <ele>283.20001220703</ele>
        <time>2016-09-21T12:52:39Z</time>
      </trkpt>
      <trkpt lat="43.43228" lon="6.05575">
        <ele>283</ele>
        <time>2016-09-21T12:52:45Z</time>
      </trkpt>
      <trkpt lat="43.4323" lon="6.05558">
        <ele>283</ele>
        <time>2016-09-21T12:52:48Z</time>
      </trkpt>
      <trkpt lat="43.43242" lon="6.05518">
        <ele>283</ele>
        <time>2016-09-21T12:52:55Z</time>
      </trkpt>
      <trkpt lat="43.43253" lon="6.0548">
        <ele>282</ele>
        <time>2016-09-21T12:53:00Z</time>
      </trkpt>
      <trkpt lat="43.43259" lon="6.05463">
        <ele>280.60000610352</ele>
        <time>2016-09-21T12:53:02Z</time>
      </trkpt>
      <trkpt lat="43.43269" lon="6.05438">
        <ele>279.20001220703</ele>
        <time>2016-09-21T12:53:05Z</time>
      </trkpt>
      <trkpt lat="43.43277" lon="6.05415">
        <ele>277.79998779297</ele>
        <time>2016-09-21T12:53:08Z</time>
      </trkpt>
      <trkpt lat="43.43285" lon="6.05394">
        <ele>276.79998779297</ele>
        <time>2016-09-21T12:53:11Z</time>
      </trkpt>
      <trkpt lat="43.43291" lon="6.05376">
        <ele>276.60000610352</ele>
        <time>2016-09-21T12:53:14Z</time>
      </trkpt>
      <trkpt lat="43.43294" lon="6.05372">
        <ele>276.60000610352</ele>
        <time>2016-09-21T12:53:15Z</time>
      </trkpt>
      <trkpt lat="43.43303" lon="6.05355">
        <ele>277.39999389648</ele>
        <time>2016-09-21T12:53:19Z</time>
      </trkpt>
      <trkpt lat="43.43315" lon="6.05331">
        <ele>277.60000610352</ele>
        <time>2016-09-21T12:53:25Z</time>
      </trkpt>
      <trkpt lat="43.43335" lon="6.05279">
        <ele>277</ele>
        <time>2016-09-21T12:53:35Z</time>
      </trkpt>
      <trkpt lat="43.43353" lon="6.05229">
        <ele>275.79998779297</ele>
        <time>2016-09-21T12:53:44Z</time>
      </trkpt>
      <trkpt lat="43.43367" lon="6.05191">
        <ele>276.20001220703</ele>
        <time>2016-09-21T12:53:51Z</time>
      </trkpt>
      <trkpt lat="43.43374" lon="6.0517">
        <ele>276.79998779297</ele>
        <time>2016-09-21T12:53:55Z</time>
      </trkpt>
      <trkpt lat="43.43376" lon="6.05165">
        <ele>277</ele>
        <time>2016-09-21T12:53:56Z</time>
      </trkpt>
      <trkpt lat="43.43381" lon="6.0515">
        <ele>277.79998779297</ele>
        <time>2016-09-21T12:53:59Z</time>
      </trkpt>
      <trkpt lat="43.43382" lon="6.05145">
        <ele>278.20001220703</ele>
        <time>2016-09-21T12:54:00Z</time>
      </trkpt>
      <trkpt lat="43.43387" lon="6.05128">
        <ele>279.39999389648</ele>
        <time>2016-09-21T12:54:05Z</time>
      </trkpt>
      <trkpt lat="43.43391" lon="6.05113">
        <ele>280.20001220703</ele>
        <time>2016-09-21T12:54:11Z</time>
      </trkpt>
      <trkpt lat="43.43395" lon="6.05105">
        <ele>280.20001220703</ele>
        <time>2016-09-21T12:54:15Z</time>
      </trkpt>
      <trkpt lat="43.43402" lon="6.05084">
        <ele>279.60000610352</ele>
        <time>2016-09-21T12:54:25Z</time>
      </trkpt>
      <trkpt lat="43.43412" lon="6.05037">
        <ele>278.60000610352</ele>
        <time>2016-09-21T12:54:35Z</time>
      </trkpt>
      <trkpt lat="43.43412" lon="6.0503">
        <ele>278.20001220703</ele>
        <time>2016-09-21T12:54:36Z</time>
      </trkpt>
      <trkpt lat="43.43416" lon="6.05009">
        <ele>277</ele>
        <time>2016-09-21T12:54:39Z</time>
      </trkpt>
      <trkpt lat="43.4342" lon="6.04987">
        <ele>275.79998779297</ele>
        <time>2016-09-21T12:54:42Z</time>
      </trkpt>
      <trkpt lat="43.43424" lon="6.04965">
        <ele>275.20001220703</ele>
        <time>2016-09-21T12:54:45Z</time>
      </trkpt>
      <trkpt lat="43.43427" lon="6.04936">
        <ele>274.79998779297</ele>
        <time>2016-09-21T12:54:49Z</time>
      </trkpt>
      <trkpt lat="43.43428" lon="6.04929">
        <ele>274.79998779297</ele>
        <time>2016-09-21T12:54:50Z</time>
      </trkpt>
      <trkpt lat="43.4343" lon="6.04897">
        <ele>274.79998779297</ele>
        <time>2016-09-21T12:54:55Z</time>
      </trkpt>
      <trkpt lat="43.43431" lon="6.04872">
        <ele>275.39999389648</ele>
        <time>2016-09-21T12:54:59Z</time>
      </trkpt>
      <trkpt lat="43.43432" lon="6.0486">
        <ele>275.79998779297</ele>
        <time>2016-09-21T12:55:01Z</time>
      </trkpt>
      <trkpt lat="43.43432" lon="6.04854">
        <ele>276</ele>
        <time>2016-09-21T12:55:02Z</time>
      </trkpt>
      <trkpt lat="43.43433" lon="6.04835">
        <ele>276.20001220703</ele>
        <time>2016-09-21T12:55:05Z</time>
      </trkpt>
      <trkpt lat="43.43434" lon="6.04804">
        <ele>276.60000610352</ele>
        <time>2016-09-21T12:55:10Z</time>
      </trkpt>
      <trkpt lat="43.43434" lon="6.04775">
        <ele>277.20001220703</ele>
        <time>2016-09-21T12:55:15Z</time>
      </trkpt>
      <trkpt lat="43.43438" lon="6.0474">
        <ele>277.79998779297</ele>
        <time>2016-09-21T12:55:22Z</time>
      </trkpt>
      <trkpt lat="43.43441" lon="6.04721">
        <ele>277.79998779297</ele>
        <time>2016-09-21T12:55:25Z</time>
      </trkpt>
      <trkpt lat="43.43442" lon="6.04702">
        <ele>278.20001220703</ele>
        <time>2016-09-21T12:55:28Z</time>
      </trkpt>
      <trkpt lat="43.43444" lon="6.04688">
        <ele>278.20001220703</ele>
        <time>2016-09-21T12:55:30Z</time>
      </trkpt>
      <trkpt lat="43.43448" lon="6.04666">
        <ele>278.60000610352</ele>
        <time>2016-09-21T12:55:35Z</time>
      </trkpt>
      <trkpt lat="43.43449" lon="6.04654">
        <ele>278.60000610352</ele>
        <time>2016-09-21T12:55:40Z</time>
      </trkpt>
      <trkpt lat="43.43451" lon="6.04643">
        <ele>278.79998779297</ele>
        <time>2016-09-21T12:55:45Z</time>
      </trkpt>
      <trkpt lat="43.43453" lon="6.0463">
        <ele>279.20001220703</ele>
        <time>2016-09-21T12:55:50Z</time>
      </trkpt>
      <trkpt lat="43.43456" lon="6.04614">
        <ele>279.39999389648</ele>
        <time>2016-09-21T12:55:55Z</time>
      </trkpt>
      <trkpt lat="43.43464" lon="6.04577">
        <ele>279.60000610352</ele>
        <time>2016-09-21T12:56:05Z</time>
      </trkpt>
      <trkpt lat="43.43466" lon="6.04555">
        <ele>280</ele>
        <time>2016-09-21T12:56:11Z</time>
      </trkpt>
      <trkpt lat="43.43471" lon="6.04541">
        <ele>280</ele>
        <time>2016-09-21T12:56:15Z</time>
      </trkpt>
      <trkpt lat="43.43479" lon="6.04519">
        <ele>279.60000610352</ele>
        <time>2016-09-21T12:56:21Z</time>
      </trkpt>
      <trkpt lat="43.43484" lon="6.04504">
        <ele>280</ele>
        <time>2016-09-21T12:56:25Z</time>
      </trkpt>
      <trkpt lat="43.43488" lon="6.04484">
        <ele>280.20001220703</ele>
        <time>2016-09-21T12:56:30Z</time>
      </trkpt>
      <trkpt lat="43.43488" lon="6.04464">
        <ele>280</ele>
        <time>2016-09-21T12:56:35Z</time>
      </trkpt>
      <trkpt lat="43.43488" lon="6.04428">
        <ele>280.60000610352</ele>
        <time>2016-09-21T12:56:45Z</time>
      </trkpt>
      <trkpt lat="43.43485" lon="6.04396">
        <ele>280.60000610352</ele>
        <time>2016-09-21T12:56:53Z</time>
      </trkpt>
      <trkpt lat="43.43486" lon="6.04388">
        <ele>280.79998779297</ele>
        <time>2016-09-21T12:56:55Z</time>
      </trkpt>
      <trkpt lat="43.43488" lon="6.0436">
        <ele>281.20001220703</ele>
        <time>2016-09-21T12:57:02Z</time>
      </trkpt>
      <trkpt lat="43.43489" lon="6.04347">
        <ele>281.39999389648</ele>
        <time>2016-09-21T12:57:05Z</time>
      </trkpt>
      <trkpt lat="43.43493" lon="6.04302">
        <ele>280.20001220703</ele>
        <time>2016-09-21T12:57:14Z</time>
      </trkpt>
      <trkpt lat="43.43494" lon="6.04297">
        <ele>280</ele>
        <time>2016-09-21T12:57:15Z</time>
      </trkpt>
      <trkpt lat="43.435" lon="6.04269">
        <ele>279.60000610352</ele>
        <time>2016-09-21T12:57:21Z</time>
      </trkpt>
      <trkpt lat="43.43509" lon="6.04249">
        <ele>279</ele>
        <time>2016-09-21T12:57:26Z</time>
      </trkpt>
      <trkpt lat="43.43534" lon="6.04222">
        <ele>278.79998779297</ele>
        <time>2016-09-21T12:57:35Z</time>
      </trkpt>
      <trkpt lat="43.43541" lon="6.04189">
        <ele>279</ele>
        <time>2016-09-21T12:57:43Z</time>
      </trkpt>
      <trkpt lat="43.43539" lon="6.04179">
        <ele>279.60000610352</ele>
        <time>2016-09-21T12:57:45Z</time>
      </trkpt>
      <trkpt lat="43.43536" lon="6.04171">
        <ele>280</ele>
        <time>2016-09-21T12:57:47Z</time>
      </trkpt>
      <trkpt lat="43.43536" lon="6.04159">
        <ele>280.79998779297</ele>
        <time>2016-09-21T12:57:50Z</time>
      </trkpt>
      <trkpt lat="43.43541" lon="6.04143">
        <ele>281</ele>
        <time>2016-09-21T12:57:55Z</time>
      </trkpt>
      <trkpt lat="43.43542" lon="6.0414">
        <ele>281</ele>
        <time>2016-09-21T12:57:56Z</time>
      </trkpt>
      <trkpt lat="43.43554" lon="6.04111">
        <ele>281.60000610352</ele>
        <time>2016-09-21T12:58:05Z</time>
      </trkpt>
      <trkpt lat="43.43566" lon="6.0407">
        <ele>281.60000610352</ele>
        <time>2016-09-21T12:58:15Z</time>
      </trkpt>
      <trkpt lat="43.43578" lon="6.04049">
        <ele>282.20001220703</ele>
        <time>2016-09-21T12:58:22Z</time>
      </trkpt>
      <trkpt lat="43.43584" lon="6.04039">
        <ele>282.60000610352</ele>
        <time>2016-09-21T12:58:25Z</time>
      </trkpt>
      <trkpt lat="43.43589" lon="6.04031">
        <ele>283.39999389648</ele>
        <time>2016-09-21T12:58:28Z</time>
      </trkpt>
      <trkpt lat="43.43597" lon="6.04016">
        <ele>284.39999389648</ele>
        <time>2016-09-21T12:58:34Z</time>
      </trkpt>
      <trkpt lat="43.43598" lon="6.04013">
        <ele>284.39999389648</ele>
        <time>2016-09-21T12:58:35Z</time>
      </trkpt>
      <trkpt lat="43.43598" lon="6.04009">
        <ele>284.39999389648</ele>
        <time>2016-09-21T12:58:36Z</time>
      </trkpt>
      <trkpt lat="43.43599" lon="6.04003">
        <ele>284.79998779297</ele>
        <time>2016-09-21T12:58:38Z</time>
      </trkpt>
      <trkpt lat="43.436" lon="6.03997">
        <ele>285.39999389648</ele>
        <time>2016-09-21T12:58:41Z</time>
      </trkpt>
      <trkpt lat="43.43604" lon="6.03993">
        <ele>285.79998779297</ele>
        <time>2016-09-21T12:58:45Z</time>
      </trkpt>
      <trkpt lat="43.43607" lon="6.03985">
        <ele>285.39999389648</ele>
        <time>2016-09-21T12:58:49Z</time>
      </trkpt>
      <trkpt lat="43.43607" lon="6.03969">
        <ele>284.39999389648</ele>
        <time>2016-09-21T12:58:54Z</time>
      </trkpt>
      <trkpt lat="43.43607" lon="6.03966">
        <ele>284.39999389648</ele>
        <time>2016-09-21T12:58:55Z</time>
      </trkpt>
      <trkpt lat="43.43607" lon="6.03955">
        <ele>283.79998779297</ele>
        <time>2016-09-21T12:58:57Z</time>
      </trkpt>
      <trkpt lat="43.43607" lon="6.03949">
        <ele>283.39999389648</ele>
        <time>2016-09-21T12:58:58Z</time>
      </trkpt>
      <trkpt lat="43.43605" lon="6.03942">
        <ele>283</ele>
        <time>2016-09-21T12:58:59Z</time>
      </trkpt>
      <trkpt lat="43.436" lon="6.03927">
        <ele>282.39999389648</ele>
        <time>2016-09-21T12:59:02Z</time>
      </trkpt>
      <trkpt lat="43.43596" lon="6.03916">
        <ele>282.39999389648</ele>
        <time>2016-09-21T12:59:05Z</time>
      </trkpt>
      <trkpt lat="43.43591" lon="6.03884">
        <ele>283.20001220703</ele>
        <time>2016-09-21T12:59:15Z</time>
      </trkpt>
      <trkpt lat="43.43592" lon="6.03875">
        <ele>283.60000610352</ele>
        <time>2016-09-21T12:59:18Z</time>
      </trkpt>
      <trkpt lat="43.43593" lon="6.03866">
        <ele>284</ele>
        <time>2016-09-21T12:59:21Z</time>
      </trkpt>
      <trkpt lat="43.43594" lon="6.03853">
        <ele>284.79998779297</ele>
        <time>2016-09-21T12:59:26Z</time>
      </trkpt>
      <trkpt lat="43.43588" lon="6.03826">
        <ele>285.60000610352</ele>
        <time>2016-09-21T12:59:35Z</time>
      </trkpt>
      <trkpt lat="43.43586" lon="6.03819">
        <ele>286</ele>
        <time>2016-09-21T12:59:37Z</time>
      </trkpt>
      <trkpt lat="43.43575" lon="6.03796">
        <ele>286.79998779297</ele>
        <time>2016-09-21T12:59:45Z</time>
      </trkpt>
      <trkpt lat="43.43573" lon="6.03789">
        <ele>287</ele>
        <time>2016-09-21T12:59:48Z</time>
      </trkpt>
      <trkpt lat="43.43571" lon="6.03778">
        <ele>287</ele>
        <time>2016-09-21T12:59:53Z</time>
      </trkpt>
      <trkpt lat="43.43571" lon="6.03777">
        <ele>286.79998779297</ele>
        <time>2016-09-21T12:59:55Z</time>
      </trkpt>
      <trkpt lat="43.43571" lon="6.03775">
        <ele>287</ele>
        <time>2016-09-21T13:00:05Z</time>
      </trkpt>
      <trkpt lat="43.43571" lon="6.03775">
        <ele>287</ele>
        <time>2016-09-21T13:00:14Z</time>
      </trkpt>
      <trkpt lat="43.43572" lon="6.03775">
        <ele>286.79998779297</ele>
        <time>2016-09-21T13:00:15Z</time>
      </trkpt>
      <trkpt lat="43.43572" lon="6.03775">
        <ele>286.79998779297</ele>
        <time>2016-09-21T13:00:17Z</time>
      </trkpt>
      <trkpt lat="43.43571" lon="6.03775">
        <ele>286.60000610352</ele>
        <time>2016-09-21T13:00:31Z</time>
      </trkpt>
      <trkpt lat="43.4357" lon="6.03774">
        <ele>286.60000610352</ele>
        <time>2016-09-21T13:00:35Z</time>
      </trkpt>
      <trkpt lat="43.4357" lon="6.03775">
        <ele>286.60000610352</ele>
        <time>2016-09-21T13:00:45Z</time>
      </trkpt>
      <trkpt lat="43.4357" lon="6.03775">
        <ele>286.60000610352</ele>
        <time>2016-09-21T13:00:55Z</time>
      </trkpt>
      <trkpt lat="43.43571" lon="6.03776">
        <ele>287</ele>
        <time>2016-09-21T13:01:01Z</time>
      </trkpt>
      <trkpt lat="43.43573" lon="6.03776">
        <ele>287</ele>
        <time>2016-09-21T13:01:05Z</time>
      </trkpt>
      <trkpt lat="43.43576" lon="6.03777">
        <ele>287</ele>
        <time>2016-09-21T13:01:15Z</time>
      </trkpt>
      <trkpt lat="43.43577" lon="6.0377">
        <ele>287</ele>
        <time>2016-09-21T13:01:19Z</time>
      </trkpt>
      <trkpt lat="43.43576" lon="6.03767">
        <ele>286</ele>
        <time>2016-09-21T13:01:20Z</time>
      </trkpt>
      <trkpt lat="43.43574" lon="6.03752">
        <ele>284.79998779297</ele>
        <time>2016-09-21T13:01:24Z</time>
      </trkpt>
      <trkpt lat="43.43573" lon="6.03746">
        <ele>285</ele>
        <time>2016-09-21T13:01:25Z</time>
      </trkpt>
      <trkpt lat="43.43573" lon="6.03733">
        <ele>285</ele>
        <time>2016-09-21T13:01:27Z</time>
      </trkpt>
      <trkpt lat="43.43571" lon="6.03702">
        <ele>285.20001220703</ele>
        <time>2016-09-21T13:01:31Z</time>
      </trkpt>
      <trkpt lat="43.43577" lon="6.0367">
        <ele>284.60000610352</ele>
        <time>2016-09-21T13:01:35Z</time>
      </trkpt>
      <trkpt lat="43.43583" lon="6.0363">
        <ele>285</ele>
        <time>2016-09-21T13:01:43Z</time>
      </trkpt>
      <trkpt lat="43.43583" lon="6.03617">
        <ele>284.79998779297</ele>
        <time>2016-09-21T13:01:45Z</time>
      </trkpt>
      <trkpt lat="43.43587" lon="6.03565">
        <ele>284.20001220703</ele>
        <time>2016-09-21T13:01:55Z</time>
      </trkpt>
      <trkpt lat="43.43606" lon="6.03524">
        <ele>285</ele>
        <time>2016-09-21T13:02:05Z</time>
      </trkpt>
      <trkpt lat="43.43612" lon="6.03481">
        <ele>285.60000610352</ele>
        <time>2016-09-21T13:02:15Z</time>
      </trkpt>
      <trkpt lat="43.43618" lon="6.03465">
        <ele>286</ele>
        <time>2016-09-21T13:02:20Z</time>
      </trkpt>
      <trkpt lat="43.43624" lon="6.03451">
        <ele>286.79998779297</ele>
        <time>2016-09-21T13:02:25Z</time>
      </trkpt>
      <trkpt lat="43.43625" lon="6.03444">
        <ele>287</ele>
        <time>2016-09-21T13:02:27Z</time>
      </trkpt>
      <trkpt lat="43.43626" lon="6.03417">
        <ele>288</ele>
        <time>2016-09-21T13:02:35Z</time>
      </trkpt>
      <trkpt lat="43.43626" lon="6.03414">
        <ele>288.20001220703</ele>
        <time>2016-09-21T13:02:36Z</time>
      </trkpt>
      <trkpt lat="43.43632" lon="6.03381">
        <ele>287.60000610352</ele>
        <time>2016-09-21T13:02:45Z</time>
      </trkpt>
      <trkpt lat="43.43645" lon="6.03352">
        <ele>287.60000610352</ele>
        <time>2016-09-21T13:02:55Z</time>
      </trkpt>
      <trkpt lat="43.43659" lon="6.03328">
        <ele>287.60000610352</ele>
        <time>2016-09-21T13:03:02Z</time>
      </trkpt>
      <trkpt lat="43.43663" lon="6.03319">
        <ele>287.20001220703</ele>
        <time>2016-09-21T13:03:04Z</time>
      </trkpt>
      <trkpt lat="43.43664" lon="6.03314">
        <ele>286.79998779297</ele>
        <time>2016-09-21T13:03:05Z</time>
      </trkpt>
      <trkpt lat="43.43664" lon="6.03303">
        <ele>286.20001220703</ele>
        <time>2016-09-21T13:03:08Z</time>
      </trkpt>
      <trkpt lat="43.43675" lon="6.0329">
        <ele>286.39999389648</ele>
        <time>2016-09-21T13:03:15Z</time>
      </trkpt>
      <trkpt lat="43.43685" lon="6.03262">
        <ele>287.60000610352</ele>
        <time>2016-09-21T13:03:25Z</time>
      </trkpt>
      <trkpt lat="43.43686" lon="6.0323">
        <ele>288</ele>
        <time>2016-09-21T13:03:35Z</time>
      </trkpt>
      <trkpt lat="43.43685" lon="6.03227">
        <ele>288.20001220703</ele>
        <time>2016-09-21T13:03:36Z</time>
      </trkpt>
      <trkpt lat="43.43688" lon="6.03199">
        <ele>288.39999389648</ele>
        <time>2016-09-21T13:03:45Z</time>
      </trkpt>
      <trkpt lat="43.43693" lon="6.03187">
        <ele>288.60000610352</ele>
        <time>2016-09-21T13:03:50Z</time>
      </trkpt>
      <trkpt lat="43.43692" lon="6.0317">
        <ele>288.79998779297</ele>
        <time>2016-09-21T13:03:55Z</time>
      </trkpt>
      <trkpt lat="43.4369" lon="6.03134">
        <ele>288.60000610352</ele>
        <time>2016-09-21T13:04:05Z</time>
      </trkpt>
      <trkpt lat="43.43693" lon="6.03087">
        <ele>288.20001220703</ele>
        <time>2016-09-21T13:04:15Z</time>
      </trkpt>
      <trkpt lat="43.43719" lon="6.03053">
        <ele>287.60000610352</ele>
        <time>2016-09-21T13:04:25Z</time>
      </trkpt>
      <trkpt lat="43.43743" lon="6.03039">
        <ele>287</ele>
        <time>2016-09-21T13:04:31Z</time>
      </trkpt>
      <trkpt lat="43.43757" lon="6.03032">
        <ele>285.79998779297</ele>
        <time>2016-09-21T13:04:34Z</time>
      </trkpt>
      <trkpt lat="43.43761" lon="6.03029">
        <ele>285.39999389648</ele>
        <time>2016-09-21T13:04:35Z</time>
      </trkpt>
      <trkpt lat="43.43764" lon="6.03024">
        <ele>285.20001220703</ele>
        <time>2016-09-21T13:04:36Z</time>
      </trkpt>
      <trkpt lat="43.4377" lon="6.03011">
        <ele>284.79998779297</ele>
        <time>2016-09-21T13:04:39Z</time>
      </trkpt>
      <trkpt lat="43.43784" lon="6.02989">
        <ele>285.39999389648</ele>
        <time>2016-09-21T13:04:45Z</time>
      </trkpt>
      <trkpt lat="43.43785" lon="6.02963">
        <ele>285.39999389648</ele>
        <time>2016-09-21T13:04:55Z</time>
      </trkpt>
      <trkpt lat="43.43793" lon="6.02934">
        <ele>286</ele>
        <time>2016-09-21T13:05:05Z</time>
      </trkpt>
      <trkpt lat="43.43792" lon="6.02906">
        <ele>286.79998779297</ele>
        <time>2016-09-21T13:05:15Z</time>
      </trkpt>
      <trkpt lat="43.43792" lon="6.02889">
        <ele>286.79998779297</ele>
        <time>2016-09-21T13:05:20Z</time>
      </trkpt>
      <trkpt lat="43.43795" lon="6.02872">
        <ele>287.39999389648</ele>
        <time>2016-09-21T13:05:25Z</time>
      </trkpt>
      <trkpt lat="43.43806" lon="6.02836">
        <ele>287.20001220703</ele>
        <time>2016-09-21T13:05:35Z</time>
      </trkpt>
      <trkpt lat="43.43808" lon="6.02829">
        <ele>287</ele>
        <time>2016-09-21T13:05:37Z</time>
      </trkpt>
      <trkpt lat="43.43807" lon="6.02816">
        <ele>288</ele>
        <time>2016-09-21T13:05:43Z</time>
      </trkpt>
      <trkpt lat="43.43807" lon="6.02814">
        <ele>288.39999389648</ele>
        <time>2016-09-21T13:05:45Z</time>
      </trkpt>
      <trkpt lat="43.43806" lon="6.02811">
        <ele>288.79998779297</ele>
        <time>2016-09-21T13:05:47Z</time>
      </trkpt>
      <trkpt lat="43.43803" lon="6.02805">
        <ele>288.79998779297</ele>
        <time>2016-09-21T13:05:55Z</time>
      </trkpt>
      <trkpt lat="43.43803" lon="6.02805">
        <ele>288.79998779297</ele>
        <time>2016-09-21T13:05:59Z</time>
      </trkpt>
      <trkpt lat="43.43803" lon="6.02805">
        <ele>288.79998779297</ele>
        <time>2016-09-21T13:06:05Z</time>
      </trkpt>
      <trkpt lat="43.43803" lon="6.02804">
        <ele>288.79998779297</ele>
        <time>2016-09-21T13:06:06Z</time>
      </trkpt>
      <trkpt lat="43.43799" lon="6.028">
        <ele>288.79998779297</ele>
        <time>2016-09-21T13:06:09Z</time>
      </trkpt>
      <trkpt lat="43.43798" lon="6.028">
        <ele>289</ele>
        <time>2016-09-21T13:06:11Z</time>
      </trkpt>
      <trkpt lat="43.43787" lon="6.02777">
        <ele>289.79998779297</ele>
        <time>2016-09-21T13:06:22Z</time>
      </trkpt>
      <trkpt lat="43.43786" lon="6.02768">
        <ele>289.79998779297</ele>
        <time>2016-09-21T13:06:25Z</time>
      </trkpt>
      <trkpt lat="43.43789" lon="6.02745">
        <ele>290</ele>
        <time>2016-09-21T13:06:32Z</time>
      </trkpt>
      <trkpt lat="43.43787" lon="6.02736">
        <ele>290.20001220703</ele>
        <time>2016-09-21T13:06:35Z</time>
      </trkpt>
      <trkpt lat="43.43783" lon="6.02723">
        <ele>290.20001220703</ele>
        <time>2016-09-21T13:06:39Z</time>
      </trkpt>
      <trkpt lat="43.43771" lon="6.02716">
        <ele>290.60000610352</ele>
        <time>2016-09-21T13:06:45Z</time>
      </trkpt>
      <trkpt lat="43.43765" lon="6.02707">
        <ele>291.20001220703</ele>
        <time>2016-09-21T13:06:50Z</time>
      </trkpt>
      <trkpt lat="43.4377" lon="6.027">
        <ele>291.79998779297</ele>
        <time>2016-09-21T13:06:55Z</time>
      </trkpt>
      <trkpt lat="43.43776" lon="6.02696">
        <ele>292.20001220703</ele>
        <time>2016-09-21T13:06:59Z</time>
      </trkpt>
      <trkpt lat="43.43784" lon="6.02685">
        <ele>291.39999389648</ele>
        <time>2016-09-21T13:07:05Z</time>
      </trkpt>
      <trkpt lat="43.43787" lon="6.02683">
        <ele>291.20001220703</ele>
        <time>2016-09-21T13:07:07Z</time>
      </trkpt>
      <trkpt lat="43.43787" lon="6.02681">
        <ele>291.20001220703</ele>
        <time>2016-09-21T13:07:08Z</time>
      </trkpt>
      <trkpt lat="43.43787" lon="6.02679">
        <ele>291</ele>
        <time>2016-09-21T13:07:09Z</time>
      </trkpt>
      <trkpt lat="43.43785" lon="6.02673">
        <ele>291.39999389648</ele>
        <time>2016-09-21T13:07:12Z</time>
      </trkpt>
      <trkpt lat="43.43785" lon="6.02666">
        <ele>292</ele>
        <time>2016-09-21T13:07:15Z</time>
      </trkpt>
      <trkpt lat="43.43783" lon="6.02647">
        <ele>292.20001220703</ele>
        <time>2016-09-21T13:07:23Z</time>
      </trkpt>
      <trkpt lat="43.43783" lon="6.02644">
        <ele>292.20001220703</ele>
        <time>2016-09-21T13:07:25Z</time>
      </trkpt>
      <trkpt lat="43.43788" lon="6.02621">
        <ele>292.39999389648</ele>
        <time>2016-09-21T13:07:34Z</time>
      </trkpt>
      <trkpt lat="43.43789" lon="6.02618">
        <ele>292.39999389648</ele>
        <time>2016-09-21T13:07:35Z</time>
      </trkpt>
      <trkpt lat="43.43793" lon="6.02593">
        <ele>292.20001220703</ele>
        <time>2016-09-21T13:07:42Z</time>
      </trkpt>
      <trkpt lat="43.43792" lon="6.02582">
        <ele>292</ele>
        <time>2016-09-21T13:07:45Z</time>
      </trkpt>
      <trkpt lat="43.43789" lon="6.0256">
        <ele>292.20001220703</ele>
        <time>2016-09-21T13:07:52Z</time>
      </trkpt>
      <trkpt lat="43.43789" lon="6.02548">
        <ele>292.39999389648</ele>
        <time>2016-09-21T13:07:55Z</time>
      </trkpt>
      <trkpt lat="43.4379" lon="6.0253">
        <ele>292.60000610352</ele>
        <time>2016-09-21T13:08:01Z</time>
      </trkpt>
      <trkpt lat="43.43795" lon="6.02519">
        <ele>292.60000610352</ele>
        <time>2016-09-21T13:08:05Z</time>
      </trkpt>
      <trkpt lat="43.43797" lon="6.02502">
        <ele>291.79998779297</ele>
        <time>2016-09-21T13:08:12Z</time>
      </trkpt>
      <trkpt lat="43.43796" lon="6.02496">
        <ele>291.60000610352</ele>
        <time>2016-09-21T13:08:15Z</time>
      </trkpt>
      <trkpt lat="43.43797" lon="6.02494">
        <ele>292.39999389648</ele>
        <time>2016-09-21T13:08:24Z</time>
      </trkpt>
      <trkpt lat="43.43797" lon="6.02494">
        <ele>292.39999389648</ele>
        <time>2016-09-21T13:08:25Z</time>
      </trkpt>
      <trkpt lat="43.43797" lon="6.02494">
        <ele>292.39999389648</ele>
        <time>2016-09-21T13:08:33Z</time>
      </trkpt>
      <trkpt lat="43.43797" lon="6.02494">
        <ele>292.39999389648</ele>
        <time>2016-09-21T13:08:35Z</time>
      </trkpt>
      <trkpt lat="43.43797" lon="6.02494">
        <ele>292.39999389648</ele>
        <time>2016-09-21T13:08:41Z</time>
      </trkpt>
      <trkpt lat="43.43797" lon="6.02495">
        <ele>292.20001220703</ele>
        <time>2016-09-21T13:08:55Z</time>
      </trkpt>
      <trkpt lat="43.43798" lon="6.02496">
        <ele>292</ele>
        <time>2016-09-21T13:09:05Z</time>
      </trkpt>
      <trkpt lat="43.43798" lon="6.02496">
        <ele>292.39999389648</ele>
        <time>2016-09-21T13:09:15Z</time>
      </trkpt>
      <trkpt lat="43.43798" lon="6.02494">
        <ele>292.39999389648</ele>
        <time>2016-09-21T13:09:35Z</time>
      </trkpt>
      <trkpt lat="43.43798" lon="6.02494">
        <ele>292.39999389648</ele>
        <time>2016-09-21T13:09:45Z</time>
      </trkpt>
      <trkpt lat="43.43798" lon="6.02492">
        <ele>292.20001220703</ele>
        <time>2016-09-21T13:09:51Z</time>
      </trkpt>
      <trkpt lat="43.43797" lon="6.02485">
        <ele>291.39999389648</ele>
        <time>2016-09-21T13:09:55Z</time>
      </trkpt>
      <trkpt lat="43.43796" lon="6.0248">
        <ele>291.39999389648</ele>
        <time>2016-09-21T13:09:57Z</time>
      </trkpt>
      <trkpt lat="43.43796" lon="6.02478">
        <ele>291.39999389648</ele>
        <time>2016-09-21T13:09:58Z</time>
      </trkpt>
      <trkpt lat="43.43794" lon="6.02477">
        <ele>291.60000610352</ele>
        <time>2016-09-21T13:10:00Z</time>
      </trkpt>
      <trkpt lat="43.43792" lon="6.02478">
        <ele>292.39999389648</ele>
        <time>2016-09-21T13:10:02Z</time>
      </trkpt>
      <trkpt lat="43.43789" lon="6.02478">
        <ele>293.20001220703</ele>
        <time>2016-09-21T13:10:04Z</time>
      </trkpt>
      <trkpt lat="43.43789" lon="6.02478">
        <ele>293.39999389648</ele>
        <time>2016-09-21T13:10:05Z</time>
      </trkpt>
      <trkpt lat="43.43786" lon="6.02474">
        <ele>293.60000610352</ele>
        <time>2016-09-21T13:10:15Z</time>
      </trkpt>
      <trkpt lat="43.43786" lon="6.02474">
        <ele>293.79998779297</ele>
        <time>2016-09-21T13:10:19Z</time>
      </trkpt>
      <trkpt lat="43.43785" lon="6.02471">
        <ele>293.79998779297</ele>
        <time>2016-09-21T13:10:25Z</time>
      </trkpt>
      <trkpt lat="43.43784" lon="6.02471">
        <ele>294</ele>
        <time>2016-09-21T13:10:35Z</time>
      </trkpt>
      <trkpt lat="43.43784" lon="6.02472">
        <ele>293.79998779297</ele>
        <time>2016-09-21T13:10:45Z</time>
      </trkpt>
      <trkpt lat="43.43784" lon="6.02472">
        <ele>293.60000610352</ele>
        <time>2016-09-21T13:10:55Z</time>
      </trkpt>
      <trkpt lat="43.43779" lon="6.02468">
        <ele>293.39999389648</ele>
        <time>2016-09-21T13:11:05Z</time>
      </trkpt>
      <trkpt lat="43.43776" lon="6.02466">
        <ele>293.39999389648</ele>
        <time>2016-09-21T13:11:07Z</time>
      </trkpt>
      <trkpt lat="43.43776" lon="6.02459">
        <ele>293.20001220703</ele>
        <time>2016-09-21T13:11:10Z</time>
      </trkpt>
      <trkpt lat="43.43776" lon="6.02457">
        <ele>293.20001220703</ele>
        <time>2016-09-21T13:11:11Z</time>
      </trkpt>
      <trkpt lat="43.43775" lon="6.02454">
        <ele>293.39999389648</ele>
        <time>2016-09-21T13:11:13Z</time>
      </trkpt>
      <trkpt lat="43.43773" lon="6.02453">
        <ele>293.79998779297</ele>
        <time>2016-09-21T13:11:15Z</time>
      </trkpt>
      <trkpt lat="43.43773" lon="6.02448">
        <ele>294.20001220703</ele>
        <time>2016-09-21T13:11:18Z</time>
      </trkpt>
      <trkpt lat="43.43773" lon="6.02448">
        <ele>294.39999389648</ele>
        <time>2016-09-21T13:11:19Z</time>
      </trkpt>
      <trkpt lat="43.43773" lon="6.02446">
        <ele>295</ele>
        <time>2016-09-21T13:11:25Z</time>
      </trkpt>
      <trkpt lat="43.43774" lon="6.02444">
        <ele>295.39999389648</ele>
        <time>2016-09-21T13:11:32Z</time>
      </trkpt>
      <trkpt lat="43.43773" lon="6.02442">
        <ele>296</ele>
        <time>2016-09-21T13:11:35Z</time>
      </trkpt>
      <trkpt lat="43.43774" lon="6.02442">
        <ele>296</ele>
        <time>2016-09-21T13:11:39Z</time>
      </trkpt>
      <trkpt lat="43.43776" lon="6.02434">
        <ele>295.60000610352</ele>
        <time>2016-09-21T13:11:45Z</time>
      </trkpt>
      <trkpt lat="43.43765" lon="6.0242">
        <ele>296.20001220703</ele>
        <time>2016-09-21T13:11:55Z</time>
      </trkpt>
      <trkpt lat="43.43761" lon="6.02415">
        <ele>296.20001220703</ele>
        <time>2016-09-21T13:11:59Z</time>
      </trkpt>
      <trkpt lat="43.43753" lon="6.02406">
        <ele>296.60000610352</ele>
        <time>2016-09-21T13:12:04Z</time>
      </trkpt>
      <trkpt lat="43.43751" lon="6.02404">
        <ele>296.79998779297</ele>
        <time>2016-09-21T13:12:05Z</time>
      </trkpt>
      <trkpt lat="43.43748" lon="6.02401">
        <ele>297.39999389648</ele>
        <time>2016-09-21T13:12:07Z</time>
      </trkpt>
      <trkpt lat="43.43747" lon="6.02399">
        <ele>297.60000610352</ele>
        <time>2016-09-21T13:12:08Z</time>
      </trkpt>
      <trkpt lat="43.43744" lon="6.02396">
        <ele>298.20001220703</ele>
        <time>2016-09-21T13:12:10Z</time>
      </trkpt>
      <trkpt lat="43.43743" lon="6.02391">
        <ele>298.79998779297</ele>
        <time>2016-09-21T13:12:12Z</time>
      </trkpt>
      <trkpt lat="43.43742" lon="6.02387">
        <ele>299.20001220703</ele>
        <time>2016-09-21T13:12:14Z</time>
      </trkpt>
      <trkpt lat="43.43741" lon="6.02384">
        <ele>299.39999389648</ele>
        <time>2016-09-21T13:12:15Z</time>
      </trkpt>
      <trkpt lat="43.43737" lon="6.02372">
        <ele>300</ele>
        <time>2016-09-21T13:12:21Z</time>
      </trkpt>
      <trkpt lat="43.43734" lon="6.02364">
        <ele>300.20001220703</ele>
        <time>2016-09-21T13:12:24Z</time>
      </trkpt>
      <trkpt lat="43.43733" lon="6.02363">
        <ele>300.39999389648</ele>
        <time>2016-09-21T13:12:25Z</time>
      </trkpt>
      <trkpt lat="43.43719" lon="6.02361">
        <ele>300.79998779297</ele>
        <time>2016-09-21T13:12:33Z</time>
      </trkpt>
      <trkpt lat="43.43718" lon="6.02357">
        <ele>300.79998779297</ele>
        <time>2016-09-21T13:12:35Z</time>
      </trkpt>
      <trkpt lat="43.43713" lon="6.02345">
        <ele>300.60000610352</ele>
        <time>2016-09-21T13:12:40Z</time>
      </trkpt>
      <trkpt lat="43.43719" lon="6.0233">
        <ele>300.39999389648</ele>
        <time>2016-09-21T13:12:45Z</time>
      </trkpt>
      <trkpt lat="43.43726" lon="6.02316">
        <ele>299.79998779297</ele>
        <time>2016-09-21T13:12:49Z</time>
      </trkpt>
      <trkpt lat="43.43728" lon="6.02312">
        <ele>299</ele>
        <time>2016-09-21T13:12:50Z</time>
      </trkpt>
      <trkpt lat="43.43731" lon="6.02307">
        <ele>298</ele>
        <time>2016-09-21T13:12:51Z</time>
      </trkpt>
      <trkpt lat="43.43734" lon="6.023">
        <ele>297.20001220703</ele>
        <time>2016-09-21T13:12:52Z</time>
      </trkpt>
      <trkpt lat="43.43736" lon="6.02295">
        <ele>296.60000610352</ele>
        <time>2016-09-21T13:12:53Z</time>
      </trkpt>
      <trkpt lat="43.43739" lon="6.0229">
        <ele>296.20001220703</ele>
        <time>2016-09-21T13:12:54Z</time>
      </trkpt>
      <trkpt lat="43.43742" lon="6.02286">
        <ele>295.79998779297</ele>
        <time>2016-09-21T13:12:55Z</time>
      </trkpt>
      <trkpt lat="43.43744" lon="6.02281">
        <ele>295.39999389648</ele>
        <time>2016-09-21T13:12:56Z</time>
      </trkpt>
      <trkpt lat="43.43752" lon="6.02268">
        <ele>294.39999389648</ele>
        <time>2016-09-21T13:12:59Z</time>
      </trkpt>
      <trkpt lat="43.43757" lon="6.02258">
        <ele>293.20001220703</ele>
        <time>2016-09-21T13:13:01Z</time>
      </trkpt>
      <trkpt lat="43.43761" lon="6.02245">
        <ele>292</ele>
        <time>2016-09-21T13:13:04Z</time>
      </trkpt>
      <trkpt lat="43.43763" lon="6.02229">
        <ele>292.39999389648</ele>
        <time>2016-09-21T13:13:08Z</time>
      </trkpt>
      <trkpt lat="43.43764" lon="6.02202">
        <ele>293.20001220703</ele>
        <time>2016-09-21T13:13:16Z</time>
      </trkpt>
      <trkpt lat="43.43774" lon="6.02175">
        <ele>293.79998779297</ele>
        <time>2016-09-21T13:13:25Z</time>
      </trkpt>
      <trkpt lat="43.43782" lon="6.02153">
        <ele>293.20001220703</ele>
        <time>2016-09-21T13:13:30Z</time>
      </trkpt>
      <trkpt lat="43.4381" lon="6.02114">
        <ele>294</ele>
        <time>2016-09-21T13:13:43Z</time>
      </trkpt>
      <trkpt lat="43.43811" lon="6.02107">
        <ele>294.20001220703</ele>
        <time>2016-09-21T13:13:45Z</time>
      </trkpt>
      <trkpt lat="43.43812" lon="6.02097">
        <ele>294.79998779297</ele>
        <time>2016-09-21T13:13:48Z</time>
      </trkpt>
      <trkpt lat="43.43822" lon="6.02067">
        <ele>294.39999389648</ele>
        <time>2016-09-21T13:13:55Z</time>
      </trkpt>
      <trkpt lat="43.43834" lon="6.02027">
        <ele>294.39999389648</ele>
        <time>2016-09-21T13:14:05Z</time>
      </trkpt>
      <trkpt lat="43.43836" lon="6.02001">
        <ele>295.20001220703</ele>
        <time>2016-09-21T13:14:12Z</time>
      </trkpt>
      <trkpt lat="43.43836" lon="6.01998">
        <ele>295.20001220703</ele>
        <time>2016-09-21T13:14:13Z</time>
      </trkpt>
      <trkpt lat="43.43835" lon="6.01993">
        <ele>295.20001220703</ele>
        <time>2016-09-21T13:14:15Z</time>
      </trkpt>
      <trkpt lat="43.43841" lon="6.01971">
        <ele>295.39999389648</ele>
        <time>2016-09-21T13:14:24Z</time>
      </trkpt>
      <trkpt lat="43.43842" lon="6.01968">
        <ele>295.39999389648</ele>
        <time>2016-09-21T13:14:25Z</time>
      </trkpt>
      <trkpt lat="43.43851" lon="6.0195">
        <ele>295.39999389648</ele>
        <time>2016-09-21T13:14:34Z</time>
      </trkpt>
      <trkpt lat="43.43851" lon="6.01948">
        <ele>295.39999389648</ele>
        <time>2016-09-21T13:14:35Z</time>
      </trkpt>
      <trkpt lat="43.4385" lon="6.01945">
        <ele>295.60000610352</ele>
        <time>2016-09-21T13:14:45Z</time>
      </trkpt>
      <trkpt lat="43.43848" lon="6.01942">
        <ele>295.39999389648</ele>
        <time>2016-09-21T13:14:55Z</time>
      </trkpt>
      <trkpt lat="43.43844" lon="6.0194">
        <ele>295.60000610352</ele>
        <time>2016-09-21T13:15:05Z</time>
      </trkpt>
      <trkpt lat="43.43849" lon="6.01942">
        <ele>295.60000610352</ele>
        <time>2016-09-21T13:15:15Z</time>
      </trkpt>
      <trkpt lat="43.4385" lon="6.01939">
        <ele>295.39999389648</ele>
        <time>2016-09-21T13:15:25Z</time>
      </trkpt>
      <trkpt lat="43.43847" lon="6.01941">
        <ele>295.60000610352</ele>
        <time>2016-09-21T13:15:35Z</time>
      </trkpt>
      <trkpt lat="43.43848" lon="6.01943">
        <ele>295.79998779297</ele>
        <time>2016-09-21T13:15:45Z</time>
      </trkpt>
      <trkpt lat="43.43848" lon="6.01941">
        <ele>295.79998779297</ele>
        <time>2016-09-21T13:15:55Z</time>
      </trkpt>
      <trkpt lat="43.43848" lon="6.0194">
        <ele>295.79998779297</ele>
        <time>2016-09-21T13:16:05Z</time>
      </trkpt>
      <trkpt lat="43.43847" lon="6.01943">
        <ele>295.79998779297</ele>
        <time>2016-09-21T13:16:25Z</time>
      </trkpt>
      <trkpt lat="43.43848" lon="6.01944">
        <ele>295.79998779297</ele>
        <time>2016-09-21T13:16:35Z</time>
      </trkpt>
      <trkpt lat="43.4385" lon="6.01945">
        <ele>295.79998779297</ele>
        <time>2016-09-21T13:16:55Z</time>
      </trkpt>
      <trkpt lat="43.4385" lon="6.01949">
        <ele>295.79998779297</ele>
        <time>2016-09-21T13:17:05Z</time>
      </trkpt>
      <trkpt lat="43.4385" lon="6.01949">
        <ele>295.79998779297</ele>
        <time>2016-09-21T13:17:15Z</time>
      </trkpt>
      <trkpt lat="43.4385" lon="6.01946">
        <ele>295.79998779297</ele>
        <time>2016-09-21T13:17:35Z</time>
      </trkpt>
      <trkpt lat="43.4385" lon="6.01946">
        <ele>295.79998779297</ele>
        <time>2016-09-21T13:17:45Z</time>
      </trkpt>
      <trkpt lat="43.43854" lon="6.01945">
        <ele>295.79998779297</ele>
        <time>2016-09-21T13:18:05Z</time>
      </trkpt>
      <trkpt lat="43.43856" lon="6.01944">
        <ele>295.79998779297</ele>
        <time>2016-09-21T13:18:15Z</time>
      </trkpt>
      <trkpt lat="43.43854" lon="6.01941">
        <ele>295.79998779297</ele>
        <time>2016-09-21T13:18:25Z</time>
      </trkpt>
      <trkpt lat="43.43853" lon="6.01939">
        <ele>295.79998779297</ele>
        <time>2016-09-21T13:18:27Z</time>
      </trkpt>
      <trkpt lat="43.43856" lon="6.01933">
        <ele>295.60000610352</ele>
        <time>2016-09-21T13:18:31Z</time>
      </trkpt>
      <trkpt lat="43.43863" lon="6.01923">
        <ele>295.79998779297</ele>
        <time>2016-09-21T13:18:35Z</time>
      </trkpt>
      <trkpt lat="43.43869" lon="6.01892">
        <ele>296</ele>
        <time>2016-09-21T13:18:45Z</time>
      </trkpt>
      <trkpt lat="43.43874" lon="6.01872">
        <ele>296.39999389648</ele>
        <time>2016-09-21T13:18:51Z</time>
      </trkpt>
      <trkpt lat="43.43876" lon="6.01856">
        <ele>296.39999389648</ele>
        <time>2016-09-21T13:18:55Z</time>
      </trkpt>
      <trkpt lat="43.43879" lon="6.0183">
        <ele>297</ele>
        <time>2016-09-21T13:19:02Z</time>
      </trkpt>
      <trkpt lat="43.43879" lon="6.01819">
        <ele>297</ele>
        <time>2016-09-21T13:19:05Z</time>
      </trkpt>
      <trkpt lat="43.43879" lon="6.01807">
        <ele>297.39999389648</ele>
        <time>2016-09-21T13:19:08Z</time>
      </trkpt>
      <trkpt lat="43.4388" lon="6.01797">
        <ele>298.20001220703</ele>
        <time>2016-09-21T13:19:11Z</time>
      </trkpt>
      <trkpt lat="43.43882" lon="6.01791">
        <ele>298.60000610352</ele>
        <time>2016-09-21T13:19:13Z</time>
      </trkpt>
      <trkpt lat="43.43884" lon="6.01786">
        <ele>299.39999389648</ele>
        <time>2016-09-21T13:19:15Z</time>
      </trkpt>
      <trkpt lat="43.43888" lon="6.01772">
        <ele>300.79998779297</ele>
        <time>2016-09-21T13:19:20Z</time>
      </trkpt>
      <trkpt lat="43.43888" lon="6.01757">
        <ele>301.79998779297</ele>
        <time>2016-09-21T13:19:25Z</time>
      </trkpt>
      <trkpt lat="43.43887" lon="6.01754">
        <ele>302</ele>
        <time>2016-09-21T13:19:26Z</time>
      </trkpt>
      <trkpt lat="43.4388" lon="6.01726">
        <ele>302.79998779297</ele>
        <time>2016-09-21T13:19:35Z</time>
      </trkpt>
      <trkpt lat="43.43876" lon="6.01716">
        <ele>303</ele>
        <time>2016-09-21T13:19:39Z</time>
      </trkpt>
      <trkpt lat="43.43872" lon="6.017">
        <ele>303.60000610352</ele>
        <time>2016-09-21T13:19:45Z</time>
      </trkpt>
      <trkpt lat="43.43871" lon="6.01677">
        <ele>304.20001220703</ele>
        <time>2016-09-21T13:19:51Z</time>
      </trkpt>
      <trkpt lat="43.43869" lon="6.01663">
        <ele>304.60000610352</ele>
        <time>2016-09-21T13:19:55Z</time>
      </trkpt>
      <trkpt lat="43.43866" lon="6.0166">
        <ele>305</ele>
        <time>2016-09-21T13:19:57Z</time>
      </trkpt>
      <trkpt lat="43.43848" lon="6.0167">
        <ele>305.20001220703</ele>
        <time>2016-09-21T13:20:05Z</time>
      </trkpt>
      <trkpt lat="43.43846" lon="6.01672">
        <ele>305.20001220703</ele>
        <time>2016-09-21T13:20:06Z</time>
      </trkpt>
      <trkpt lat="43.43832" lon="6.01682">
        <ele>305.79998779297</ele>
        <time>2016-09-21T13:20:13Z</time>
      </trkpt>
      <trkpt lat="43.43813" lon="6.01692">
        <ele>306.20001220703</ele>
        <time>2016-09-21T13:20:22Z</time>
      </trkpt>
      <trkpt lat="43.43805" lon="6.01695">
        <ele>306.20001220703</ele>
        <time>2016-09-21T13:20:25Z</time>
      </trkpt>
      <trkpt lat="43.4379" lon="6.01697">
        <ele>306.39999389648</ele>
        <time>2016-09-21T13:20:32Z</time>
      </trkpt>
      <trkpt lat="43.43782" lon="6.01697">
        <ele>306.79998779297</ele>
        <time>2016-09-21T13:20:35Z</time>
      </trkpt>
      <trkpt lat="43.43769" lon="6.01694">
        <ele>307.60000610352</ele>
        <time>2016-09-21T13:20:42Z</time>
      </trkpt>
      <trkpt lat="43.43765" lon="6.01692">
        <ele>308</ele>
        <time>2016-09-21T13:20:45Z</time>
      </trkpt>
      <trkpt lat="43.43757" lon="6.01689">
        <ele>308.79998779297</ele>
        <time>2016-09-21T13:20:49Z</time>
      </trkpt>
      <trkpt lat="43.43747" lon="6.01684">
        <ele>309</ele>
        <time>2016-09-21T13:20:55Z</time>
      </trkpt>
      <trkpt lat="43.43741" lon="6.01682">
        <ele>309.20001220703</ele>
        <time>2016-09-21T13:21:00Z</time>
      </trkpt>
      <trkpt lat="43.43741" lon="6.01683">
        <ele>309.60000610352</ele>
        <time>2016-09-21T13:21:05Z</time>
      </trkpt>
      <trkpt lat="43.43741" lon="6.01683">
        <ele>309.60000610352</ele>
        <time>2016-09-21T13:21:08Z</time>
      </trkpt>
      <trkpt lat="43.43741" lon="6.01682">
        <ele>309.79998779297</ele>
        <time>2016-09-21T13:21:15Z</time>
      </trkpt>
      <trkpt lat="43.43741" lon="6.01683">
        <ele>309.60000610352</ele>
        <time>2016-09-21T13:21:21Z</time>
      </trkpt>
      <trkpt lat="43.43741" lon="6.01683">
        <ele>309.60000610352</ele>
        <time>2016-09-21T13:21:33Z</time>
      </trkpt>
      <trkpt lat="43.43741" lon="6.01681">
        <ele>309.60000610352</ele>
        <time>2016-09-21T13:21:55Z</time>
      </trkpt>
      <trkpt lat="43.43738" lon="6.01682">
        <ele>309.60000610352</ele>
        <time>2016-09-21T13:22:03Z</time>
      </trkpt>
      <trkpt lat="43.43735" lon="6.01681">
        <ele>309.79998779297</ele>
        <time>2016-09-21T13:22:05Z</time>
      </trkpt>
      <trkpt lat="43.43733" lon="6.0168">
        <ele>309.79998779297</ele>
        <time>2016-09-21T13:22:06Z</time>
      </trkpt>
      <trkpt lat="43.43723" lon="6.01675">
        <ele>310.39999389648</ele>
        <time>2016-09-21T13:22:11Z</time>
      </trkpt>
      <trkpt lat="43.43715" lon="6.01668">
        <ele>311</ele>
        <time>2016-09-21T13:22:15Z</time>
      </trkpt>
      <trkpt lat="43.43706" lon="6.0166">
        <ele>311.60000610352</ele>
        <time>2016-09-21T13:22:19Z</time>
      </trkpt>
      <trkpt lat="43.43694" lon="6.01648">
        <ele>311.60000610352</ele>
        <time>2016-09-21T13:22:25Z</time>
      </trkpt>
      <trkpt lat="43.43687" lon="6.01645">
        <ele>312</ele>
        <time>2016-09-21T13:22:28Z</time>
      </trkpt>
      <trkpt lat="43.43678" lon="6.01643">
        <ele>312.79998779297</ele>
        <time>2016-09-21T13:22:32Z</time>
      </trkpt>
      <trkpt lat="43.43671" lon="6.01641">
        <ele>313</ele>
        <time>2016-09-21T13:22:35Z</time>
      </trkpt>
      <trkpt lat="43.4366" lon="6.01637">
        <ele>313.79998779297</ele>
        <time>2016-09-21T13:22:40Z</time>
      </trkpt>
      <trkpt lat="43.43654" lon="6.01634">
        <ele>314</ele>
        <time>2016-09-21T13:22:43Z</time>
      </trkpt>
      <trkpt lat="43.43651" lon="6.01631">
        <ele>314.39999389648</ele>
        <time>2016-09-21T13:22:45Z</time>
      </trkpt>
      <trkpt lat="43.43629" lon="6.01589">
        <ele>315.20001220703</ele>
        <time>2016-09-21T13:23:02Z</time>
      </trkpt>
      <trkpt lat="43.43625" lon="6.01583">
        <ele>315.20001220703</ele>
        <time>2016-09-21T13:23:05Z</time>
      </trkpt>
      <trkpt lat="43.4361" lon="6.01566">
        <ele>315.79998779297</ele>
        <time>2016-09-21T13:23:15Z</time>
      </trkpt>
      <trkpt lat="43.43607" lon="6.01562">
        <ele>316.20001220703</ele>
        <time>2016-09-21T13:23:17Z</time>
      </trkpt>
      <trkpt lat="43.43593" lon="6.01554">
        <ele>317</ele>
        <time>2016-09-21T13:23:25Z</time>
      </trkpt>
      <trkpt lat="43.43588" lon="6.01552">
        <ele>317.20001220703</ele>
        <time>2016-09-21T13:23:28Z</time>
      </trkpt>
      <trkpt lat="43.43574" lon="6.0155">
        <ele>318.20001220703</ele>
        <time>2016-09-21T13:23:35Z</time>
      </trkpt>
      <trkpt lat="43.43563" lon="6.01545">
        <ele>319</ele>
        <time>2016-09-21T13:23:41Z</time>
      </trkpt>
      <trkpt lat="43.43556" lon="6.01545">
        <ele>319.60000610352</ele>
        <time>2016-09-21T13:23:45Z</time>
      </trkpt>
      <trkpt lat="43.43542" lon="6.01542">
        <ele>320.60000610352</ele>
        <time>2016-09-21T13:23:52Z</time>
      </trkpt>
      <trkpt lat="43.43536" lon="6.01542">
        <ele>321</ele>
        <time>2016-09-21T13:23:55Z</time>
      </trkpt>
      <trkpt lat="43.43521" lon="6.01533">
        <ele>321.60000610352</ele>
        <time>2016-09-21T13:24:04Z</time>
      </trkpt>
      <trkpt lat="43.43519" lon="6.01532">
        <ele>321.60000610352</ele>
        <time>2016-09-21T13:24:05Z</time>
      </trkpt>
      <trkpt lat="43.43506" lon="6.01528">
        <ele>321.79998779297</ele>
        <time>2016-09-21T13:24:12Z</time>
      </trkpt>
      <trkpt lat="43.43501" lon="6.01529">
        <ele>322.20001220703</ele>
        <time>2016-09-21T13:24:15Z</time>
      </trkpt>
      <trkpt lat="43.43496" lon="6.0153">
        <ele>322.60000610352</ele>
        <time>2016-09-21T13:24:18Z</time>
      </trkpt>
      <trkpt lat="43.43492" lon="6.01533">
        <ele>323</ele>
        <time>2016-09-21T13:24:21Z</time>
      </trkpt>
      <trkpt lat="43.43487" lon="6.01532">
        <ele>323.60000610352</ele>
        <time>2016-09-21T13:24:25Z</time>
      </trkpt>
      <trkpt lat="43.43471" lon="6.01529">
        <ele>324.20001220703</ele>
        <time>2016-09-21T13:24:35Z</time>
      </trkpt>
      <trkpt lat="43.43464" lon="6.01528">
        <ele>324.79998779297</ele>
        <time>2016-09-21T13:24:40Z</time>
      </trkpt>
      <trkpt lat="43.43456" lon="6.01524">
        <ele>325.60000610352</ele>
        <time>2016-09-21T13:24:45Z</time>
      </trkpt>
      <trkpt lat="43.43452" lon="6.01522">
        <ele>326</ele>
        <time>2016-09-21T13:24:48Z</time>
      </trkpt>
      <trkpt lat="43.43446" lon="6.01513">
        <ele>326</ele>
        <time>2016-09-21T13:24:55Z</time>
      </trkpt>
      <trkpt lat="43.43439" lon="6.01496">
        <ele>326.79998779297</ele>
        <time>2016-09-21T13:25:05Z</time>
      </trkpt>
      <trkpt lat="43.43437" lon="6.01474">
        <ele>327.60000610352</ele>
        <time>2016-09-21T13:25:15Z</time>
      </trkpt>
      <trkpt lat="43.43433" lon="6.01466">
        <ele>328.20001220703</ele>
        <time>2016-09-21T13:25:19Z</time>
      </trkpt>
      <trkpt lat="43.43431" lon="6.01452">
        <ele>328.60000610352</ele>
        <time>2016-09-21T13:25:25Z</time>
      </trkpt>
      <trkpt lat="43.4343" lon="6.01438">
        <ele>329.20001220703</ele>
        <time>2016-09-21T13:25:31Z</time>
      </trkpt>
      <trkpt lat="43.43431" lon="6.0143">
        <ele>329.20001220703</ele>
        <time>2016-09-21T13:25:35Z</time>
      </trkpt>
      <trkpt lat="43.43431" lon="6.01417">
        <ele>330.39999389648</ele>
        <time>2016-09-21T13:25:41Z</time>
      </trkpt>
      <trkpt lat="43.4343" lon="6.0141">
        <ele>330.79998779297</ele>
        <time>2016-09-21T13:25:45Z</time>
      </trkpt>
      <trkpt lat="43.4343" lon="6.014">
        <ele>331.39999389648</ele>
        <time>2016-09-21T13:25:50Z</time>
      </trkpt>
      <trkpt lat="43.43428" lon="6.01391">
        <ele>331.79998779297</ele>
        <time>2016-09-21T13:25:55Z</time>
      </trkpt>
      <trkpt lat="43.43428" lon="6.01382">
        <ele>332.39999389648</ele>
        <time>2016-09-21T13:26:00Z</time>
      </trkpt>
      <trkpt lat="43.43427" lon="6.0137">
        <ele>332.60000610352</ele>
        <time>2016-09-21T13:26:05Z</time>
      </trkpt>
      <trkpt lat="43.43423" lon="6.01349">
        <ele>333.39999389648</ele>
        <time>2016-09-21T13:26:15Z</time>
      </trkpt>
      <trkpt lat="43.43423" lon="6.01348">
        <ele>333.60000610352</ele>
        <time>2016-09-21T13:26:16Z</time>
      </trkpt>
      <trkpt lat="43.43421" lon="6.0134">
        <ele>334.60000610352</ele>
        <time>2016-09-21T13:26:25Z</time>
      </trkpt>
      <trkpt lat="43.43421" lon="6.0134">
        <ele>334.60000610352</ele>
        <time>2016-09-21T13:26:29Z</time>
      </trkpt>
      <trkpt lat="43.43422" lon="6.0134">
        <ele>334.39999389648</ele>
        <time>2016-09-21T13:26:34Z</time>
      </trkpt>
      <trkpt lat="43.43422" lon="6.0134">
        <ele>334.39999389648</ele>
        <time>2016-09-21T13:26:35Z</time>
      </trkpt>
      <trkpt lat="43.43422" lon="6.0134">
        <ele>334.39999389648</ele>
        <time>2016-09-21T13:26:45Z</time>
      </trkpt>
      <trkpt lat="43.43422" lon="6.0134">
        <ele>334.20001220703</ele>
        <time>2016-09-21T13:26:49Z</time>
      </trkpt>
      <trkpt lat="43.43422" lon="6.0134">
        <ele>334.39999389648</ele>
        <time>2016-09-21T13:26:54Z</time>
      </trkpt>
      <trkpt lat="43.43422" lon="6.0134">
        <ele>334.39999389648</ele>
        <time>2016-09-21T13:26:55Z</time>
      </trkpt>
      <trkpt lat="43.43422" lon="6.01339">
        <ele>334</ele>
        <time>2016-09-21T13:27:05Z</time>
      </trkpt>
      <trkpt lat="43.43422" lon="6.0134">
        <ele>333.79998779297</ele>
        <time>2016-09-21T13:27:09Z</time>
      </trkpt>
      <trkpt lat="43.43422" lon="6.0134">
        <ele>333.79998779297</ele>
        <time>2016-09-21T13:27:15Z</time>
      </trkpt>
      <trkpt lat="43.43422" lon="6.01339">
        <ele>334.20001220703</ele>
        <time>2016-09-21T13:27:45Z</time>
      </trkpt>
      <trkpt lat="43.43422" lon="6.01338">
        <ele>334.39999389648</ele>
        <time>2016-09-21T13:28:15Z</time>
      </trkpt>
      <trkpt lat="43.43422" lon="6.01337">
        <ele>334.39999389648</ele>
        <time>2016-09-21T13:28:25Z</time>
      </trkpt>
      <trkpt lat="43.43422" lon="6.01337">
        <ele>334.39999389648</ele>
        <time>2016-09-21T13:28:35Z</time>
      </trkpt>
      <trkpt lat="43.43422" lon="6.01337">
        <ele>334.39999389648</ele>
        <time>2016-09-21T13:29:05Z</time>
      </trkpt>
      <trkpt lat="43.43422" lon="6.01337">
        <ele>334.39999389648</ele>
        <time>2016-09-21T13:29:15Z</time>
      </trkpt>
      <trkpt lat="43.43422" lon="6.01337">
        <ele>334.39999389648</ele>
        <time>2016-09-21T13:29:25Z</time>
      </trkpt>
      <trkpt lat="43.43422" lon="6.01337">
        <ele>334.39999389648</ele>
        <time>2016-09-21T13:29:55Z</time>
      </trkpt>
      <trkpt lat="43.43422" lon="6.01336">
        <ele>334.39999389648</ele>
        <time>2016-09-21T13:30:05Z</time>
      </trkpt>
      <trkpt lat="43.43427" lon="6.01331">
        <ele>335.39999389648</ele>
        <time>2016-09-21T13:30:08Z</time>
      </trkpt>
      <trkpt lat="43.4343" lon="6.01328">
        <ele>335.60000610352</ele>
        <time>2016-09-21T13:30:10Z</time>
      </trkpt>
      <trkpt lat="43.43434" lon="6.01325">
        <ele>336.39999389648</ele>
        <time>2016-09-21T13:30:12Z</time>
      </trkpt>
      <trkpt lat="43.43436" lon="6.01323">
        <ele>335.20001220703</ele>
        <time>2016-09-21T13:30:13Z</time>
      </trkpt>
      <trkpt lat="43.43439" lon="6.01319">
        <ele>336</ele>
        <time>2016-09-21T13:30:15Z</time>
      </trkpt>
      <trkpt lat="43.43442" lon="6.01311">
        <ele>336.60000610352</ele>
        <time>2016-09-21T13:30:18Z</time>
      </trkpt>
      <trkpt lat="43.43443" lon="6.01306">
        <ele>336.79998779297</ele>
        <time>2016-09-21T13:30:20Z</time>
      </trkpt>
      <trkpt lat="43.43447" lon="6.01299">
        <ele>337.79998779297</ele>
        <time>2016-09-21T13:30:23Z</time>
      </trkpt>
      <trkpt lat="43.43453" lon="6.01284">
        <ele>338.79998779297</ele>
        <time>2016-09-21T13:30:29Z</time>
      </trkpt>
      <trkpt lat="43.43454" lon="6.01276">
        <ele>340.39999389648</ele>
        <time>2016-09-21T13:30:32Z</time>
      </trkpt>
      <trkpt lat="43.43454" lon="6.01267">
        <ele>341.60000610352</ele>
        <time>2016-09-21T13:30:36Z</time>
      </trkpt>
      <trkpt lat="43.43456" lon="6.01261">
        <ele>342.20001220703</ele>
        <time>2016-09-21T13:30:39Z</time>
      </trkpt>
      <trkpt lat="43.43457" lon="6.01256">
        <ele>342.79998779297</ele>
        <time>2016-09-21T13:30:42Z</time>
      </trkpt>
      <trkpt lat="43.43459" lon="6.01251">
        <ele>343</ele>
        <time>2016-09-21T13:30:45Z</time>
      </trkpt>
      <trkpt lat="43.43468" lon="6.01238">
        <ele>343.60000610352</ele>
        <time>2016-09-21T13:30:55Z</time>
      </trkpt>
      <trkpt lat="43.4347" lon="6.01235">
        <ele>343.79998779297</ele>
        <time>2016-09-21T13:30:57Z</time>
      </trkpt>
      <trkpt lat="43.43474" lon="6.01221">
        <ele>344.60000610352</ele>
        <time>2016-09-21T13:31:05Z</time>
      </trkpt>
      <trkpt lat="43.43475" lon="6.01217">
        <ele>344.79998779297</ele>
        <time>2016-09-21T13:31:08Z</time>
      </trkpt>
      <trkpt lat="43.43476" lon="6.01204">
        <ele>345.60000610352</ele>
        <time>2016-09-21T13:31:15Z</time>
      </trkpt>
      <trkpt lat="43.43476" lon="6.01188">
        <ele>345.79998779297</ele>
        <time>2016-09-21T13:31:23Z</time>
      </trkpt>
      <trkpt lat="43.43475" lon="6.01165">
        <ele>346.79998779297</ele>
        <time>2016-09-21T13:31:35Z</time>
      </trkpt>
      <trkpt lat="43.43474" lon="6.01155">
        <ele>347</ele>
        <time>2016-09-21T13:31:40Z</time>
      </trkpt>
      <trkpt lat="43.43476" lon="6.01146">
        <ele>346.79998779297</ele>
        <time>2016-09-21T13:31:45Z</time>
      </trkpt>
      <trkpt lat="43.43477" lon="6.01143">
        <ele>347</ele>
        <time>2016-09-21T13:31:47Z</time>
      </trkpt>
      <trkpt lat="43.43481" lon="6.01134">
        <ele>348</ele>
        <time>2016-09-21T13:31:53Z</time>
      </trkpt>
      <trkpt lat="43.43483" lon="6.01131">
        <ele>348.39999389648</ele>
        <time>2016-09-21T13:31:55Z</time>
      </trkpt>
      <trkpt lat="43.43491" lon="6.01115">
        <ele>349.20001220703</ele>
        <time>2016-09-21T13:32:05Z</time>
      </trkpt>
      <trkpt lat="43.43496" lon="6.01104">
        <ele>350</ele>
        <time>2016-09-21T13:32:12Z</time>
      </trkpt>
      <trkpt lat="43.43498" lon="6.01099">
        <ele>350.20001220703</ele>
        <time>2016-09-21T13:32:15Z</time>
      </trkpt>
      <trkpt lat="43.43499" lon="6.01095">
        <ele>350.20001220703</ele>
        <time>2016-09-21T13:32:19Z</time>
      </trkpt>
      <trkpt lat="43.43499" lon="6.01095">
        <ele>350.60000610352</ele>
        <time>2016-09-21T13:32:24Z</time>
      </trkpt>
      <trkpt lat="43.43499" lon="6.01094">
        <ele>350.60000610352</ele>
        <time>2016-09-21T13:32:25Z</time>
      </trkpt>
      <trkpt lat="43.435" lon="6.01094">
        <ele>350.60000610352</ele>
        <time>2016-09-21T13:32:30Z</time>
      </trkpt>
      <trkpt lat="43.435" lon="6.01094">
        <ele>350.20001220703</ele>
        <time>2016-09-21T13:32:35Z</time>
      </trkpt>
      <trkpt lat="43.43501" lon="6.01094">
        <ele>350.39999389648</ele>
        <time>2016-09-21T13:32:43Z</time>
      </trkpt>
      <trkpt lat="43.43499" lon="6.01095">
        <ele>350.20001220703</ele>
        <time>2016-09-21T13:32:55Z</time>
      </trkpt>
      <trkpt lat="43.43499" lon="6.01095">
        <ele>350.39999389648</ele>
        <time>2016-09-21T13:33:01Z</time>
      </trkpt>
      <trkpt lat="43.43499" lon="6.01095">
        <ele>350.39999389648</ele>
        <time>2016-09-21T13:33:05Z</time>
      </trkpt>
      <trkpt lat="43.43499" lon="6.01095">
        <ele>350.39999389648</ele>
        <time>2016-09-21T13:33:15Z</time>
      </trkpt>
      <trkpt lat="43.43499" lon="6.01096">
        <ele>350.39999389648</ele>
        <time>2016-09-21T13:33:25Z</time>
      </trkpt>
      <trkpt lat="43.43499" lon="6.01096">
        <ele>351</ele>
        <time>2016-09-21T13:33:35Z</time>
      </trkpt>
      <trkpt lat="43.435" lon="6.01096">
        <ele>351</ele>
        <time>2016-09-21T13:33:45Z</time>
      </trkpt>
      <trkpt lat="43.43502" lon="6.01095">
        <ele>351</ele>
        <time>2016-09-21T13:33:55Z</time>
      </trkpt>
      <trkpt lat="43.43502" lon="6.01093">
        <ele>351</ele>
        <time>2016-09-21T13:34:02Z</time>
      </trkpt>
      <trkpt lat="43.43501" lon="6.01094">
        <ele>351</ele>
        <time>2016-09-21T13:34:05Z</time>
      </trkpt>
      <trkpt lat="43.43501" lon="6.01095">
        <ele>351</ele>
        <time>2016-09-21T13:34:15Z</time>
      </trkpt>
      <trkpt lat="43.43501" lon="6.01092">
        <ele>351</ele>
        <time>2016-09-21T13:34:19Z</time>
      </trkpt>
      <trkpt lat="43.43501" lon="6.01078">
        <ele>351</ele>
        <time>2016-09-21T13:34:25Z</time>
      </trkpt>
      <trkpt lat="43.43501" lon="6.01075">
        <ele>351.20001220703</ele>
        <time>2016-09-21T13:34:26Z</time>
      </trkpt>
      <trkpt lat="43.43496" lon="6.01053">
        <ele>351.60000610352</ele>
        <time>2016-09-21T13:34:35Z</time>
      </trkpt>
      <trkpt lat="43.43494" lon="6.01036">
        <ele>352.39999389648</ele>
        <time>2016-09-21T13:34:42Z</time>
      </trkpt>
      <trkpt lat="43.43494" lon="6.01029">
        <ele>352.60000610352</ele>
        <time>2016-09-21T13:34:45Z</time>
      </trkpt>
      <trkpt lat="43.43494" lon="6.01017">
        <ele>353.39999389648</ele>
        <time>2016-09-21T13:34:50Z</time>
      </trkpt>
      <trkpt lat="43.43493" lon="6.01006">
        <ele>354.39999389648</ele>
        <time>2016-09-21T13:34:55Z</time>
      </trkpt>
      <trkpt lat="43.43493" lon="6.01001">
        <ele>354.39999389648</ele>
        <time>2016-09-21T13:34:57Z</time>
      </trkpt>
      <trkpt lat="43.43494" lon="6.00993">
        <ele>355</ele>
        <time>2016-09-21T13:35:01Z</time>
      </trkpt>
      <trkpt lat="43.43496" lon="6.00987">
        <ele>355.39999389648</ele>
        <time>2016-09-21T13:35:04Z</time>
      </trkpt>
      <trkpt lat="43.43496" lon="6.00985">
        <ele>355.79998779297</ele>
        <time>2016-09-21T13:35:05Z</time>
      </trkpt>
      <trkpt lat="43.43497" lon="6.0098">
        <ele>356.60000610352</ele>
        <time>2016-09-21T13:35:08Z</time>
      </trkpt>
      <trkpt lat="43.43499" lon="6.00967">
        <ele>357.60000610352</ele>
        <time>2016-09-21T13:35:14Z</time>
      </trkpt>
      <trkpt lat="43.43501" lon="6.00959">
        <ele>358.79998779297</ele>
        <time>2016-09-21T13:35:18Z</time>
      </trkpt>
      <trkpt lat="43.43503" lon="6.00946">
        <ele>360</ele>
        <time>2016-09-21T13:35:24Z</time>
      </trkpt>
      <trkpt lat="43.43504" lon="6.00944">
        <ele>360.20001220703</ele>
        <time>2016-09-21T13:35:25Z</time>
      </trkpt>
      <trkpt lat="43.43506" lon="6.00932">
        <ele>361</ele>
        <time>2016-09-21T13:35:31Z</time>
      </trkpt>
      <trkpt lat="43.43508" lon="6.0092">
        <ele>362</ele>
        <time>2016-09-21T13:35:38Z</time>
      </trkpt>
      <trkpt lat="43.43509" lon="6.00913">
        <ele>362.39999389648</ele>
        <time>2016-09-21T13:35:43Z</time>
      </trkpt>
      <trkpt lat="43.4351" lon="6.0091">
        <ele>362.60000610352</ele>
        <time>2016-09-21T13:35:45Z</time>
      </trkpt>
      <trkpt lat="43.4351" lon="6.00908">
        <ele>362.79998779297</ele>
        <time>2016-09-21T13:35:52Z</time>
      </trkpt>
      <trkpt lat="43.4351" lon="6.00908">
        <ele>362.79998779297</ele>
        <time>2016-09-21T13:35:55Z</time>
      </trkpt>
      <trkpt lat="43.4351" lon="6.00908">
        <ele>362.79998779297</ele>
        <time>2016-09-21T13:36:05Z</time>
      </trkpt>
      <trkpt lat="43.4351" lon="6.00906">
        <ele>362.79998779297</ele>
        <time>2016-09-21T13:36:08Z</time>
      </trkpt>
      <trkpt lat="43.43511" lon="6.00903">
        <ele>363.20001220703</ele>
        <time>2016-09-21T13:36:10Z</time>
      </trkpt>
      <trkpt lat="43.43513" lon="6.00893">
        <ele>364</ele>
        <time>2016-09-21T13:36:15Z</time>
      </trkpt>
      <trkpt lat="43.43513" lon="6.00889">
        <ele>364.20001220703</ele>
        <time>2016-09-21T13:36:17Z</time>
      </trkpt>
      <trkpt lat="43.43518" lon="6.00873">
        <ele>365.20001220703</ele>
        <time>2016-09-21T13:36:25Z</time>
      </trkpt>
      <trkpt lat="43.43523" lon="6.00856">
        <ele>366</ele>
        <time>2016-09-21T13:36:35Z</time>
      </trkpt>
      <trkpt lat="43.43524" lon="6.00848">
        <ele>366.39999389648</ele>
        <time>2016-09-21T13:36:39Z</time>
      </trkpt>
      <trkpt lat="43.43527" lon="6.00836">
        <ele>367</ele>
        <time>2016-09-21T13:36:45Z</time>
      </trkpt>
      <trkpt lat="43.43528" lon="6.00827">
        <ele>367.39999389648</ele>
        <time>2016-09-21T13:36:50Z</time>
      </trkpt>
      <trkpt lat="43.4353" lon="6.00818">
        <ele>368</ele>
        <time>2016-09-21T13:36:55Z</time>
      </trkpt>
      <trkpt lat="43.4353" lon="6.00817">
        <ele>368.20001220703</ele>
        <time>2016-09-21T13:36:56Z</time>
      </trkpt>
      <trkpt lat="43.4353" lon="6.00815">
        <ele>368.20001220703</ele>
        <time>2016-09-21T13:37:01Z</time>
      </trkpt>
      <trkpt lat="43.4353" lon="6.00815">
        <ele>368.39999389648</ele>
        <time>2016-09-21T13:37:05Z</time>
      </trkpt>
      <trkpt lat="43.4353" lon="6.00815">
        <ele>368.20001220703</ele>
        <time>2016-09-21T13:37:08Z</time>
      </trkpt>
      <trkpt lat="43.4353" lon="6.00815">
        <ele>368.20001220703</ele>
        <time>2016-09-21T13:37:15Z</time>
      </trkpt>
      <trkpt lat="43.4353" lon="6.00815">
        <ele>368.39999389648</ele>
        <time>2016-09-21T13:37:30Z</time>
      </trkpt>
      <trkpt lat="43.4353" lon="6.00815">
        <ele>368.20001220703</ele>
        <time>2016-09-21T13:37:35Z</time>
      </trkpt>
      <trkpt lat="43.43532" lon="6.00815">
        <ele>368</ele>
        <time>2016-09-21T13:37:45Z</time>
      </trkpt>
      <trkpt lat="43.43532" lon="6.00816">
        <ele>368</ele>
        <time>2016-09-21T13:37:55Z</time>
      </trkpt>
      <trkpt lat="43.43532" lon="6.00816">
        <ele>368.39999389648</ele>
        <time>2016-09-21T13:37:58Z</time>
      </trkpt>
      <trkpt lat="43.43532" lon="6.00816">
        <ele>368.60000610352</ele>
        <time>2016-09-21T13:38:05Z</time>
      </trkpt>
      <trkpt lat="43.43531" lon="6.00817">
        <ele>368.60000610352</ele>
        <time>2016-09-21T13:38:15Z</time>
      </trkpt>
      <trkpt lat="43.43531" lon="6.00816">
        <ele>368.60000610352</ele>
        <time>2016-09-21T13:38:25Z</time>
      </trkpt>
      <trkpt lat="43.43531" lon="6.00816">
        <ele>368.60000610352</ele>
        <time>2016-09-21T13:38:45Z</time>
      </trkpt>
      <trkpt lat="43.43532" lon="6.00816">
        <ele>368.60000610352</ele>
        <time>2016-09-21T13:38:55Z</time>
      </trkpt>
      <trkpt lat="43.43532" lon="6.00816">
        <ele>368.60000610352</ele>
        <time>2016-09-21T13:39:05Z</time>
      </trkpt>
      <trkpt lat="43.43533" lon="6.00815">
        <ele>368.60000610352</ele>
        <time>2016-09-21T13:39:15Z</time>
      </trkpt>
      <trkpt lat="43.43533" lon="6.00813">
        <ele>368.60000610352</ele>
        <time>2016-09-21T13:39:25Z</time>
      </trkpt>
      <trkpt lat="43.43532" lon="6.00813">
        <ele>368.60000610352</ele>
        <time>2016-09-21T13:39:35Z</time>
      </trkpt>
      <trkpt lat="43.43532" lon="6.00813">
        <ele>368.60000610352</ele>
        <time>2016-09-21T13:39:45Z</time>
      </trkpt>
      <trkpt lat="43.43532" lon="6.00814">
        <ele>368.60000610352</ele>
        <time>2016-09-21T13:39:55Z</time>
      </trkpt>
      <trkpt lat="43.43531" lon="6.00816">
        <ele>368.60000610352</ele>
        <time>2016-09-21T13:40:05Z</time>
      </trkpt>
      <trkpt lat="43.43531" lon="6.00816">
        <ele>368.60000610352</ele>
        <time>2016-09-21T13:40:15Z</time>
      </trkpt>
      <trkpt lat="43.43531" lon="6.00815">
        <ele>368.60000610352</ele>
        <time>2016-09-21T13:40:25Z</time>
      </trkpt>
      <trkpt lat="43.43531" lon="6.00815">
        <ele>368.60000610352</ele>
        <time>2016-09-21T13:40:35Z</time>
      </trkpt>
      <trkpt lat="43.43531" lon="6.00815">
        <ele>368.60000610352</ele>
        <time>2016-09-21T13:40:45Z</time>
      </trkpt>
      <trkpt lat="43.43531" lon="6.00815">
        <ele>368.60000610352</ele>
        <time>2016-09-21T13:40:55Z</time>
      </trkpt>
      <trkpt lat="43.43531" lon="6.00815">
        <ele>368.60000610352</ele>
        <time>2016-09-21T13:41:05Z</time>
      </trkpt>
      <trkpt lat="43.43532" lon="6.00812">
        <ele>368.60000610352</ele>
        <time>2016-09-21T13:41:12Z</time>
      </trkpt>
      <trkpt lat="43.43535" lon="6.00805">
        <ele>368.39999389648</ele>
        <time>2016-09-21T13:41:15Z</time>
      </trkpt>
      <trkpt lat="43.43539" lon="6.00794">
        <ele>368.20001220703</ele>
        <time>2016-09-21T13:41:19Z</time>
      </trkpt>
      <trkpt lat="43.43544" lon="6.00777">
        <ele>368.60000610352</ele>
        <time>2016-09-21T13:41:22Z</time>
      </trkpt>
      <trkpt lat="43.43549" lon="6.00758">
        <ele>368.60000610352</ele>
        <time>2016-09-21T13:41:25Z</time>
      </trkpt>
      <trkpt lat="43.43566" lon="6.0071">
        <ele>367</ele>
        <time>2016-09-21T13:41:32Z</time>
      </trkpt>
      <trkpt lat="43.43572" lon="6.00696">
        <ele>365.60000610352</ele>
        <time>2016-09-21T13:41:34Z</time>
      </trkpt>
      <trkpt lat="43.43575" lon="6.00689">
        <ele>364.39999389648</ele>
        <time>2016-09-21T13:41:35Z</time>
      </trkpt>
      <trkpt lat="43.43578" lon="6.00682">
        <ele>363.39999389648</ele>
        <time>2016-09-21T13:41:36Z</time>
      </trkpt>
      <trkpt lat="43.43578" lon="6.00668">
        <ele>361.79998779297</ele>
        <time>2016-09-21T13:41:38Z</time>
      </trkpt>
      <trkpt lat="43.43573" lon="6.00656">
        <ele>361.20001220703</ele>
        <time>2016-09-21T13:41:40Z</time>
      </trkpt>
      <trkpt lat="43.4357" lon="6.00651">
        <ele>360.79998779297</ele>
        <time>2016-09-21T13:41:41Z</time>
      </trkpt>
      <trkpt lat="43.43564" lon="6.0064">
        <ele>360.60000610352</ele>
        <time>2016-09-21T13:41:43Z</time>
      </trkpt>
      <trkpt lat="43.43555" lon="6.00628">
        <ele>358.79998779297</ele>
        <time>2016-09-21T13:41:46Z</time>
      </trkpt>
      <trkpt lat="43.43554" lon="6.00624">
        <ele>357.60000610352</ele>
        <time>2016-09-21T13:41:47Z</time>
      </trkpt>
      <trkpt lat="43.43555" lon="6.00613">
        <ele>356</ele>
        <time>2016-09-21T13:41:49Z</time>
      </trkpt>
      <trkpt lat="43.43557" lon="6.00601">
        <ele>355.20001220703</ele>
        <time>2016-09-21T13:41:51Z</time>
      </trkpt>
      <trkpt lat="43.43562" lon="6.00589">
        <ele>354.60000610352</ele>
        <time>2016-09-21T13:41:53Z</time>
      </trkpt>
      <trkpt lat="43.43571" lon="6.00577">
        <ele>353.79998779297</ele>
        <time>2016-09-21T13:41:55Z</time>
      </trkpt>
      <trkpt lat="43.43575" lon="6.0057">
        <ele>353.39999389648</ele>
        <time>2016-09-21T13:41:56Z</time>
      </trkpt>
      <trkpt lat="43.43592" lon="6.00539">
        <ele>352.60000610352</ele>
        <time>2016-09-21T13:42:00Z</time>
      </trkpt>
      <trkpt lat="43.43606" lon="6.00521">
        <ele>351.39999389648</ele>
        <time>2016-09-21T13:42:03Z</time>
      </trkpt>
      <trkpt lat="43.4361" lon="6.00515">
        <ele>350.60000610352</ele>
        <time>2016-09-21T13:42:04Z</time>
      </trkpt>
      <trkpt lat="43.43613" lon="6.00508">
        <ele>350</ele>
        <time>2016-09-21T13:42:05Z</time>
      </trkpt>
      <trkpt lat="43.43615" lon="6.00501">
        <ele>349.60000610352</ele>
        <time>2016-09-21T13:42:06Z</time>
      </trkpt>
      <trkpt lat="43.43621" lon="6.00479">
        <ele>348.60000610352</ele>
        <time>2016-09-21T13:42:09Z</time>
      </trkpt>
      <trkpt lat="43.43622" lon="6.00464">
        <ele>348.20001220703</ele>
        <time>2016-09-21T13:42:11Z</time>
      </trkpt>
      <trkpt lat="43.43623" lon="6.00437">
        <ele>347.39999389648</ele>
        <time>2016-09-21T13:42:15Z</time>
      </trkpt>
      <trkpt lat="43.43621" lon="6.00423">
        <ele>346.60000610352</ele>
        <time>2016-09-21T13:42:17Z</time>
      </trkpt>
      <trkpt lat="43.4362" lon="6.00417">
        <ele>346.20001220703</ele>
        <time>2016-09-21T13:42:18Z</time>
      </trkpt>
      <trkpt lat="43.43612" lon="6.00398">
        <ele>345</ele>
        <time>2016-09-21T13:42:21Z</time>
      </trkpt>
      <trkpt lat="43.4361" lon="6.0039">
        <ele>344.60000610352</ele>
        <time>2016-09-21T13:42:22Z</time>
      </trkpt>
      <trkpt lat="43.43608" lon="6.00373">
        <ele>344</ele>
        <time>2016-09-21T13:42:24Z</time>
      </trkpt>
      <trkpt lat="43.43609" lon="6.00365">
        <ele>344</ele>
        <time>2016-09-21T13:42:25Z</time>
      </trkpt>
      <trkpt lat="43.43611" lon="6.00357">
        <ele>343.79998779297</ele>
        <time>2016-09-21T13:42:26Z</time>
      </trkpt>
      <trkpt lat="43.43616" lon="6.00342">
        <ele>343</ele>
        <time>2016-09-21T13:42:28Z</time>
      </trkpt>
      <trkpt lat="43.43619" lon="6.00335">
        <ele>342.79998779297</ele>
        <time>2016-09-21T13:42:29Z</time>
      </trkpt>
      <trkpt lat="43.43635" lon="6.00312">
        <ele>341.39999389648</ele>
        <time>2016-09-21T13:42:33Z</time>
      </trkpt>
      <trkpt lat="43.43644" lon="6.00301">
        <ele>340.39999389648</ele>
        <time>2016-09-21T13:42:35Z</time>
      </trkpt>
      <trkpt lat="43.43649" lon="6.00296">
        <ele>340</ele>
        <time>2016-09-21T13:42:36Z</time>
      </trkpt>
      <trkpt lat="43.43653" lon="6.0029">
        <ele>339.60000610352</ele>
        <time>2016-09-21T13:42:37Z</time>
      </trkpt>
      <trkpt lat="43.4367" lon="6.00261">
        <ele>338.79998779297</ele>
        <time>2016-09-21T13:42:42Z</time>
      </trkpt>
      <trkpt lat="43.43675" lon="6.00257">
        <ele>338.60000610352</ele>
        <time>2016-09-21T13:42:43Z</time>
      </trkpt>
      <trkpt lat="43.43684" lon="6.00256">
        <ele>338.20001220703</ele>
        <time>2016-09-21T13:42:45Z</time>
      </trkpt>
      <trkpt lat="43.43694" lon="6.00261">
        <ele>337.60000610352</ele>
        <time>2016-09-21T13:42:47Z</time>
      </trkpt>
      <trkpt lat="43.43699" lon="6.00263">
        <ele>337.39999389648</ele>
        <time>2016-09-21T13:42:48Z</time>
      </trkpt>
      <trkpt lat="43.43727" lon="6.00263">
        <ele>336.60000610352</ele>
        <time>2016-09-21T13:42:54Z</time>
      </trkpt>
      <trkpt lat="43.43731" lon="6.00261">
        <ele>336.60000610352</ele>
        <time>2016-09-21T13:42:55Z</time>
      </trkpt>
      <trkpt lat="43.43739" lon="6.00257">
        <ele>337.39999389648</ele>
        <time>2016-09-21T13:43:05Z</time>
      </trkpt>
      <trkpt lat="43.43739" lon="6.00257">
        <ele>337.39999389648</ele>
        <time>2016-09-21T13:43:15Z</time>
      </trkpt>
      <trkpt lat="43.43738" lon="6.00258">
        <ele>337.20001220703</ele>
        <time>2016-09-21T13:43:25Z</time>
      </trkpt>
      <trkpt lat="43.43739" lon="6.00258">
        <ele>337.60000610352</ele>
        <time>2016-09-21T13:43:36Z</time>
      </trkpt>
      <trkpt lat="43.43739" lon="6.00258">
        <ele>336.79998779297</ele>
        <time>2016-09-21T13:43:55Z</time>
      </trkpt>
      <trkpt lat="43.43739" lon="6.00258">
        <ele>336.79998779297</ele>
        <time>2016-09-21T13:44:05Z</time>
      </trkpt>
      <trkpt lat="43.43739" lon="6.00258">
        <ele>336.79998779297</ele>
        <time>2016-09-21T13:44:15Z</time>
      </trkpt>
      <trkpt lat="43.43743" lon="6.00262">
        <ele>336.60000610352</ele>
        <time>2016-09-21T13:44:19Z</time>
      </trkpt>
      <trkpt lat="43.43744" lon="6.00265">
        <ele>336.39999389648</ele>
        <time>2016-09-21T13:44:20Z</time>
      </trkpt>
      <trkpt lat="43.43748" lon="6.00283">
        <ele>336</ele>
        <time>2016-09-21T13:44:24Z</time>
      </trkpt>
      <trkpt lat="43.43748" lon="6.00289">
        <ele>335.79998779297</ele>
        <time>2016-09-21T13:44:25Z</time>
      </trkpt>
      <trkpt lat="43.4375" lon="6.003">
        <ele>335.79998779297</ele>
        <time>2016-09-21T13:44:27Z</time>
      </trkpt>
      <trkpt lat="43.43752" lon="6.00313">
        <ele>335.39999389648</ele>
        <time>2016-09-21T13:44:29Z</time>
      </trkpt>
      <trkpt lat="43.43753" lon="6.0032">
        <ele>335.20001220703</ele>
        <time>2016-09-21T13:44:30Z</time>
      </trkpt>
      <trkpt lat="43.43752" lon="6.00344">
        <ele>334.79998779297</ele>
        <time>2016-09-21T13:44:34Z</time>
      </trkpt>
      <trkpt lat="43.43751" lon="6.00351">
        <ele>334.60000610352</ele>
        <time>2016-09-21T13:44:35Z</time>
      </trkpt>
      <trkpt lat="43.43749" lon="6.00367">
        <ele>334.39999389648</ele>
        <time>2016-09-21T13:44:37Z</time>
      </trkpt>
      <trkpt lat="43.4375" lon="6.00376">
        <ele>334</ele>
        <time>2016-09-21T13:44:38Z</time>
      </trkpt>
      <trkpt lat="43.4375" lon="6.00384">
        <ele>333.60000610352</ele>
        <time>2016-09-21T13:44:39Z</time>
      </trkpt>
      <trkpt lat="43.43755" lon="6.00406">
        <ele>333</ele>
        <time>2016-09-21T13:44:42Z</time>
      </trkpt>
      <trkpt lat="43.43756" lon="6.00428">
        <ele>332</ele>
        <time>2016-09-21T13:44:45Z</time>
      </trkpt>
      <trkpt lat="43.4376" lon="6.00444">
        <ele>332</ele>
        <time>2016-09-21T13:44:47Z</time>
      </trkpt>
      <trkpt lat="43.43765" lon="6.00461">
        <ele>332</ele>
        <time>2016-09-21T13:44:49Z</time>
      </trkpt>
      <trkpt lat="43.43773" lon="6.00484">
        <ele>331.60000610352</ele>
        <time>2016-09-21T13:44:52Z</time>
      </trkpt>
      <trkpt lat="43.43777" lon="6.00502">
        <ele>330.39999389648</ele>
        <time>2016-09-21T13:44:54Z</time>
      </trkpt>
      <trkpt lat="43.4378" lon="6.00509">
        <ele>329.79998779297</ele>
        <time>2016-09-21T13:44:55Z</time>
      </trkpt>
      <trkpt lat="43.43788" lon="6.00516">
        <ele>329.39999389648</ele>
        <time>2016-09-21T13:44:57Z</time>
      </trkpt>
      <trkpt lat="43.43797" lon="6.00522">
        <ele>329.60000610352</ele>
        <time>2016-09-21T13:44:59Z</time>
      </trkpt>
      <trkpt lat="43.43807" lon="6.00531">
        <ele>329.20001220703</ele>
        <time>2016-09-21T13:45:01Z</time>
      </trkpt>
      <trkpt lat="43.43811" lon="6.00536">
        <ele>329.20001220703</ele>
        <time>2016-09-21T13:45:02Z</time>
      </trkpt>
      <trkpt lat="43.43815" lon="6.0055">
        <ele>328.79998779297</ele>
        <time>2016-09-21T13:45:04Z</time>
      </trkpt>
      <trkpt lat="43.43817" lon="6.00565">
        <ele>328.39999389648</ele>
        <time>2016-09-21T13:45:06Z</time>
      </trkpt>
      <trkpt lat="43.43821" lon="6.0058">
        <ele>327.79998779297</ele>
        <time>2016-09-21T13:45:08Z</time>
      </trkpt>
      <trkpt lat="43.43826" lon="6.00593">
        <ele>327.20001220703</ele>
        <time>2016-09-21T13:45:10Z</time>
      </trkpt>
      <trkpt lat="43.43835" lon="6.0061">
        <ele>326.39999389648</ele>
        <time>2016-09-21T13:45:13Z</time>
      </trkpt>
      <trkpt lat="43.43842" lon="6.0062">
        <ele>326.39999389648</ele>
        <time>2016-09-21T13:45:15Z</time>
      </trkpt>
      <trkpt lat="43.43844" lon="6.0063">
        <ele>326.39999389648</ele>
        <time>2016-09-21T13:45:17Z</time>
      </trkpt>
      <trkpt lat="43.4384" lon="6.00643">
        <ele>328</ele>
        <time>2016-09-21T13:45:21Z</time>
      </trkpt>
      <trkpt lat="43.43839" lon="6.00649">
        <ele>329</ele>
        <time>2016-09-21T13:45:23Z</time>
      </trkpt>
      <trkpt lat="43.43836" lon="6.00659">
        <ele>330.20001220703</ele>
        <time>2016-09-21T13:45:26Z</time>
      </trkpt>
      <trkpt lat="43.43834" lon="6.00666">
        <ele>331</ele>
        <time>2016-09-21T13:45:29Z</time>
      </trkpt>
      <trkpt lat="43.43834" lon="6.00668">
        <ele>331.20001220703</ele>
        <time>2016-09-21T13:45:30Z</time>
      </trkpt>
      <trkpt lat="43.43832" lon="6.00681">
        <ele>331.39999389648</ele>
        <time>2016-09-21T13:45:35Z</time>
      </trkpt>
      <trkpt lat="43.4383" lon="6.00699">
        <ele>330.60000610352</ele>
        <time>2016-09-21T13:45:39Z</time>
      </trkpt>
      <trkpt lat="43.43829" lon="6.00712">
        <ele>330</ele>
        <time>2016-09-21T13:45:41Z</time>
      </trkpt>
      <trkpt lat="43.4383" lon="6.00736">
        <ele>329.20001220703</ele>
        <time>2016-09-21T13:45:44Z</time>
      </trkpt>
      <trkpt lat="43.4383" lon="6.00745">
        <ele>328.79998779297</ele>
        <time>2016-09-21T13:45:45Z</time>
      </trkpt>
      <trkpt lat="43.4383" lon="6.00776">
        <ele>327.20001220703</ele>
        <time>2016-09-21T13:45:48Z</time>
      </trkpt>
      <trkpt lat="43.43829" lon="6.00797">
        <ele>326.20001220703</ele>
        <time>2016-09-21T13:45:50Z</time>
      </trkpt>
      <trkpt lat="43.43822" lon="6.00825">
        <ele>325</ele>
        <time>2016-09-21T13:45:53Z</time>
      </trkpt>
      <trkpt lat="43.43819" lon="6.00833">
        <ele>324.79998779297</ele>
        <time>2016-09-21T13:45:54Z</time>
      </trkpt>
      <trkpt lat="43.43812" lon="6.00854">
        <ele>324.60000610352</ele>
        <time>2016-09-21T13:45:57Z</time>
      </trkpt>
      <trkpt lat="43.43811" lon="6.00869">
        <ele>324.79998779297</ele>
        <time>2016-09-21T13:45:59Z</time>
      </trkpt>
      <trkpt lat="43.4381" lon="6.00884">
        <ele>324.60000610352</ele>
        <time>2016-09-21T13:46:01Z</time>
      </trkpt>
      <trkpt lat="43.43813" lon="6.0091">
        <ele>324.60000610352</ele>
        <time>2016-09-21T13:46:04Z</time>
      </trkpt>
      <trkpt lat="43.43815" lon="6.00919">
        <ele>324.20001220703</ele>
        <time>2016-09-21T13:46:05Z</time>
      </trkpt>
      <trkpt lat="43.43817" lon="6.00929">
        <ele>323.39999389648</ele>
        <time>2016-09-21T13:46:06Z</time>
      </trkpt>
      <trkpt lat="43.43822" lon="6.00948">
        <ele>322.20001220703</ele>
        <time>2016-09-21T13:46:08Z</time>
      </trkpt>
      <trkpt lat="43.43826" lon="6.00967">
        <ele>321.20001220703</ele>
        <time>2016-09-21T13:46:10Z</time>
      </trkpt>
      <trkpt lat="43.43827" lon="6.0099">
        <ele>319.79998779297</ele>
        <time>2016-09-21T13:46:12Z</time>
      </trkpt>
      <trkpt lat="43.43824" lon="6.01012">
        <ele>318.39999389648</ele>
        <time>2016-09-21T13:46:14Z</time>
      </trkpt>
      <trkpt lat="43.43821" lon="6.01022">
        <ele>317.79998779297</ele>
        <time>2016-09-21T13:46:15Z</time>
      </trkpt>
      <trkpt lat="43.43813" lon="6.01049">
        <ele>317.39999389648</ele>
        <time>2016-09-21T13:46:18Z</time>
      </trkpt>
      <trkpt lat="43.43799" lon="6.01088">
        <ele>318.39999389648</ele>
        <time>2016-09-21T13:46:23Z</time>
      </trkpt>
      <trkpt lat="43.43793" lon="6.01103">
        <ele>318.60000610352</ele>
        <time>2016-09-21T13:46:25Z</time>
      </trkpt>
      <trkpt lat="43.43783" lon="6.01129">
        <ele>319</ele>
        <time>2016-09-21T13:46:28Z</time>
      </trkpt>
      <trkpt lat="43.43776" lon="6.01149">
        <ele>319.20001220703</ele>
        <time>2016-09-21T13:46:30Z</time>
      </trkpt>
      <trkpt lat="43.43773" lon="6.0116">
        <ele>319</ele>
        <time>2016-09-21T13:46:31Z</time>
      </trkpt>
      <trkpt lat="43.43766" lon="6.01182">
        <ele>319</ele>
        <time>2016-09-21T13:46:33Z</time>
      </trkpt>
      <trkpt lat="43.43764" lon="6.01206">
        <ele>319</ele>
        <time>2016-09-21T13:46:35Z</time>
      </trkpt>
      <trkpt lat="43.43766" lon="6.01246">
        <ele>318</ele>
        <time>2016-09-21T13:46:38Z</time>
      </trkpt>
      <trkpt lat="43.43768" lon="6.0126">
        <ele>317.39999389648</ele>
        <time>2016-09-21T13:46:39Z</time>
      </trkpt>
      <trkpt lat="43.43773" lon="6.01287">
        <ele>316.20001220703</ele>
        <time>2016-09-21T13:46:41Z</time>
      </trkpt>
      <trkpt lat="43.43779" lon="6.01328">
        <ele>314.60000610352</ele>
        <time>2016-09-21T13:46:44Z</time>
      </trkpt>
      <trkpt lat="43.43781" lon="6.01341">
        <ele>313.60000610352</ele>
        <time>2016-09-21T13:46:45Z</time>
      </trkpt>
      <trkpt lat="43.43782" lon="6.01353">
        <ele>312.60000610352</ele>
        <time>2016-09-21T13:46:46Z</time>
      </trkpt>
      <trkpt lat="43.43783" lon="6.01387">
        <ele>311.79998779297</ele>
        <time>2016-09-21T13:46:49Z</time>
      </trkpt>
      <trkpt lat="43.43784" lon="6.01399">
        <ele>311.39999389648</ele>
        <time>2016-09-21T13:46:50Z</time>
      </trkpt>
      <trkpt lat="43.43786" lon="6.01454">
        <ele>310.60000610352</ele>
        <time>2016-09-21T13:46:55Z</time>
      </trkpt>
      <trkpt lat="43.43786" lon="6.01497">
        <ele>311.20001220703</ele>
        <time>2016-09-21T13:46:59Z</time>
      </trkpt>
      <trkpt lat="43.4378" lon="6.01531">
        <ele>310.20001220703</ele>
        <time>2016-09-21T13:47:02Z</time>
      </trkpt>
      <trkpt lat="43.43773" lon="6.01561">
        <ele>309.79998779297</ele>
        <time>2016-09-21T13:47:05Z</time>
      </trkpt>
      <trkpt lat="43.43763" lon="6.016">
        <ele>310.60000610352</ele>
        <time>2016-09-21T13:47:09Z</time>
      </trkpt>
      <trkpt lat="43.43747" lon="6.01655">
        <ele>311</ele>
        <time>2016-09-21T13:47:15Z</time>
      </trkpt>
      <trkpt lat="43.4374" lon="6.01683">
        <ele>311.20001220703</ele>
        <time>2016-09-21T13:47:19Z</time>
      </trkpt>
      <trkpt lat="43.4374" lon="6.01689">
        <ele>311.20001220703</ele>
        <time>2016-09-21T13:47:23Z</time>
      </trkpt>
      <trkpt lat="43.4374" lon="6.01688">
        <ele>311.39999389648</ele>
        <time>2016-09-21T13:47:25Z</time>
      </trkpt>
      <trkpt lat="43.4374" lon="6.01688">
        <ele>311.60000610352</ele>
        <time>2016-09-21T13:47:34Z</time>
      </trkpt>
      <trkpt lat="43.4374" lon="6.01688">
        <ele>311.20001220703</ele>
        <time>2016-09-21T13:49:35Z</time>
      </trkpt>
      <trkpt lat="43.43742" lon="6.01688">
        <ele>311.20001220703</ele>
        <time>2016-09-21T13:49:36Z</time>
      </trkpt>
      <trkpt lat="43.43749" lon="6.01691">
        <ele>310</ele>
        <time>2016-09-21T13:49:39Z</time>
      </trkpt>
      <trkpt lat="43.43774" lon="6.01701">
        <ele>310</ele>
        <time>2016-09-21T13:49:45Z</time>
      </trkpt>
      <trkpt lat="43.43779" lon="6.01702">
        <ele>310</ele>
        <time>2016-09-21T13:49:46Z</time>
      </trkpt>
      <trkpt lat="43.43803" lon="6.01699">
        <ele>309</ele>
        <time>2016-09-21T13:49:50Z</time>
      </trkpt>
      <trkpt lat="43.43826" lon="6.01688">
        <ele>307.79998779297</ele>
        <time>2016-09-21T13:49:54Z</time>
      </trkpt>
      <trkpt lat="43.43832" lon="6.01685">
        <ele>307.39999389648</ele>
        <time>2016-09-21T13:49:55Z</time>
      </trkpt>
      <trkpt lat="43.43843" lon="6.01678">
        <ele>307.20001220703</ele>
        <time>2016-09-21T13:49:57Z</time>
      </trkpt>
      <trkpt lat="43.43861" lon="6.01661">
        <ele>306.79998779297</ele>
        <time>2016-09-21T13:50:01Z</time>
      </trkpt>
      <trkpt lat="43.43865" lon="6.01661">
        <ele>306.60000610352</ele>
        <time>2016-09-21T13:50:02Z</time>
      </trkpt>
      <trkpt lat="43.43869" lon="6.01673">
        <ele>306.20001220703</ele>
        <time>2016-09-21T13:50:05Z</time>
      </trkpt>
      <trkpt lat="43.43869" lon="6.01685">
        <ele>306.20001220703</ele>
        <time>2016-09-21T13:50:07Z</time>
      </trkpt>
      <trkpt lat="43.43869" lon="6.01698">
        <ele>306</ele>
        <time>2016-09-21T13:50:09Z</time>
      </trkpt>
      <trkpt lat="43.43872" lon="6.01712">
        <ele>305.60000610352</ele>
        <time>2016-09-21T13:50:11Z</time>
      </trkpt>
      <trkpt lat="43.43877" lon="6.01726">
        <ele>305.20001220703</ele>
        <time>2016-09-21T13:50:13Z</time>
      </trkpt>
      <trkpt lat="43.43882" lon="6.01741">
        <ele>304.39999389648</ele>
        <time>2016-09-21T13:50:15Z</time>
      </trkpt>
      <trkpt lat="43.43885" lon="6.01757">
        <ele>304</ele>
        <time>2016-09-21T13:50:17Z</time>
      </trkpt>
      <trkpt lat="43.43885" lon="6.01776">
        <ele>304</ele>
        <time>2016-09-21T13:50:19Z</time>
      </trkpt>
      <trkpt lat="43.4388" lon="6.01805">
        <ele>302.60000610352</ele>
        <time>2016-09-21T13:50:22Z</time>
      </trkpt>
      <trkpt lat="43.43878" lon="6.01828">
        <ele>301.39999389648</ele>
        <time>2016-09-21T13:50:24Z</time>
      </trkpt>
      <trkpt lat="43.43877" lon="6.01839">
        <ele>300.60000610352</ele>
        <time>2016-09-21T13:50:25Z</time>
      </trkpt>
      <trkpt lat="43.43876" lon="6.01851">
        <ele>299.79998779297</ele>
        <time>2016-09-21T13:50:26Z</time>
      </trkpt>
      <trkpt lat="43.4387" lon="6.01883">
        <ele>298.60000610352</ele>
        <time>2016-09-21T13:50:29Z</time>
      </trkpt>
      <trkpt lat="43.43862" lon="6.01923">
        <ele>298</ele>
        <time>2016-09-21T13:50:33Z</time>
      </trkpt>
      <trkpt lat="43.43855" lon="6.01939">
        <ele>297.79998779297</ele>
        <time>2016-09-21T13:50:35Z</time>
      </trkpt>
      <trkpt lat="43.4385" lon="6.01946">
        <ele>295.79998779297</ele>
        <time>2016-09-21T13:50:36Z</time>
      </trkpt>
      <trkpt lat="43.43846" lon="6.01953">
        <ele>295.39999389648</ele>
        <time>2016-09-21T13:50:37Z</time>
      </trkpt>
      <trkpt lat="43.43839" lon="6.01973">
        <ele>296.20001220703</ele>
        <time>2016-09-21T13:50:40Z</time>
      </trkpt>
      <trkpt lat="43.43838" lon="6.01987">
        <ele>295.60000610352</ele>
        <time>2016-09-21T13:50:42Z</time>
      </trkpt>
      <trkpt lat="43.43839" lon="6.02001">
        <ele>295.79998779297</ele>
        <time>2016-09-21T13:50:44Z</time>
      </trkpt>
      <trkpt lat="43.43837" lon="6.02035">
        <ele>295.39999389648</ele>
        <time>2016-09-21T13:50:49Z</time>
      </trkpt>
      <trkpt lat="43.43837" lon="6.02048">
        <ele>295.20001220703</ele>
        <time>2016-09-21T13:50:51Z</time>
      </trkpt>
      <trkpt lat="43.43831" lon="6.02058">
        <ele>295</ele>
        <time>2016-09-21T13:50:53Z</time>
      </trkpt>
      <trkpt lat="43.43824" lon="6.02068">
        <ele>295</ele>
        <time>2016-09-21T13:50:55Z</time>
      </trkpt>
      <trkpt lat="43.4382" lon="6.0208">
        <ele>295</ele>
        <time>2016-09-21T13:50:57Z</time>
      </trkpt>
      <trkpt lat="43.43817" lon="6.02098">
        <ele>295.39999389648</ele>
        <time>2016-09-21T13:51:00Z</time>
      </trkpt>
      <trkpt lat="43.43815" lon="6.02111">
        <ele>295.20001220703</ele>
        <time>2016-09-21T13:51:02Z</time>
      </trkpt>
      <trkpt lat="43.4381" lon="6.02123">
        <ele>294.79998779297</ele>
        <time>2016-09-21T13:51:04Z</time>
      </trkpt>
      <trkpt lat="43.43805" lon="6.02127">
        <ele>294.39999389648</ele>
        <time>2016-09-21T13:51:05Z</time>
      </trkpt>
      <trkpt lat="43.43786" lon="6.02146">
        <ele>293.60000610352</ele>
        <time>2016-09-21T13:51:09Z</time>
      </trkpt>
      <trkpt lat="43.43782" lon="6.02152">
        <ele>293.39999389648</ele>
        <time>2016-09-21T13:51:10Z</time>
      </trkpt>
      <trkpt lat="43.43773" lon="6.02177">
        <ele>293.79998779297</ele>
        <time>2016-09-21T13:51:14Z</time>
      </trkpt>
      <trkpt lat="43.4377" lon="6.02182">
        <ele>294</ele>
        <time>2016-09-21T13:51:15Z</time>
      </trkpt>
      <trkpt lat="43.43768" lon="6.02187">
        <ele>294.20001220703</ele>
        <time>2016-09-21T13:51:16Z</time>
      </trkpt>
      <trkpt lat="43.43767" lon="6.022">
        <ele>294.39999389648</ele>
        <time>2016-09-21T13:51:18Z</time>
      </trkpt>
      <trkpt lat="43.43768" lon="6.02213">
        <ele>294.39999389648</ele>
        <time>2016-09-21T13:51:20Z</time>
      </trkpt>
      <trkpt lat="43.43768" lon="6.02226">
        <ele>293.79998779297</ele>
        <time>2016-09-21T13:51:22Z</time>
      </trkpt>
      <trkpt lat="43.43766" lon="6.02239">
        <ele>293.39999389648</ele>
        <time>2016-09-21T13:51:24Z</time>
      </trkpt>
      <trkpt lat="43.43765" lon="6.02246">
        <ele>293.20001220703</ele>
        <time>2016-09-21T13:51:25Z</time>
      </trkpt>
      <trkpt lat="43.43763" lon="6.02251">
        <ele>293.20001220703</ele>
        <time>2016-09-21T13:51:26Z</time>
      </trkpt>
      <trkpt lat="43.43749" lon="6.02277">
        <ele>294.20001220703</ele>
        <time>2016-09-21T13:51:33Z</time>
      </trkpt>
      <trkpt lat="43.43747" lon="6.02283">
        <ele>294.79998779297</ele>
        <time>2016-09-21T13:51:35Z</time>
      </trkpt>
      <trkpt lat="43.4374" lon="6.0229">
        <ele>295.60000610352</ele>
        <time>2016-09-21T13:51:38Z</time>
      </trkpt>
      <trkpt lat="43.43739" lon="6.02294">
        <ele>296.20001220703</ele>
        <time>2016-09-21T13:51:40Z</time>
      </trkpt>
      <trkpt lat="43.43731" lon="6.02305">
        <ele>296.79998779297</ele>
        <time>2016-09-21T13:51:45Z</time>
      </trkpt>
      <trkpt lat="43.43729" lon="6.02309">
        <ele>297.39999389648</ele>
        <time>2016-09-21T13:51:47Z</time>
      </trkpt>
      <trkpt lat="43.43724" lon="6.02316">
        <ele>298.39999389648</ele>
        <time>2016-09-21T13:51:53Z</time>
      </trkpt>
      <trkpt lat="43.43724" lon="6.0232">
        <ele>298.39999389648</ele>
        <time>2016-09-21T13:51:55Z</time>
      </trkpt>
      <trkpt lat="43.4372" lon="6.02327">
        <ele>299.20001220703</ele>
        <time>2016-09-21T13:52:01Z</time>
      </trkpt>
      <trkpt lat="43.43719" lon="6.02328">
        <ele>299.60000610352</ele>
        <time>2016-09-21T13:52:02Z</time>
      </trkpt>
      <trkpt lat="43.43715" lon="6.02331">
        <ele>300.39999389648</ele>
        <time>2016-09-21T13:52:05Z</time>
      </trkpt>
      <trkpt lat="43.43714" lon="6.02332">
        <ele>300.60000610352</ele>
        <time>2016-09-21T13:52:06Z</time>
      </trkpt>
      <trkpt lat="43.43713" lon="6.02336">
        <ele>301.39999389648</ele>
        <time>2016-09-21T13:52:09Z</time>
      </trkpt>
      <trkpt lat="43.43712" lon="6.02339">
        <ele>301.60000610352</ele>
        <time>2016-09-21T13:52:11Z</time>
      </trkpt>
      <trkpt lat="43.43713" lon="6.02346">
        <ele>302</ele>
        <time>2016-09-21T13:52:15Z</time>
      </trkpt>
      <trkpt lat="43.43716" lon="6.02356">
        <ele>302</ele>
        <time>2016-09-21T13:52:20Z</time>
      </trkpt>
      <trkpt lat="43.43723" lon="6.02361">
        <ele>301.39999389648</ele>
        <time>2016-09-21T13:52:25Z</time>
      </trkpt>
      <trkpt lat="43.43724" lon="6.0236">
        <ele>301.60000610352</ele>
        <time>2016-09-21T13:52:26Z</time>
      </trkpt>
      <trkpt lat="43.43727" lon="6.02359">
        <ele>301.20001220703</ele>
        <time>2016-09-21T13:52:28Z</time>
      </trkpt>
      <trkpt lat="43.43731" lon="6.02363">
        <ele>300</ele>
        <time>2016-09-21T13:52:30Z</time>
      </trkpt>
      <trkpt lat="43.43737" lon="6.02378">
        <ele>300.20001220703</ele>
        <time>2016-09-21T13:52:34Z</time>
      </trkpt>
      <trkpt lat="43.43737" lon="6.02382">
        <ele>300</ele>
        <time>2016-09-21T13:52:35Z</time>
      </trkpt>
      <trkpt lat="43.43741" lon="6.02389">
        <ele>299.60000610352</ele>
        <time>2016-09-21T13:52:37Z</time>
      </trkpt>
      <trkpt lat="43.4375" lon="6.02398">
        <ele>299</ele>
        <time>2016-09-21T13:52:41Z</time>
      </trkpt>
      <trkpt lat="43.43752" lon="6.02401">
        <ele>298.79998779297</ele>
        <time>2016-09-21T13:52:42Z</time>
      </trkpt>
      <trkpt lat="43.43756" lon="6.02412">
        <ele>297.60000610352</ele>
        <time>2016-09-21T13:52:45Z</time>
      </trkpt>
      <trkpt lat="43.4376" lon="6.02417">
        <ele>297</ele>
        <time>2016-09-21T13:52:47Z</time>
      </trkpt>
      <trkpt lat="43.43763" lon="6.02421">
        <ele>296.60000610352</ele>
        <time>2016-09-21T13:52:49Z</time>
      </trkpt>
      <trkpt lat="43.43767" lon="6.02426">
        <ele>296.20001220703</ele>
        <time>2016-09-21T13:52:52Z</time>
      </trkpt>
      <trkpt lat="43.4377" lon="6.02435">
        <ele>296</ele>
        <time>2016-09-21T13:52:55Z</time>
      </trkpt>
      <trkpt lat="43.43771" lon="6.02443">
        <ele>296</ele>
        <time>2016-09-21T13:52:58Z</time>
      </trkpt>
      <trkpt lat="43.43774" lon="6.02451">
        <ele>295.79998779297</ele>
        <time>2016-09-21T13:53:01Z</time>
      </trkpt>
      <trkpt lat="43.43775" lon="6.02457">
        <ele>294.60000610352</ele>
        <time>2016-09-21T13:53:04Z</time>
      </trkpt>
      <trkpt lat="43.43776" lon="6.02461">
        <ele>294.20001220703</ele>
        <time>2016-09-21T13:53:05Z</time>
      </trkpt>
      <trkpt lat="43.43777" lon="6.02464">
        <ele>294</ele>
        <time>2016-09-21T13:53:06Z</time>
      </trkpt>
      <trkpt lat="43.43786" lon="6.02472">
        <ele>294</ele>
        <time>2016-09-21T13:53:15Z</time>
      </trkpt>
      <trkpt lat="43.43788" lon="6.02475">
        <ele>293.60000610352</ele>
        <time>2016-09-21T13:53:24Z</time>
      </trkpt>
      <trkpt lat="43.43788" lon="6.02475">
        <ele>293.60000610352</ele>
        <time>2016-09-21T13:53:25Z</time>
      </trkpt>
      <trkpt lat="43.43787" lon="6.02474">
        <ele>293.20001220703</ele>
        <time>2016-09-21T13:53:35Z</time>
      </trkpt>
      <trkpt lat="43.43787" lon="6.02474">
        <ele>293.20001220703</ele>
        <time>2016-09-21T13:53:39Z</time>
      </trkpt>
      <trkpt lat="43.43787" lon="6.02474">
        <ele>293.39999389648</ele>
        <time>2016-09-21T13:54:41Z</time>
      </trkpt>
      <trkpt lat="43.43787" lon="6.02474">
        <ele>293.39999389648</ele>
        <time>2016-09-21T13:54:45Z</time>
      </trkpt>
      <trkpt lat="43.43787" lon="6.02473">
        <ele>293.39999389648</ele>
        <time>2016-09-21T13:54:55Z</time>
      </trkpt>
      <trkpt lat="43.43786" lon="6.02474">
        <ele>293.39999389648</ele>
        <time>2016-09-21T13:54:59Z</time>
      </trkpt>
      <trkpt lat="43.43786" lon="6.02474">
        <ele>293.39999389648</ele>
        <time>2016-09-21T13:55:15Z</time>
      </trkpt>
      <trkpt lat="43.43786" lon="6.02474">
        <ele>293.39999389648</ele>
        <time>2016-09-21T13:55:25Z</time>
      </trkpt>
      <trkpt lat="43.43786" lon="6.02474">
        <ele>293.39999389648</ele>
        <time>2016-09-21T13:55:45Z</time>
      </trkpt>
      <trkpt lat="43.43785" lon="6.02474">
        <ele>293.39999389648</ele>
        <time>2016-09-21T13:56:05Z</time>
      </trkpt>
      <trkpt lat="43.43785" lon="6.02474">
        <ele>293.39999389648</ele>
        <time>2016-09-21T13:56:15Z</time>
      </trkpt>
      <trkpt lat="43.43789" lon="6.02475">
        <ele>293.39999389648</ele>
        <time>2016-09-21T13:56:21Z</time>
      </trkpt>
      <trkpt lat="43.43792" lon="6.02486">
        <ele>292</ele>
        <time>2016-09-21T13:56:24Z</time>
      </trkpt>
      <trkpt lat="43.43793" lon="6.02488">
        <ele>291.20001220703</ele>
        <time>2016-09-21T13:56:25Z</time>
      </trkpt>
      <trkpt lat="43.43793" lon="6.02491">
        <ele>290.60000610352</ele>
        <time>2016-09-21T13:56:26Z</time>
      </trkpt>
      <trkpt lat="43.43793" lon="6.02515">
        <ele>291.20001220703</ele>
        <time>2016-09-21T13:56:33Z</time>
      </trkpt>
      <trkpt lat="43.43793" lon="6.02521">
        <ele>291.39999389648</ele>
        <time>2016-09-21T13:56:35Z</time>
      </trkpt>
      <trkpt lat="43.43789" lon="6.02531">
        <ele>291.60000610352</ele>
        <time>2016-09-21T13:56:39Z</time>
      </trkpt>
      <trkpt lat="43.43789" lon="6.02534">
        <ele>291.79998779297</ele>
        <time>2016-09-21T13:56:40Z</time>
      </trkpt>
      <trkpt lat="43.4379" lon="6.02552">
        <ele>291.79998779297</ele>
        <time>2016-09-21T13:56:45Z</time>
      </trkpt>
      <trkpt lat="43.43792" lon="6.02582">
        <ele>291.79998779297</ele>
        <time>2016-09-21T13:56:55Z</time>
      </trkpt>
      <trkpt lat="43.43791" lon="6.02608">
        <ele>291.79998779297</ele>
        <time>2016-09-21T13:57:05Z</time>
      </trkpt>
      <trkpt lat="43.43787" lon="6.02627">
        <ele>291.79998779297</ele>
        <time>2016-09-21T13:57:15Z</time>
      </trkpt>
      <trkpt lat="43.43785" lon="6.02661">
        <ele>291.79998779297</ele>
        <time>2016-09-21T13:57:25Z</time>
      </trkpt>
      <trkpt lat="43.43785" lon="6.02674">
        <ele>291.20001220703</ele>
        <time>2016-09-21T13:57:28Z</time>
      </trkpt>
      <trkpt lat="43.43787" lon="6.0268">
        <ele>291</ele>
        <time>2016-09-21T13:57:31Z</time>
      </trkpt>
      <trkpt lat="43.43782" lon="6.02687">
        <ele>292.39999389648</ele>
        <time>2016-09-21T13:57:34Z</time>
      </trkpt>
      <trkpt lat="43.43781" lon="6.02689">
        <ele>292.20001220703</ele>
        <time>2016-09-21T13:57:35Z</time>
      </trkpt>
      <trkpt lat="43.43776" lon="6.02697">
        <ele>292.20001220703</ele>
        <time>2016-09-21T13:57:42Z</time>
      </trkpt>
      <trkpt lat="43.43774" lon="6.02698">
        <ele>292.20001220703</ele>
        <time>2016-09-21T13:57:45Z</time>
      </trkpt>
      <trkpt lat="43.43772" lon="6.02698">
        <ele>292.79998779297</ele>
        <time>2016-09-21T13:57:49Z</time>
      </trkpt>
      <trkpt lat="43.43765" lon="6.02704">
        <ele>293</ele>
        <time>2016-09-21T13:57:54Z</time>
      </trkpt>
      <trkpt lat="43.43772" lon="6.02715">
        <ele>292.79998779297</ele>
        <time>2016-09-21T13:57:59Z</time>
      </trkpt>
      <trkpt lat="43.4378" lon="6.02719">
        <ele>292.20001220703</ele>
        <time>2016-09-21T13:58:02Z</time>
      </trkpt>
      <trkpt lat="43.43782" lon="6.0272">
        <ele>292</ele>
        <time>2016-09-21T13:58:03Z</time>
      </trkpt>
      <trkpt lat="43.43784" lon="6.02724">
        <ele>291.79998779297</ele>
        <time>2016-09-21T13:58:05Z</time>
      </trkpt>
      <trkpt lat="43.43787" lon="6.02753">
        <ele>291.20001220703</ele>
        <time>2016-09-21T13:58:15Z</time>
      </trkpt>
      <trkpt lat="43.43785" lon="6.02772">
        <ele>291</ele>
        <time>2016-09-21T13:58:20Z</time>
      </trkpt>
      <trkpt lat="43.43794" lon="6.02789">
        <ele>290.79998779297</ele>
        <time>2016-09-21T13:58:25Z</time>
      </trkpt>
      <trkpt lat="43.43795" lon="6.02792">
        <ele>290.79998779297</ele>
        <time>2016-09-21T13:58:26Z</time>
      </trkpt>
      <trkpt lat="43.43798" lon="6.02798">
        <ele>290.60000610352</ele>
        <time>2016-09-21T13:58:28Z</time>
      </trkpt>
      <trkpt lat="43.43808" lon="6.02814">
        <ele>289.60000610352</ele>
        <time>2016-09-21T13:58:33Z</time>
      </trkpt>
      <trkpt lat="43.43809" lon="6.0282">
        <ele>289.20001220703</ele>
        <time>2016-09-21T13:58:34Z</time>
      </trkpt>
      <trkpt lat="43.4381" lon="6.02826">
        <ele>289</ele>
        <time>2016-09-21T13:58:35Z</time>
      </trkpt>
      <trkpt lat="43.43804" lon="6.02846">
        <ele>288.39999389648</ele>
        <time>2016-09-21T13:58:39Z</time>
      </trkpt>
      <trkpt lat="43.43797" lon="6.02871">
        <ele>288.20001220703</ele>
        <time>2016-09-21T13:58:45Z</time>
      </trkpt>
      <trkpt lat="43.43795" lon="6.0292">
        <ele>287.60000610352</ele>
        <time>2016-09-21T13:58:55Z</time>
      </trkpt>
      <trkpt lat="43.43795" lon="6.02926">
        <ele>287.60000610352</ele>
        <time>2016-09-21T13:58:56Z</time>
      </trkpt>
      <trkpt lat="43.43792" lon="6.02937">
        <ele>287.39999389648</ele>
        <time>2016-09-21T13:58:58Z</time>
      </trkpt>
      <trkpt lat="43.43789" lon="6.02948">
        <ele>286.79998779297</ele>
        <time>2016-09-21T13:59:00Z</time>
      </trkpt>
      <trkpt lat="43.43785" lon="6.02959">
        <ele>285.79998779297</ele>
        <time>2016-09-21T13:59:02Z</time>
      </trkpt>
      <trkpt lat="43.43783" lon="6.0297">
        <ele>285</ele>
        <time>2016-09-21T13:59:04Z</time>
      </trkpt>
      <trkpt lat="43.43784" lon="6.02982">
        <ele>284.60000610352</ele>
        <time>2016-09-21T13:59:06Z</time>
      </trkpt>
      <trkpt lat="43.43765" lon="6.03018">
        <ele>284.60000610352</ele>
        <time>2016-09-21T13:59:15Z</time>
      </trkpt>
      <trkpt lat="43.43757" lon="6.03039">
        <ele>284.60000610352</ele>
        <time>2016-09-21T13:59:20Z</time>
      </trkpt>
      <trkpt lat="43.43742" lon="6.03043">
        <ele>285.20001220703</ele>
        <time>2016-09-21T13:59:25Z</time>
      </trkpt>
      <trkpt lat="43.43736" lon="6.03045">
        <ele>285.79998779297</ele>
        <time>2016-09-21T13:59:27Z</time>
      </trkpt>
      <trkpt lat="43.43728" lon="6.03049">
        <ele>286.60000610352</ele>
        <time>2016-09-21T13:59:30Z</time>
      </trkpt>
      <trkpt lat="43.43723" lon="6.03052">
        <ele>286.79998779297</ele>
        <time>2016-09-21T13:59:32Z</time>
      </trkpt>
      <trkpt lat="43.43716" lon="6.03057">
        <ele>287</ele>
        <time>2016-09-21T13:59:35Z</time>
      </trkpt>
      <trkpt lat="43.43696" lon="6.03083">
        <ele>287.60000610352</ele>
        <time>2016-09-21T13:59:45Z</time>
      </trkpt>
      <trkpt lat="43.4369" lon="6.03129">
        <ele>287.60000610352</ele>
        <time>2016-09-21T13:59:55Z</time>
      </trkpt>
      <trkpt lat="43.43692" lon="6.03147">
        <ele>287.79998779297</ele>
        <time>2016-09-21T13:59:59Z</time>
      </trkpt>
      <trkpt lat="43.43691" lon="6.03175">
        <ele>287.79998779297</ele>
        <time>2016-09-21T14:00:05Z</time>
      </trkpt>
      <trkpt lat="43.43693" lon="6.03195">
        <ele>287.60000610352</ele>
        <time>2016-09-21T14:00:10Z</time>
      </trkpt>
      <trkpt lat="43.43686" lon="6.03215">
        <ele>287.39999389648</ele>
        <time>2016-09-21T14:00:15Z</time>
      </trkpt>
      <trkpt lat="43.43688" lon="6.03254">
        <ele>287</ele>
        <time>2016-09-21T14:00:24Z</time>
      </trkpt>
      <trkpt lat="43.43687" lon="6.03258">
        <ele>287</ele>
        <time>2016-09-21T14:00:25Z</time>
      </trkpt>
      <trkpt lat="43.43684" lon="6.03272">
        <ele>286.79998779297</ele>
        <time>2016-09-21T14:00:28Z</time>
      </trkpt>
      <trkpt lat="43.43669" lon="6.03301">
        <ele>285.79998779297</ele>
        <time>2016-09-21T14:00:35Z</time>
      </trkpt>
      <trkpt lat="43.43665" lon="6.03308">
        <ele>285.79998779297</ele>
        <time>2016-09-21T14:00:37Z</time>
      </trkpt>
      <trkpt lat="43.43664" lon="6.03311">
        <ele>285.79998779297</ele>
        <time>2016-09-21T14:00:38Z</time>
      </trkpt>
      <trkpt lat="43.43664" lon="6.03314">
        <ele>285.60000610352</ele>
        <time>2016-09-21T14:00:39Z</time>
      </trkpt>
      <trkpt lat="43.43664" lon="6.03322">
        <ele>285.60000610352</ele>
        <time>2016-09-21T14:00:44Z</time>
      </trkpt>
      <trkpt lat="43.43652" lon="6.03344">
        <ele>286.60000610352</ele>
        <time>2016-09-21T14:00:55Z</time>
      </trkpt>
      <trkpt lat="43.43648" lon="6.03351">
        <ele>286.79998779297</ele>
        <time>2016-09-21T14:00:58Z</time>
      </trkpt>
      <trkpt lat="43.4364" lon="6.03365">
        <ele>287</ele>
        <time>2016-09-21T14:01:05Z</time>
      </trkpt>
      <trkpt lat="43.4364" lon="6.03364">
        <ele>287</ele>
        <time>2016-09-21T14:01:15Z</time>
      </trkpt>
      <trkpt lat="43.4364" lon="6.03364">
        <ele>287</ele>
        <time>2016-09-21T14:01:35Z</time>
      </trkpt>
      <trkpt lat="43.4364" lon="6.03364">
        <ele>287.39999389648</ele>
        <time>2016-09-21T14:02:25Z</time>
      </trkpt>
      <trkpt lat="43.43639" lon="6.03366">
        <ele>287.39999389648</ele>
        <time>2016-09-21T14:02:35Z</time>
      </trkpt>
      <trkpt lat="43.43635" lon="6.03376">
        <ele>287</ele>
        <time>2016-09-21T14:02:38Z</time>
      </trkpt>
      <trkpt lat="43.43626" lon="6.0339">
        <ele>286.79998779297</ele>
        <time>2016-09-21T14:02:42Z</time>
      </trkpt>
      <trkpt lat="43.43626" lon="6.03406">
        <ele>286.79998779297</ele>
        <time>2016-09-21T14:02:45Z</time>
      </trkpt>
      <trkpt lat="43.43626" lon="6.03439">
        <ele>287.39999389648</ele>
        <time>2016-09-21T14:02:52Z</time>
      </trkpt>
      <trkpt lat="43.43623" lon="6.03456">
        <ele>286.79998779297</ele>
        <time>2016-09-21T14:02:55Z</time>
      </trkpt>
      <trkpt lat="43.43613" lon="6.03488">
        <ele>286</ele>
        <time>2016-09-21T14:03:01Z</time>
      </trkpt>
      <trkpt lat="43.43612" lon="6.03494">
        <ele>285.79998779297</ele>
        <time>2016-09-21T14:03:02Z</time>
      </trkpt>
      <trkpt lat="43.4361" lon="6.03512">
        <ele>285.20001220703</ele>
        <time>2016-09-21T14:03:05Z</time>
      </trkpt>
      <trkpt lat="43.43607" lon="6.03523">
        <ele>285</ele>
        <time>2016-09-21T14:03:07Z</time>
      </trkpt>
      <trkpt lat="43.43604" lon="6.03533">
        <ele>285</ele>
        <time>2016-09-21T14:03:09Z</time>
      </trkpt>
      <trkpt lat="43.436" lon="6.03548">
        <ele>284.60000610352</ele>
        <time>2016-09-21T14:03:12Z</time>
      </trkpt>
      <trkpt lat="43.43594" lon="6.03557">
        <ele>284.60000610352</ele>
        <time>2016-09-21T14:03:15Z</time>
      </trkpt>
      <trkpt lat="43.43584" lon="6.03587">
        <ele>284.39999389648</ele>
        <time>2016-09-21T14:03:23Z</time>
      </trkpt>
      <trkpt lat="43.43583" lon="6.03594">
        <ele>284.20001220703</ele>
        <time>2016-09-21T14:03:25Z</time>
      </trkpt>
      <trkpt lat="43.43582" lon="6.03627">
        <ele>284.60000610352</ele>
        <time>2016-09-21T14:03:35Z</time>
      </trkpt>
      <trkpt lat="43.43577" lon="6.03663">
        <ele>285</ele>
        <time>2016-09-21T14:03:45Z</time>
      </trkpt>
      <trkpt lat="43.43571" lon="6.037">
        <ele>284.79998779297</ele>
        <time>2016-09-21T14:03:55Z</time>
      </trkpt>
      <trkpt lat="43.43571" lon="6.03723">
        <ele>285.39999389648</ele>
        <time>2016-09-21T14:04:01Z</time>
      </trkpt>
      <trkpt lat="43.43572" lon="6.0374">
        <ele>285.20001220703</ele>
        <time>2016-09-21T14:04:05Z</time>
      </trkpt>
      <trkpt lat="43.43573" lon="6.03756">
        <ele>285.39999389648</ele>
        <time>2016-09-21T14:04:09Z</time>
      </trkpt>
      <trkpt lat="43.43574" lon="6.03763">
        <ele>285.79998779297</ele>
        <time>2016-09-21T14:04:11Z</time>
      </trkpt>
      <trkpt lat="43.43575" lon="6.03768">
        <ele>286.39999389648</ele>
        <time>2016-09-21T14:04:14Z</time>
      </trkpt>
      <trkpt lat="43.43573" lon="6.0377">
        <ele>286.39999389648</ele>
        <time>2016-09-21T14:04:15Z</time>
      </trkpt>
      <trkpt lat="43.43571" lon="6.03776">
        <ele>286.60000610352</ele>
        <time>2016-09-21T14:04:17Z</time>
      </trkpt>
      <trkpt lat="43.43575" lon="6.03799">
        <ele>286.79998779297</ele>
        <time>2016-09-21T14:04:24Z</time>
      </trkpt>
      <trkpt lat="43.43576" lon="6.03802">
        <ele>287</ele>
        <time>2016-09-21T14:04:25Z</time>
      </trkpt>
      <trkpt lat="43.43583" lon="6.03821">
        <ele>287</ele>
        <time>2016-09-21T14:04:29Z</time>
      </trkpt>
      <trkpt lat="43.43585" lon="6.03833">
        <ele>286.79998779297</ele>
        <time>2016-09-21T14:04:31Z</time>
      </trkpt>
      <trkpt lat="43.43588" lon="6.03854">
        <ele>285.60000610352</ele>
        <time>2016-09-21T14:04:35Z</time>
      </trkpt>
      <trkpt lat="43.43589" lon="6.03869">
        <ele>285.20001220703</ele>
        <time>2016-09-21T14:04:39Z</time>
      </trkpt>
      <trkpt lat="43.4359" lon="6.03876">
        <ele>284.60000610352</ele>
        <time>2016-09-21T14:04:42Z</time>
      </trkpt>
      <trkpt lat="43.43591" lon="6.03877">
        <ele>284.20001220703</ele>
        <time>2016-09-21T14:04:45Z</time>
      </trkpt>
      <trkpt lat="43.43591" lon="6.03878">
        <ele>284</ele>
        <time>2016-09-21T14:04:47Z</time>
      </trkpt>
      <trkpt lat="43.4359" lon="6.03878">
        <ele>283.79998779297</ele>
        <time>2016-09-21T14:04:51Z</time>
      </trkpt>
      <trkpt lat="43.4359" lon="6.03878">
        <ele>284</ele>
        <time>2016-09-21T14:05:05Z</time>
      </trkpt>
      <trkpt lat="43.4359" lon="6.03878">
        <ele>283.79998779297</ele>
        <time>2016-09-21T14:05:25Z</time>
      </trkpt>
      <trkpt lat="43.43591" lon="6.03895">
        <ele>283.39999389648</ele>
        <time>2016-09-21T14:05:35Z</time>
      </trkpt>
      <trkpt lat="43.43597" lon="6.03927">
        <ele>282.39999389648</ele>
        <time>2016-09-21T14:05:42Z</time>
      </trkpt>
      <trkpt lat="43.436" lon="6.03932">
        <ele>282.39999389648</ele>
        <time>2016-09-21T14:05:43Z</time>
      </trkpt>
      <trkpt lat="43.43602" lon="6.03937">
        <ele>282.20001220703</ele>
        <time>2016-09-21T14:05:44Z</time>
      </trkpt>
      <trkpt lat="43.43603" lon="6.03943">
        <ele>282.20001220703</ele>
        <time>2016-09-21T14:05:45Z</time>
      </trkpt>
      <trkpt lat="43.43607" lon="6.03968">
        <ele>282.20001220703</ele>
        <time>2016-09-21T14:05:50Z</time>
      </trkpt>
      <trkpt lat="43.43606" lon="6.03976">
        <ele>282.79998779297</ele>
        <time>2016-09-21T14:05:53Z</time>
      </trkpt>
      <trkpt lat="43.43606" lon="6.03981">
        <ele>283.60000610352</ele>
        <time>2016-09-21T14:05:55Z</time>
      </trkpt>
      <trkpt lat="43.43605" lon="6.03986">
        <ele>284.20001220703</ele>
        <time>2016-09-21T14:05:57Z</time>
      </trkpt>
      <trkpt lat="43.43605" lon="6.03992">
        <ele>284.79998779297</ele>
        <time>2016-09-21T14:05:59Z</time>
      </trkpt>
      <trkpt lat="43.43604" lon="6.03997">
        <ele>285.20001220703</ele>
        <time>2016-09-21T14:06:01Z</time>
      </trkpt>
      <trkpt lat="43.436" lon="6.04012">
        <ele>285</ele>
        <time>2016-09-21T14:06:05Z</time>
      </trkpt>
      <trkpt lat="43.43598" lon="6.04017">
        <ele>285</ele>
        <time>2016-09-21T14:06:06Z</time>
      </trkpt>
      <trkpt lat="43.43587" lon="6.04036">
        <ele>284.20001220703</ele>
        <time>2016-09-21T14:06:10Z</time>
      </trkpt>
      <trkpt lat="43.43584" lon="6.04042">
        <ele>284</ele>
        <time>2016-09-21T14:06:11Z</time>
      </trkpt>
      <trkpt lat="43.43578" lon="6.04054">
        <ele>283.39999389648</ele>
        <time>2016-09-21T14:06:13Z</time>
      </trkpt>
      <trkpt lat="43.43569" lon="6.04067">
        <ele>282.79998779297</ele>
        <time>2016-09-21T14:06:15Z</time>
      </trkpt>
      <trkpt lat="43.43566" lon="6.04074">
        <ele>282.20001220703</ele>
        <time>2016-09-21T14:06:16Z</time>
      </trkpt>
      <trkpt lat="43.43557" lon="6.04106">
        <ele>281.20001220703</ele>
        <time>2016-09-21T14:06:20Z</time>
      </trkpt>
      <trkpt lat="43.43551" lon="6.04119">
        <ele>280.79998779297</ele>
        <time>2016-09-21T14:06:22Z</time>
      </trkpt>
      <trkpt lat="43.43544" lon="6.04135">
        <ele>281</ele>
        <time>2016-09-21T14:06:25Z</time>
      </trkpt>
      <trkpt lat="43.43537" lon="6.04156">
        <ele>281.60000610352</ele>
        <time>2016-09-21T14:06:29Z</time>
      </trkpt>
      <trkpt lat="43.43535" lon="6.04169">
        <ele>281.39999389648</ele>
        <time>2016-09-21T14:06:31Z</time>
      </trkpt>
      <trkpt lat="43.43536" lon="6.04182">
        <ele>280.79998779297</ele>
        <time>2016-09-21T14:06:33Z</time>
      </trkpt>
      <trkpt lat="43.43539" lon="6.04197">
        <ele>280.20001220703</ele>
        <time>2016-09-21T14:06:35Z</time>
      </trkpt>
      <trkpt lat="43.4354" lon="6.04205">
        <ele>280</ele>
        <time>2016-09-21T14:06:36Z</time>
      </trkpt>
      <trkpt lat="43.43539" lon="6.04211">
        <ele>279.39999389648</ele>
        <time>2016-09-21T14:06:37Z</time>
      </trkpt>
      <trkpt lat="43.43538" lon="6.04218">
        <ele>278.79998779297</ele>
        <time>2016-09-21T14:06:38Z</time>
      </trkpt>
      <trkpt lat="43.43535" lon="6.04223">
        <ele>278.79998779297</ele>
        <time>2016-09-21T14:06:39Z</time>
      </trkpt>
      <trkpt lat="43.43524" lon="6.04239">
        <ele>278.60000610352</ele>
        <time>2016-09-21T14:06:42Z</time>
      </trkpt>
      <trkpt lat="43.43517" lon="6.04244">
        <ele>278.60000610352</ele>
        <time>2016-09-21T14:06:44Z</time>
      </trkpt>
      <trkpt lat="43.43514" lon="6.04247">
        <ele>278.79998779297</ele>
        <time>2016-09-21T14:06:45Z</time>
      </trkpt>
      <trkpt lat="43.43496" lon="6.0429">
        <ele>279.39999389648</ele>
        <time>2016-09-21T14:06:55Z</time>
      </trkpt>
      <trkpt lat="43.43492" lon="6.04315">
        <ele>279.79998779297</ele>
        <time>2016-09-21T14:07:00Z</time>
      </trkpt>
      <trkpt lat="43.4349" lon="6.04339">
        <ele>280.20001220703</ele>
        <time>2016-09-21T14:07:05Z</time>
      </trkpt>
      <trkpt lat="43.43489" lon="6.04359">
        <ele>280.39999389648</ele>
        <time>2016-09-21T14:07:09Z</time>
      </trkpt>
      <trkpt lat="43.43485" lon="6.04393">
        <ele>280.60000610352</ele>
        <time>2016-09-21T14:07:15Z</time>
      </trkpt>
      <trkpt lat="43.43486" lon="6.04417">
        <ele>280.60000610352</ele>
        <time>2016-09-21T14:07:19Z</time>
      </trkpt>
      <trkpt lat="43.43483" lon="6.04435">
        <ele>280.20001220703</ele>
        <time>2016-09-21T14:07:22Z</time>
      </trkpt>
      <trkpt lat="43.43485" lon="6.04454">
        <ele>279.79998779297</ele>
        <time>2016-09-21T14:07:25Z</time>
      </trkpt>
      <trkpt lat="43.43487" lon="6.04486">
        <ele>279.60000610352</ele>
        <time>2016-09-21T14:07:30Z</time>
      </trkpt>
      <trkpt lat="43.43482" lon="6.04516">
        <ele>279.60000610352</ele>
        <time>2016-09-21T14:07:35Z</time>
      </trkpt>
      <trkpt lat="43.43465" lon="6.0456">
        <ele>279.60000610352</ele>
        <time>2016-09-21T14:07:43Z</time>
      </trkpt>
      <trkpt lat="43.43463" lon="6.04573">
        <ele>279.60000610352</ele>
        <time>2016-09-21T14:07:45Z</time>
      </trkpt>
      <trkpt lat="43.43447" lon="6.0467">
        <ele>278.79998779297</ele>
        <time>2016-09-21T14:07:59Z</time>
      </trkpt>
      <trkpt lat="43.4344" lon="6.04713">
        <ele>278.39999389648</ele>
        <time>2016-09-21T14:08:05Z</time>
      </trkpt>
      <trkpt lat="43.43437" lon="6.04747">
        <ele>277.79998779297</ele>
        <time>2016-09-21T14:08:10Z</time>
      </trkpt>
      <trkpt lat="43.43433" lon="6.04787">
        <ele>276.79998779297</ele>
        <time>2016-09-21T14:08:15Z</time>
      </trkpt>
      <trkpt lat="43.43431" lon="6.04804">
        <ele>276.60000610352</ele>
        <time>2016-09-21T14:08:17Z</time>
      </trkpt>
      <trkpt lat="43.4343" lon="6.04874">
        <ele>276.20001220703</ele>
        <time>2016-09-21T14:08:25Z</time>
      </trkpt>
      <trkpt lat="43.43427" lon="6.04911">
        <ele>275.60000610352</ele>
        <time>2016-09-21T14:08:29Z</time>
      </trkpt>
      <trkpt lat="43.43424" lon="6.04958">
        <ele>275.20001220703</ele>
        <time>2016-09-21T14:08:35Z</time>
      </trkpt>
      <trkpt lat="43.43416" lon="6.05015">
        <ele>275.60000610352</ele>
        <time>2016-09-21T14:08:44Z</time>
      </trkpt>
      <trkpt lat="43.43415" lon="6.0502">
        <ele>276</ele>
        <time>2016-09-21T14:08:45Z</time>
      </trkpt>
      <trkpt lat="43.43412" lon="6.05038">
        <ele>276.60000610352</ele>
        <time>2016-09-21T14:08:49Z</time>
      </trkpt>
      <trkpt lat="43.43409" lon="6.0506">
        <ele>277.39999389648</ele>
        <time>2016-09-21T14:08:54Z</time>
      </trkpt>
      <trkpt lat="43.43406" lon="6.05079">
        <ele>278.60000610352</ele>
        <time>2016-09-21T14:09:00Z</time>
      </trkpt>
      <trkpt lat="43.43405" lon="6.05082">
        <ele>278.79998779297</ele>
        <time>2016-09-21T14:09:01Z</time>
      </trkpt>
      <trkpt lat="43.43402" lon="6.05093">
        <ele>279.39999389648</ele>
        <time>2016-09-21T14:09:05Z</time>
      </trkpt>
      <trkpt lat="43.43397" lon="6.05106">
        <ele>279.79998779297</ele>
        <time>2016-09-21T14:09:12Z</time>
      </trkpt>
      <trkpt lat="43.43396" lon="6.0511">
        <ele>279.79998779297</ele>
        <time>2016-09-21T14:09:15Z</time>
      </trkpt>
      <trkpt lat="43.43395" lon="6.05111">
        <ele>280</ele>
        <time>2016-09-21T14:09:25Z</time>
      </trkpt>
      <trkpt lat="43.43395" lon="6.05111">
        <ele>279.79998779297</ele>
        <time>2016-09-21T14:09:45Z</time>
      </trkpt>
      <trkpt lat="43.43395" lon="6.05112">
        <ele>279.60000610352</ele>
        <time>2016-09-21T14:10:23Z</time>
      </trkpt>
      <trkpt lat="43.43395" lon="6.05112">
        <ele>279.60000610352</ele>
        <time>2016-09-21T14:10:35Z</time>
      </trkpt>
      <trkpt lat="43.43395" lon="6.05112">
        <ele>279.60000610352</ele>
        <time>2016-09-21T14:12:05Z</time>
      </trkpt>
      <trkpt lat="43.43394" lon="6.05114">
        <ele>279.60000610352</ele>
        <time>2016-09-21T14:12:11Z</time>
      </trkpt>
      <trkpt lat="43.43393" lon="6.05119">
        <ele>279.60000610352</ele>
        <time>2016-09-21T14:12:13Z</time>
      </trkpt>
      <trkpt lat="43.43391" lon="6.05124">
        <ele>279.39999389648</ele>
        <time>2016-09-21T14:12:15Z</time>
      </trkpt>
      <trkpt lat="43.43386" lon="6.05138">
        <ele>279.20001220703</ele>
        <time>2016-09-21T14:12:19Z</time>
      </trkpt>
      <trkpt lat="43.43378" lon="6.0516">
        <ele>278.60000610352</ele>
        <time>2016-09-21T14:12:23Z</time>
      </trkpt>
      <trkpt lat="43.43375" lon="6.05172">
        <ele>278.20001220703</ele>
        <time>2016-09-21T14:12:25Z</time>
      </trkpt>
      <trkpt lat="43.43369" lon="6.05191">
        <ele>277.39999389648</ele>
        <time>2016-09-21T14:12:28Z</time>
      </trkpt>
      <trkpt lat="43.43366" lon="6.05198">
        <ele>277.20001220703</ele>
        <time>2016-09-21T14:12:29Z</time>
      </trkpt>
      <trkpt lat="43.43359" lon="6.05218">
        <ele>276.39999389648</ele>
        <time>2016-09-21T14:12:32Z</time>
      </trkpt>
      <trkpt lat="43.43352" lon="6.05235">
        <ele>275.79998779297</ele>
        <time>2016-09-21T14:12:35Z</time>
      </trkpt>
      <trkpt lat="43.4335" lon="6.0524">
        <ele>275.79998779297</ele>
        <time>2016-09-21T14:12:36Z</time>
      </trkpt>
      <trkpt lat="43.4334" lon="6.05265">
        <ele>276.39999389648</ele>
        <time>2016-09-21T14:12:41Z</time>
      </trkpt>
      <trkpt lat="43.43333" lon="6.05284">
        <ele>276.60000610352</ele>
        <time>2016-09-21T14:12:45Z</time>
      </trkpt>
      <trkpt lat="43.43326" lon="6.05304">
        <ele>277</ele>
        <time>2016-09-21T14:12:49Z</time>
      </trkpt>
      <trkpt lat="43.4332" lon="6.05319">
        <ele>277.20001220703</ele>
        <time>2016-09-21T14:12:52Z</time>
      </trkpt>
      <trkpt lat="43.43314" lon="6.05333">
        <ele>277.60000610352</ele>
        <time>2016-09-21T14:12:55Z</time>
      </trkpt>
      <trkpt lat="43.43307" lon="6.05346">
        <ele>278</ele>
        <time>2016-09-21T14:12:58Z</time>
      </trkpt>
      <trkpt lat="43.43293" lon="6.05379">
        <ele>278</ele>
        <time>2016-09-21T14:13:05Z</time>
      </trkpt>
      <trkpt lat="43.43283" lon="6.05407">
        <ele>277.79998779297</ele>
        <time>2016-09-21T14:13:11Z</time>
      </trkpt>
      <trkpt lat="43.43275" lon="6.05424">
        <ele>277.39999389648</ele>
        <time>2016-09-21T14:13:15Z</time>
      </trkpt>
      <trkpt lat="43.43269" lon="6.05437">
        <ele>277.60000610352</ele>
        <time>2016-09-21T14:13:18Z</time>
      </trkpt>
      <trkpt lat="43.43258" lon="6.05464">
        <ele>278.60000610352</ele>
        <time>2016-09-21T14:13:25Z</time>
      </trkpt>
      <trkpt lat="43.43257" lon="6.05468">
        <ele>278.79998779297</ele>
        <time>2016-09-21T14:13:26Z</time>
      </trkpt>
      <trkpt lat="43.43252" lon="6.05488">
        <ele>280.20001220703</ele>
        <time>2016-09-21T14:13:31Z</time>
      </trkpt>
      <trkpt lat="43.43248" lon="6.05499">
        <ele>281.20001220703</ele>
        <time>2016-09-21T14:13:34Z</time>
      </trkpt>
      <trkpt lat="43.43244" lon="6.05514">
        <ele>282</ele>
        <time>2016-09-21T14:13:38Z</time>
      </trkpt>
      <trkpt lat="43.43242" lon="6.05525">
        <ele>282.39999389648</ele>
        <time>2016-09-21T14:13:41Z</time>
      </trkpt>
      <trkpt lat="43.43238" lon="6.0554">
        <ele>282.79998779297</ele>
        <time>2016-09-21T14:13:45Z</time>
      </trkpt>
      <trkpt lat="43.43233" lon="6.0556">
        <ele>283.39999389648</ele>
        <time>2016-09-21T14:13:50Z</time>
      </trkpt>
      <trkpt lat="43.43229" lon="6.05583">
        <ele>283.39999389648</ele>
        <time>2016-09-21T14:13:55Z</time>
      </trkpt>
      <trkpt lat="43.43224" lon="6.05626">
        <ele>284</ele>
        <time>2016-09-21T14:14:05Z</time>
      </trkpt>
      <trkpt lat="43.43221" lon="6.05657">
        <ele>284.39999389648</ele>
        <time>2016-09-21T14:14:12Z</time>
      </trkpt>
      <trkpt lat="43.4322" lon="6.05671">
        <ele>284.60000610352</ele>
        <time>2016-09-21T14:14:15Z</time>
      </trkpt>
      <trkpt lat="43.43218" lon="6.05697">
        <ele>284.79998779297</ele>
        <time>2016-09-21T14:14:21Z</time>
      </trkpt>
      <trkpt lat="43.43216" lon="6.05714">
        <ele>285</ele>
        <time>2016-09-21T14:14:25Z</time>
      </trkpt>
      <trkpt lat="43.43213" lon="6.05738">
        <ele>285.39999389648</ele>
        <time>2016-09-21T14:14:31Z</time>
      </trkpt>
      <trkpt lat="43.43211" lon="6.0576">
        <ele>285.20001220703</ele>
        <time>2016-09-21T14:14:35Z</time>
      </trkpt>
      <trkpt lat="43.4321" lon="6.05772">
        <ele>285.20001220703</ele>
        <time>2016-09-21T14:14:37Z</time>
      </trkpt>
      <trkpt lat="43.43208" lon="6.05783">
        <ele>284.79998779297</ele>
        <time>2016-09-21T14:14:39Z</time>
      </trkpt>
      <trkpt lat="43.43199" lon="6.05846">
        <ele>283.79998779297</ele>
        <time>2016-09-21T14:14:51Z</time>
      </trkpt>
      <trkpt lat="43.43195" lon="6.05867">
        <ele>283.60000610352</ele>
        <time>2016-09-21T14:14:55Z</time>
      </trkpt>
      <trkpt lat="43.43191" lon="6.05893">
        <ele>283.39999389648</ele>
        <time>2016-09-21T14:15:01Z</time>
      </trkpt>
      <trkpt lat="43.43185" lon="6.05908">
        <ele>283.39999389648</ele>
        <time>2016-09-21T14:15:05Z</time>
      </trkpt>
      <trkpt lat="43.43174" lon="6.05948">
        <ele>283.79998779297</ele>
        <time>2016-09-21T14:15:15Z</time>
      </trkpt>
      <trkpt lat="43.43169" lon="6.05972">
        <ele>284.20001220703</ele>
        <time>2016-09-21T14:15:21Z</time>
      </trkpt>
      <trkpt lat="43.43163" lon="6.05989">
        <ele>284</ele>
        <time>2016-09-21T14:15:25Z</time>
      </trkpt>
      <trkpt lat="43.43156" lon="6.06032">
        <ele>284.39999389648</ele>
        <time>2016-09-21T14:15:35Z</time>
      </trkpt>
      <trkpt lat="43.43151" lon="6.06058">
        <ele>284.60000610352</ele>
        <time>2016-09-21T14:15:42Z</time>
      </trkpt>
      <trkpt lat="43.43149" lon="6.0607">
        <ele>285</ele>
        <time>2016-09-21T14:15:45Z</time>
      </trkpt>
      <trkpt lat="43.43139" lon="6.06116">
        <ele>285</ele>
        <time>2016-09-21T14:15:55Z</time>
      </trkpt>
      <trkpt lat="43.4313" lon="6.06166">
        <ele>283.60000610352</ele>
        <time>2016-09-21T14:16:03Z</time>
      </trkpt>
      <trkpt lat="43.43129" lon="6.06175">
        <ele>283.39999389648</ele>
        <time>2016-09-21T14:16:05Z</time>
      </trkpt>
      <trkpt lat="43.43123" lon="6.06207">
        <ele>283.39999389648</ele>
        <time>2016-09-21T14:16:12Z</time>
      </trkpt>
      <trkpt lat="43.43122" lon="6.06226">
        <ele>283.60000610352</ele>
        <time>2016-09-21T14:16:15Z</time>
      </trkpt>
      <trkpt lat="43.43124" lon="6.06248">
        <ele>283</ele>
        <time>2016-09-21T14:16:18Z</time>
      </trkpt>
      <trkpt lat="43.43126" lon="6.06265">
        <ele>282</ele>
        <time>2016-09-21T14:16:20Z</time>
      </trkpt>
      <trkpt lat="43.43126" lon="6.06277">
        <ele>281.20001220703</ele>
        <time>2016-09-21T14:16:22Z</time>
      </trkpt>
      <trkpt lat="43.43129" lon="6.06288">
        <ele>280.79998779297</ele>
        <time>2016-09-21T14:16:24Z</time>
      </trkpt>
      <trkpt lat="43.43129" lon="6.06294">
        <ele>280.60000610352</ele>
        <time>2016-09-21T14:16:25Z</time>
      </trkpt>
      <trkpt lat="43.43129" lon="6.06307">
        <ele>280.39999389648</ele>
        <time>2016-09-21T14:16:27Z</time>
      </trkpt>
      <trkpt lat="43.4313" lon="6.06322">
        <ele>280.39999389648</ele>
        <time>2016-09-21T14:16:29Z</time>
      </trkpt>
      <trkpt lat="43.43135" lon="6.06373">
        <ele>280.20001220703</ele>
        <time>2016-09-21T14:16:35Z</time>
      </trkpt>
      <trkpt lat="43.43135" lon="6.06382">
        <ele>279.79998779297</ele>
        <time>2016-09-21T14:16:36Z</time>
      </trkpt>
      <trkpt lat="43.43137" lon="6.06409">
        <ele>278.20001220703</ele>
        <time>2016-09-21T14:16:39Z</time>
      </trkpt>
      <trkpt lat="43.43143" lon="6.06463">
        <ele>276.79998779297</ele>
        <time>2016-09-21T14:16:45Z</time>
      </trkpt>
      <trkpt lat="43.43145" lon="6.06481">
        <ele>276.39999389648</ele>
        <time>2016-09-21T14:16:47Z</time>
      </trkpt>
      <trkpt lat="43.43148" lon="6.06498">
        <ele>276</ele>
        <time>2016-09-21T14:16:49Z</time>
      </trkpt>
      <trkpt lat="43.43163" lon="6.06547">
        <ele>275</ele>
        <time>2016-09-21T14:16:55Z</time>
      </trkpt>
      <trkpt lat="43.43165" lon="6.06555">
        <ele>274.79998779297</ele>
        <time>2016-09-21T14:16:56Z</time>
      </trkpt>
      <trkpt lat="43.43171" lon="6.06571">
        <ele>273.79998779297</ele>
        <time>2016-09-21T14:16:58Z</time>
      </trkpt>
      <trkpt lat="43.43178" lon="6.0659">
        <ele>272.60000610352</ele>
        <time>2016-09-21T14:17:01Z</time>
      </trkpt>
      <trkpt lat="43.43187" lon="6.06617">
        <ele>272.39999389648</ele>
        <time>2016-09-21T14:17:05Z</time>
      </trkpt>
      <trkpt lat="43.43195" lon="6.06639">
        <ele>272</ele>
        <time>2016-09-21T14:17:08Z</time>
      </trkpt>
      <trkpt lat="43.43204" lon="6.06684">
        <ele>271.20001220703</ele>
        <time>2016-09-21T14:17:14Z</time>
      </trkpt>
      <trkpt lat="43.43211" lon="6.06697">
        <ele>271.20001220703</ele>
        <time>2016-09-21T14:17:16Z</time>
      </trkpt>
      <trkpt lat="43.43224" lon="6.06716">
        <ele>271</ele>
        <time>2016-09-21T14:17:19Z</time>
      </trkpt>
      <trkpt lat="43.43233" lon="6.06727">
        <ele>270.79998779297</ele>
        <time>2016-09-21T14:17:21Z</time>
      </trkpt>
      <trkpt lat="43.43247" lon="6.06754">
        <ele>270.79998779297</ele>
        <time>2016-09-21T14:17:25Z</time>
      </trkpt>
      <trkpt lat="43.43258" lon="6.06787">
        <ele>270.79998779297</ele>
        <time>2016-09-21T14:17:29Z</time>
      </trkpt>
      <trkpt lat="43.43262" lon="6.06805">
        <ele>270.39999389648</ele>
        <time>2016-09-21T14:17:31Z</time>
      </trkpt>
      <trkpt lat="43.43269" lon="6.06831">
        <ele>269</ele>
        <time>2016-09-21T14:17:34Z</time>
      </trkpt>
      <trkpt lat="43.43272" lon="6.0684">
        <ele>268.79998779297</ele>
        <time>2016-09-21T14:17:35Z</time>
      </trkpt>
      <trkpt lat="43.43274" lon="6.06849">
        <ele>268.60000610352</ele>
        <time>2016-09-21T14:17:36Z</time>
      </trkpt>
      <trkpt lat="43.43281" lon="6.069">
        <ele>266.39999389648</ele>
        <time>2016-09-21T14:17:42Z</time>
      </trkpt>
      <trkpt lat="43.43282" lon="6.06916">
        <ele>264.60000610352</ele>
        <time>2016-09-21T14:17:44Z</time>
      </trkpt>
      <trkpt lat="43.43282" lon="6.06925">
        <ele>263.79998779297</ele>
        <time>2016-09-21T14:17:45Z</time>
      </trkpt>
      <trkpt lat="43.43282" lon="6.06934">
        <ele>262.79998779297</ele>
        <time>2016-09-21T14:17:46Z</time>
      </trkpt>
      <trkpt lat="43.43281" lon="6.06943">
        <ele>261.60000610352</ele>
        <time>2016-09-21T14:17:47Z</time>
      </trkpt>
      <trkpt lat="43.43281" lon="6.06954">
        <ele>260.39999389648</ele>
        <time>2016-09-21T14:17:48Z</time>
      </trkpt>
      <trkpt lat="43.4328" lon="6.06964">
        <ele>259.60000610352</ele>
        <time>2016-09-21T14:17:49Z</time>
      </trkpt>
      <trkpt lat="43.43279" lon="6.06974">
        <ele>259</ele>
        <time>2016-09-21T14:17:50Z</time>
      </trkpt>
      <trkpt lat="43.43273" lon="6.07009">
        <ele>258</ele>
        <time>2016-09-21T14:17:54Z</time>
      </trkpt>
      <trkpt lat="43.4327" lon="6.07015">
        <ele>257.79998779297</ele>
        <time>2016-09-21T14:17:55Z</time>
      </trkpt>
      <trkpt lat="43.43266" lon="6.07026">
        <ele>257.60000610352</ele>
        <time>2016-09-21T14:17:58Z</time>
      </trkpt>
      <trkpt lat="43.43267" lon="6.07032">
        <ele>257.39999389648</ele>
        <time>2016-09-21T14:18:05Z</time>
      </trkpt>
      <trkpt lat="43.43267" lon="6.07032">
        <ele>257.39999389648</ele>
        <time>2016-09-21T14:18:25Z</time>
      </trkpt>
      <trkpt lat="43.43267" lon="6.07032">
        <ele>257.39999389648</ele>
        <time>2016-09-21T14:18:45Z</time>
      </trkpt>
      <trkpt lat="43.43267" lon="6.07033">
        <ele>257.39999389648</ele>
        <time>2016-09-21T14:18:49Z</time>
      </trkpt>
      <trkpt lat="43.43262" lon="6.07043">
        <ele>257.20001220703</ele>
        <time>2016-09-21T14:18:53Z</time>
      </trkpt>
      <trkpt lat="43.43259" lon="6.07051">
        <ele>257.39999389648</ele>
        <time>2016-09-21T14:18:55Z</time>
      </trkpt>
      <trkpt lat="43.43253" lon="6.07066">
        <ele>257.60000610352</ele>
        <time>2016-09-21T14:18:59Z</time>
      </trkpt>
      <trkpt lat="43.43244" lon="6.07088">
        <ele>258</ele>
        <time>2016-09-21T14:19:05Z</time>
      </trkpt>
      <trkpt lat="43.43232" lon="6.07117">
        <ele>258.60000610352</ele>
        <time>2016-09-21T14:19:13Z</time>
      </trkpt>
      <trkpt lat="43.43227" lon="6.07124">
        <ele>259</ele>
        <time>2016-09-21T14:19:15Z</time>
      </trkpt>
      <trkpt lat="43.4322" lon="6.07136">
        <ele>259.39999389648</ele>
        <time>2016-09-21T14:19:19Z</time>
      </trkpt>
      <trkpt lat="43.43209" lon="6.07154">
        <ele>260</ele>
        <time>2016-09-21T14:19:25Z</time>
      </trkpt>
      <trkpt lat="43.43206" lon="6.0716">
        <ele>260.39999389648</ele>
        <time>2016-09-21T14:19:28Z</time>
      </trkpt>
      <trkpt lat="43.43203" lon="6.07165">
        <ele>261</ele>
        <time>2016-09-21T14:19:31Z</time>
      </trkpt>
      <trkpt lat="43.43202" lon="6.07171">
        <ele>261.39999389648</ele>
        <time>2016-09-21T14:19:34Z</time>
      </trkpt>
      <trkpt lat="43.43201" lon="6.07172">
        <ele>261.39999389648</ele>
        <time>2016-09-21T14:19:35Z</time>
      </trkpt>
      <trkpt lat="43.43202" lon="6.07172">
        <ele>261.60000610352</ele>
        <time>2016-09-21T14:19:38Z</time>
      </trkpt>
      <trkpt lat="43.43203" lon="6.07171">
        <ele>261.60000610352</ele>
        <time>2016-09-21T14:19:45Z</time>
      </trkpt>
      <trkpt lat="43.43203" lon="6.07171">
        <ele>261.39999389648</ele>
        <time>2016-09-21T14:19:54Z</time>
      </trkpt>
      <trkpt lat="43.43203" lon="6.07171">
        <ele>261.39999389648</ele>
        <time>2016-09-21T14:20:04Z</time>
      </trkpt>
      <trkpt lat="43.43203" lon="6.07171">
        <ele>261.39999389648</ele>
        <time>2016-09-21T14:20:05Z</time>
      </trkpt>
      <trkpt lat="43.43202" lon="6.07171">
        <ele>261.20001220703</ele>
        <time>2016-09-21T14:20:15Z</time>
      </trkpt>
      <trkpt lat="43.43202" lon="6.07171">
        <ele>261.39999389648</ele>
        <time>2016-09-21T14:20:20Z</time>
      </trkpt>
      <trkpt lat="43.43201" lon="6.07172">
        <ele>261.60000610352</ele>
        <time>2016-09-21T14:20:25Z</time>
      </trkpt>
      <trkpt lat="43.432" lon="6.07177">
        <ele>262</ele>
        <time>2016-09-21T14:20:29Z</time>
      </trkpt>
      <trkpt lat="43.43199" lon="6.07178">
        <ele>262.20001220703</ele>
        <time>2016-09-21T14:20:30Z</time>
      </trkpt>
      <trkpt lat="43.43199" lon="6.07178">
        <ele>262.79998779297</ele>
        <time>2016-09-21T14:20:32Z</time>
      </trkpt>
      <trkpt lat="43.43199" lon="6.07175">
        <ele>263</ele>
        <time>2016-09-21T14:20:35Z</time>
      </trkpt>
      <trkpt lat="43.43199" lon="6.07172">
        <ele>263</ele>
        <time>2016-09-21T14:20:37Z</time>
      </trkpt>
      <trkpt lat="43.43198" lon="6.0717">
        <ele>262.20001220703</ele>
        <time>2016-09-21T14:20:45Z</time>
      </trkpt>
      <trkpt lat="43.43198" lon="6.0717">
        <ele>262.20001220703</ele>
        <time>2016-09-21T14:20:48Z</time>
      </trkpt>
      <trkpt lat="43.43198" lon="6.07174">
        <ele>263.20001220703</ele>
        <time>2016-09-21T14:20:54Z</time>
      </trkpt>
      <trkpt lat="43.43197" lon="6.07175">
        <ele>263.39999389648</ele>
        <time>2016-09-21T14:20:55Z</time>
      </trkpt>
      <trkpt lat="43.43198" lon="6.07178">
        <ele>264.20001220703</ele>
        <time>2016-09-21T14:21:00Z</time>
      </trkpt>
      <trkpt lat="43.43199" lon="6.07176">
        <ele>264.20001220703</ele>
        <time>2016-09-21T14:21:05Z</time>
      </trkpt>
      <trkpt lat="43.432" lon="6.07176">
        <ele>264.20001220703</ele>
        <time>2016-09-21T14:21:15Z</time>
      </trkpt>
      <trkpt lat="43.43199" lon="6.07176">
        <ele>263.79998779297</ele>
        <time>2016-09-21T14:21:20Z</time>
      </trkpt>
      <trkpt lat="43.432" lon="6.07177">
        <ele>264</ele>
        <time>2016-09-21T14:21:25Z</time>
      </trkpt>
      <trkpt lat="43.43202" lon="6.07171">
        <ele>263.79998779297</ele>
        <time>2016-09-21T14:21:34Z</time>
      </trkpt>
      <trkpt lat="43.43203" lon="6.07169">
        <ele>263.60000610352</ele>
        <time>2016-09-21T14:21:35Z</time>
      </trkpt>
      <trkpt lat="43.43204" lon="6.07168">
        <ele>263</ele>
        <time>2016-09-21T14:21:37Z</time>
      </trkpt>
      <trkpt lat="43.43204" lon="6.07167">
        <ele>262.20001220703</ele>
        <time>2016-09-21T14:21:40Z</time>
      </trkpt>
      <trkpt lat="43.43208" lon="6.07165">
        <ele>261.39999389648</ele>
        <time>2016-09-21T14:21:45Z</time>
      </trkpt>
      <trkpt lat="43.43207" lon="6.07165">
        <ele>261</ele>
        <time>2016-09-21T14:21:50Z</time>
      </trkpt>
      <trkpt lat="43.43206" lon="6.07165">
        <ele>261.20001220703</ele>
        <time>2016-09-21T14:21:55Z</time>
      </trkpt>
      <trkpt lat="43.43205" lon="6.07164">
        <ele>261</ele>
        <time>2016-09-21T14:21:58Z</time>
      </trkpt>
      <trkpt lat="43.43207" lon="6.0716">
        <ele>260.60000610352</ele>
        <time>2016-09-21T14:22:05Z</time>
      </trkpt>
      <trkpt lat="43.43204" lon="6.07162">
        <ele>260.79998779297</ele>
        <time>2016-09-21T14:22:15Z</time>
      </trkpt>
      <trkpt lat="43.43204" lon="6.07164">
        <ele>260.79998779297</ele>
        <time>2016-09-21T14:22:25Z</time>
      </trkpt>
      <trkpt lat="43.43203" lon="6.07167">
        <ele>260.79998779297</ele>
        <time>2016-09-21T14:22:28Z</time>
      </trkpt>
      <trkpt lat="43.432" lon="6.07171">
        <ele>261.20001220703</ele>
        <time>2016-09-21T14:22:31Z</time>
      </trkpt>
      <trkpt lat="43.43198" lon="6.07175">
        <ele>261.79998779297</ele>
        <time>2016-09-21T14:22:33Z</time>
      </trkpt>
      <trkpt lat="43.43198" lon="6.07179">
        <ele>262.39999389648</ele>
        <time>2016-09-21T14:22:35Z</time>
      </trkpt>
      <trkpt lat="43.43197" lon="6.0718">
        <ele>262.60000610352</ele>
        <time>2016-09-21T14:22:36Z</time>
      </trkpt>
      <trkpt lat="43.43194" lon="6.07181">
        <ele>263</ele>
        <time>2016-09-21T14:22:38Z</time>
      </trkpt>
      <trkpt lat="43.43193" lon="6.07182">
        <ele>263.39999389648</ele>
        <time>2016-09-21T14:22:39Z</time>
      </trkpt>
      <trkpt lat="43.43193" lon="6.07184">
        <ele>264</ele>
        <time>2016-09-21T14:22:41Z</time>
      </trkpt>
      <trkpt lat="43.43193" lon="6.07182">
        <ele>264.20001220703</ele>
        <time>2016-09-21T14:22:45Z</time>
      </trkpt>
      <trkpt lat="43.43195" lon="6.07182">
        <ele>264</ele>
        <time>2016-09-21T14:22:49Z</time>
      </trkpt>
      <trkpt lat="43.43196" lon="6.07181">
        <ele>264.20001220703</ele>
        <time>2016-09-21T14:22:55Z</time>
      </trkpt>
      <trkpt lat="43.43196" lon="6.07181">
        <ele>264</ele>
        <time>2016-09-21T14:23:05Z</time>
      </trkpt>
      <trkpt lat="43.43196" lon="6.0718">
        <ele>264.39999389648</ele>
        <time>2016-09-21T14:23:15Z</time>
      </trkpt>
      <trkpt lat="43.43196" lon="6.0718">
        <ele>264.60000610352</ele>
        <time>2016-09-21T14:23:17Z</time>
      </trkpt>
      <trkpt lat="43.43194" lon="6.0718">
        <ele>264.60000610352</ele>
        <time>2016-09-21T14:23:24Z</time>
      </trkpt>
      <trkpt lat="43.43194" lon="6.0718">
        <ele>264.60000610352</ele>
        <time>2016-09-21T14:23:25Z</time>
      </trkpt>
      <trkpt lat="43.43194" lon="6.07181">
        <ele>264.60000610352</ele>
        <time>2016-09-21T14:23:30Z</time>
      </trkpt>
      <trkpt lat="43.43193" lon="6.07183">
        <ele>264.60000610352</ele>
        <time>2016-09-21T14:23:38Z</time>
      </trkpt>
      <trkpt lat="43.43186" lon="6.07195">
        <ele>265.60000610352</ele>
        <time>2016-09-21T14:23:45Z</time>
      </trkpt>
      <trkpt lat="43.43183" lon="6.07204">
        <ele>266.60000610352</ele>
        <time>2016-09-21T14:23:49Z</time>
      </trkpt>
      <trkpt lat="43.43179" lon="6.07215">
        <ele>267.20001220703</ele>
        <time>2016-09-21T14:23:55Z</time>
      </trkpt>
      <trkpt lat="43.43176" lon="6.07222">
        <ele>267.39999389648</ele>
        <time>2016-09-21T14:23:59Z</time>
      </trkpt>
      <trkpt lat="43.43176" lon="6.07223">
        <ele>267.60000610352</ele>
        <time>2016-09-21T14:24:00Z</time>
      </trkpt>
      <trkpt lat="43.43175" lon="6.07227">
        <ele>268.20001220703</ele>
        <time>2016-09-21T14:24:02Z</time>
      </trkpt>
      <trkpt lat="43.43174" lon="6.07234">
        <ele>268.60000610352</ele>
        <time>2016-09-21T14:24:05Z</time>
      </trkpt>
      <trkpt lat="43.43173" lon="6.0724">
        <ele>268.79998779297</ele>
        <time>2016-09-21T14:24:08Z</time>
      </trkpt>
      <trkpt lat="43.43172" lon="6.07255">
        <ele>269.79998779297</ele>
        <time>2016-09-21T14:24:15Z</time>
      </trkpt>
      <trkpt lat="43.43173" lon="6.07262">
        <ele>270.79998779297</ele>
        <time>2016-09-21T14:24:19Z</time>
      </trkpt>
      <trkpt lat="43.43172" lon="6.07274">
        <ele>271.39999389648</ele>
        <time>2016-09-21T14:24:25Z</time>
      </trkpt>
      <trkpt lat="43.43171" lon="6.07276">
        <ele>271.79998779297</ele>
        <time>2016-09-21T14:24:27Z</time>
      </trkpt>
      <trkpt lat="43.43169" lon="6.07275">
        <ele>272.79998779297</ele>
        <time>2016-09-21T14:24:30Z</time>
      </trkpt>
      <trkpt lat="43.43164" lon="6.07269">
        <ele>273.60000610352</ele>
        <time>2016-09-21T14:24:35Z</time>
      </trkpt>
      <trkpt lat="43.43161" lon="6.07265">
        <ele>274</ele>
        <time>2016-09-21T14:24:38Z</time>
      </trkpt>
      <trkpt lat="43.43159" lon="6.07261">
        <ele>275</ele>
        <time>2016-09-21T14:24:41Z</time>
      </trkpt>
      <trkpt lat="43.43158" lon="6.0726">
        <ele>275.39999389648</ele>
        <time>2016-09-21T14:24:43Z</time>
      </trkpt>
      <trkpt lat="43.4315" lon="6.0725">
        <ele>276.20001220703</ele>
        <time>2016-09-21T14:24:53Z</time>
      </trkpt>
      <trkpt lat="43.43149" lon="6.07247">
        <ele>276.39999389648</ele>
        <time>2016-09-21T14:24:55Z</time>
      </trkpt>
      <trkpt lat="43.43148" lon="6.07246">
        <ele>276.60000610352</ele>
        <time>2016-09-21T14:24:56Z</time>
      </trkpt>
      <trkpt lat="43.43145" lon="6.07245">
        <ele>277.20001220703</ele>
        <time>2016-09-21T14:24:59Z</time>
      </trkpt>
      <trkpt lat="43.43142" lon="6.07241">
        <ele>277.79998779297</ele>
        <time>2016-09-21T14:25:03Z</time>
      </trkpt>
      <trkpt lat="43.4314" lon="6.07239">
        <ele>277.79998779297</ele>
        <time>2016-09-21T14:25:05Z</time>
      </trkpt>
      <trkpt lat="43.43137" lon="6.07238">
        <ele>278.39999389648</ele>
        <time>2016-09-21T14:25:08Z</time>
      </trkpt>
      <trkpt lat="43.43134" lon="6.07231">
        <ele>279</ele>
        <time>2016-09-21T14:25:15Z</time>
      </trkpt>
      <trkpt lat="43.43134" lon="6.07229">
        <ele>279.39999389648</ele>
        <time>2016-09-21T14:25:17Z</time>
      </trkpt>
      <trkpt lat="43.43129" lon="6.07222">
        <ele>280.39999389648</ele>
        <time>2016-09-21T14:25:24Z</time>
      </trkpt>
      <trkpt lat="43.43128" lon="6.07221">
        <ele>280.60000610352</ele>
        <time>2016-09-21T14:25:25Z</time>
      </trkpt>
      <trkpt lat="43.43125" lon="6.0722">
        <ele>281.20001220703</ele>
        <time>2016-09-21T14:25:28Z</time>
      </trkpt>
      <trkpt lat="43.43121" lon="6.07218">
        <ele>281.39999389648</ele>
        <time>2016-09-21T14:25:32Z</time>
      </trkpt>
      <trkpt lat="43.4312" lon="6.07217">
        <ele>281.39999389648</ele>
        <time>2016-09-21T14:25:33Z</time>
      </trkpt>
      <trkpt lat="43.43119" lon="6.07215">
        <ele>281.60000610352</ele>
        <time>2016-09-21T14:25:35Z</time>
      </trkpt>
      <trkpt lat="43.43118" lon="6.07213">
        <ele>281.79998779297</ele>
        <time>2016-09-21T14:25:37Z</time>
      </trkpt>
      <trkpt lat="43.43114" lon="6.07209">
        <ele>282.60000610352</ele>
        <time>2016-09-21T14:25:44Z</time>
      </trkpt>
      <trkpt lat="43.43113" lon="6.07208">
        <ele>282.79998779297</ele>
        <time>2016-09-21T14:25:45Z</time>
      </trkpt>
      <trkpt lat="43.4311" lon="6.07206">
        <ele>283.20001220703</ele>
        <time>2016-09-21T14:25:49Z</time>
      </trkpt>
      <trkpt lat="43.43107" lon="6.07204">
        <ele>283.20001220703</ele>
        <time>2016-09-21T14:25:52Z</time>
      </trkpt>
      <trkpt lat="43.43104" lon="6.07202">
        <ele>283.39999389648</ele>
        <time>2016-09-21T14:25:55Z</time>
      </trkpt>
      <trkpt lat="43.43102" lon="6.07198">
        <ele>283.79998779297</ele>
        <time>2016-09-21T14:25:58Z</time>
      </trkpt>
      <trkpt lat="43.43098" lon="6.0719">
        <ele>284.79998779297</ele>
        <time>2016-09-21T14:26:02Z</time>
      </trkpt>
      <trkpt lat="43.43097" lon="6.07188">
        <ele>285.79998779297</ele>
        <time>2016-09-21T14:26:04Z</time>
      </trkpt>
      <trkpt lat="43.43098" lon="6.07184">
        <ele>286.20001220703</ele>
        <time>2016-09-21T14:26:08Z</time>
      </trkpt>
      <trkpt lat="43.43098" lon="6.07181">
        <ele>286.39999389648</ele>
        <time>2016-09-21T14:26:15Z</time>
      </trkpt>
      <trkpt lat="43.43098" lon="6.07181">
        <ele>286.60000610352</ele>
        <time>2016-09-21T14:26:18Z</time>
      </trkpt>
      <trkpt lat="43.43098" lon="6.07182">
        <ele>286.79998779297</ele>
        <time>2016-09-21T14:26:22Z</time>
      </trkpt>
      <trkpt lat="43.43097" lon="6.07182">
        <ele>286.79998779297</ele>
        <time>2016-09-21T14:26:25Z</time>
      </trkpt>
      <trkpt lat="43.43097" lon="6.07182">
        <ele>286.79998779297</ele>
        <time>2016-09-21T14:26:28Z</time>
      </trkpt>
      <trkpt lat="43.43097" lon="6.07182">
        <ele>287</ele>
        <time>2016-09-21T14:26:33Z</time>
      </trkpt>
      <trkpt lat="43.43097" lon="6.07182">
        <ele>286.79998779297</ele>
        <time>2016-09-21T14:26:35Z</time>
      </trkpt>
      <trkpt lat="43.43097" lon="6.07181">
        <ele>286.79998779297</ele>
        <time>2016-09-21T14:26:39Z</time>
      </trkpt>
      <trkpt lat="43.43097" lon="6.07181">
        <ele>286.79998779297</ele>
        <time>2016-09-21T14:26:42Z</time>
      </trkpt>
      <trkpt lat="43.43097" lon="6.07181">
        <ele>287</ele>
        <time>2016-09-21T14:26:44Z</time>
      </trkpt>
      <trkpt lat="43.43096" lon="6.07181">
        <ele>287.60000610352</ele>
        <time>2016-09-21T14:26:48Z</time>
      </trkpt>
      <trkpt lat="43.43096" lon="6.0718">
        <ele>287.79998779297</ele>
        <time>2016-09-21T14:26:52Z</time>
      </trkpt>
      <trkpt lat="43.43097" lon="6.0718">
        <ele>287.39999389648</ele>
        <time>2016-09-21T14:26:55Z</time>
      </trkpt>
      <trkpt lat="43.43096" lon="6.07182">
        <ele>287.20001220703</ele>
        <time>2016-09-21T14:27:00Z</time>
      </trkpt>
      <trkpt lat="43.43096" lon="6.07184">
        <ele>286.79998779297</ele>
        <time>2016-09-21T14:27:05Z</time>
      </trkpt>
      <trkpt lat="43.43096" lon="6.07184">
        <ele>286.60000610352</ele>
        <time>2016-09-21T14:27:08Z</time>
      </trkpt>
      <trkpt lat="43.43097" lon="6.07185">
        <ele>286.39999389648</ele>
        <time>2016-09-21T14:27:11Z</time>
      </trkpt>
      <trkpt lat="43.43095" lon="6.07187">
        <ele>286.39999389648</ele>
        <time>2016-09-21T14:27:15Z</time>
      </trkpt>
      <trkpt lat="43.43095" lon="6.07188">
        <ele>286.39999389648</ele>
        <time>2016-09-21T14:27:19Z</time>
      </trkpt>
      <trkpt lat="43.43097" lon="6.0719">
        <ele>286.39999389648</ele>
        <time>2016-09-21T14:27:23Z</time>
      </trkpt>
      <trkpt lat="43.43097" lon="6.07192">
        <ele>286.39999389648</ele>
        <time>2016-09-21T14:27:25Z</time>
      </trkpt>
      <trkpt lat="43.43098" lon="6.07189">
        <ele>286.39999389648</ele>
        <time>2016-09-21T14:27:31Z</time>
      </trkpt>
      <trkpt lat="43.43099" lon="6.07188">
        <ele>286.39999389648</ele>
        <time>2016-09-21T14:27:35Z</time>
      </trkpt>
      <trkpt lat="43.43099" lon="6.07188">
        <ele>286.39999389648</ele>
        <time>2016-09-21T14:27:45Z</time>
      </trkpt>
      <trkpt lat="43.431" lon="6.07191">
        <ele>286.39999389648</ele>
        <time>2016-09-21T14:27:55Z</time>
      </trkpt>
      <trkpt lat="43.431" lon="6.07192">
        <ele>286.39999389648</ele>
        <time>2016-09-21T14:28:02Z</time>
      </trkpt>
      <trkpt lat="43.431" lon="6.07191">
        <ele>286.39999389648</ele>
        <time>2016-09-21T14:28:05Z</time>
      </trkpt>
      <trkpt lat="43.43102" lon="6.07189">
        <ele>286.39999389648</ele>
        <time>2016-09-21T14:28:14Z</time>
      </trkpt>
      <trkpt lat="43.43102" lon="6.07189">
        <ele>286.39999389648</ele>
        <time>2016-09-21T14:28:15Z</time>
      </trkpt>
      <trkpt lat="43.431" lon="6.0719">
        <ele>286.39999389648</ele>
        <time>2016-09-21T14:28:25Z</time>
      </trkpt>
      <trkpt lat="43.431" lon="6.07189">
        <ele>286.39999389648</ele>
        <time>2016-09-21T14:28:35Z</time>
      </trkpt>
      <trkpt lat="43.431" lon="6.07185">
        <ele>286.39999389648</ele>
        <time>2016-09-21T14:28:45Z</time>
      </trkpt>
      <trkpt lat="43.43097" lon="6.07181">
        <ele>286.39999389648</ele>
        <time>2016-09-21T14:28:50Z</time>
      </trkpt>
      <trkpt lat="43.43097" lon="6.0718">
        <ele>286.39999389648</ele>
        <time>2016-09-21T14:28:55Z</time>
      </trkpt>
      <trkpt lat="43.43098" lon="6.07178">
        <ele>286.39999389648</ele>
        <time>2016-09-21T14:29:05Z</time>
      </trkpt>
      <trkpt lat="43.43096" lon="6.07177">
        <ele>286.39999389648</ele>
        <time>2016-09-21T14:29:15Z</time>
      </trkpt>
      <trkpt lat="43.43097" lon="6.07177">
        <ele>286.39999389648</ele>
        <time>2016-09-21T14:29:25Z</time>
      </trkpt>
      <trkpt lat="43.43097" lon="6.07177">
        <ele>286.39999389648</ele>
        <time>2016-09-21T14:29:35Z</time>
      </trkpt>
      <trkpt lat="43.43096" lon="6.07177">
        <ele>286.39999389648</ele>
        <time>2016-09-21T14:29:40Z</time>
      </trkpt>
      <trkpt lat="43.43095" lon="6.07178">
        <ele>286.39999389648</ele>
        <time>2016-09-21T14:29:45Z</time>
      </trkpt>
      <trkpt lat="43.43094" lon="6.07178">
        <ele>286.39999389648</ele>
        <time>2016-09-21T14:29:55Z</time>
      </trkpt>
      <trkpt lat="43.43094" lon="6.07178">
        <ele>286.39999389648</ele>
        <time>2016-09-21T14:30:05Z</time>
      </trkpt>
      <trkpt lat="43.43093" lon="6.07179">
        <ele>286.39999389648</ele>
        <time>2016-09-21T14:30:15Z</time>
      </trkpt>
      <trkpt lat="43.43093" lon="6.07179">
        <ele>286.39999389648</ele>
        <time>2016-09-21T14:30:21Z</time>
      </trkpt>
      <trkpt lat="43.43092" lon="6.07179">
        <ele>286.39999389648</ele>
        <time>2016-09-21T14:30:25Z</time>
      </trkpt>
      <trkpt lat="43.43092" lon="6.07178">
        <ele>286.39999389648</ele>
        <time>2016-09-21T14:30:35Z</time>
      </trkpt>
      <trkpt lat="43.43093" lon="6.07176">
        <ele>286.39999389648</ele>
        <time>2016-09-21T14:30:41Z</time>
      </trkpt>
      <trkpt lat="43.43094" lon="6.07169">
        <ele>286.39999389648</ele>
        <time>2016-09-21T14:30:45Z</time>
      </trkpt>
      <trkpt lat="43.43089" lon="6.07155">
        <ele>287.20001220703</ele>
        <time>2016-09-21T14:30:52Z</time>
      </trkpt>
      <trkpt lat="43.43089" lon="6.0715">
        <ele>287.60000610352</ele>
        <time>2016-09-21T14:30:55Z</time>
      </trkpt>
      <trkpt lat="43.43087" lon="6.07148">
        <ele>288</ele>
        <time>2016-09-21T14:30:57Z</time>
      </trkpt>
      <trkpt lat="43.43087" lon="6.07147">
        <ele>288.20001220703</ele>
        <time>2016-09-21T14:30:58Z</time>
      </trkpt>
      <trkpt lat="43.43085" lon="6.07148">
        <ele>288.39999389648</ele>
        <time>2016-09-21T14:30:59Z</time>
      </trkpt>
      <trkpt lat="43.43083" lon="6.07149">
        <ele>288.60000610352</ele>
        <time>2016-09-21T14:31:01Z</time>
      </trkpt>
      <trkpt lat="43.43081" lon="6.0715">
        <ele>289.20001220703</ele>
        <time>2016-09-21T14:31:04Z</time>
      </trkpt>
      <trkpt lat="43.43079" lon="6.07148">
        <ele>289.20001220703</ele>
        <time>2016-09-21T14:31:05Z</time>
      </trkpt>
      <trkpt lat="43.43077" lon="6.07143">
        <ele>289.79998779297</ele>
        <time>2016-09-21T14:31:08Z</time>
      </trkpt>
      <trkpt lat="43.43075" lon="6.07141">
        <ele>290.39999389648</ele>
        <time>2016-09-21T14:31:10Z</time>
      </trkpt>
      <trkpt lat="43.43074" lon="6.07139">
        <ele>290.79998779297</ele>
        <time>2016-09-21T14:31:12Z</time>
      </trkpt>
      <trkpt lat="43.43073" lon="6.07135">
        <ele>291.60000610352</ele>
        <time>2016-09-21T14:31:15Z</time>
      </trkpt>
      <trkpt lat="43.43065" lon="6.07133">
        <ele>292.79998779297</ele>
        <time>2016-09-21T14:31:22Z</time>
      </trkpt>
      <trkpt lat="43.43063" lon="6.07131">
        <ele>293.20001220703</ele>
        <time>2016-09-21T14:31:25Z</time>
      </trkpt>
      <trkpt lat="43.43055" lon="6.07134">
        <ele>293.79998779297</ele>
        <time>2016-09-21T14:31:31Z</time>
      </trkpt>
      <trkpt lat="43.43051" lon="6.07139">
        <ele>294.20001220703</ele>
        <time>2016-09-21T14:31:35Z</time>
      </trkpt>
      <trkpt lat="43.4305" lon="6.07141">
        <ele>294.20001220703</ele>
        <time>2016-09-21T14:31:37Z</time>
      </trkpt>
      <trkpt lat="43.43047" lon="6.07143">
        <ele>294.39999389648</ele>
        <time>2016-09-21T14:31:40Z</time>
      </trkpt>
      <trkpt lat="43.43041" lon="6.07143">
        <ele>294.79998779297</ele>
        <time>2016-09-21T14:31:45Z</time>
      </trkpt>
      <trkpt lat="43.43036" lon="6.07143">
        <ele>295.39999389648</ele>
        <time>2016-09-21T14:31:49Z</time>
      </trkpt>
      <trkpt lat="43.43033" lon="6.07144">
        <ele>296</ele>
        <time>2016-09-21T14:31:52Z</time>
      </trkpt>
      <trkpt lat="43.43027" lon="6.07145">
        <ele>297.20001220703</ele>
        <time>2016-09-21T14:31:58Z</time>
      </trkpt>
      <trkpt lat="43.43016" lon="6.0715">
        <ele>296.79998779297</ele>
        <time>2016-09-21T14:32:05Z</time>
      </trkpt>
      <trkpt lat="43.4301" lon="6.07151">
        <ele>296.39999389648</ele>
        <time>2016-09-21T14:32:07Z</time>
      </trkpt>
      <trkpt lat="43.43005" lon="6.07151">
        <ele>296</ele>
        <time>2016-09-21T14:32:08Z</time>
      </trkpt>
      <trkpt lat="43.43" lon="6.0715">
        <ele>295.79998779297</ele>
        <time>2016-09-21T14:32:09Z</time>
      </trkpt>
      <trkpt lat="43.42987" lon="6.07147">
        <ele>295</ele>
        <time>2016-09-21T14:32:12Z</time>
      </trkpt>
      <trkpt lat="43.42982" lon="6.07147">
        <ele>294.20001220703</ele>
        <time>2016-09-21T14:32:13Z</time>
      </trkpt>
      <trkpt lat="43.42978" lon="6.07148">
        <ele>293.39999389648</ele>
        <time>2016-09-21T14:32:14Z</time>
      </trkpt>
      <trkpt lat="43.42974" lon="6.07149">
        <ele>292.60000610352</ele>
        <time>2016-09-21T14:32:15Z</time>
      </trkpt>
      <trkpt lat="43.42971" lon="6.07149">
        <ele>292.20001220703</ele>
        <time>2016-09-21T14:32:16Z</time>
      </trkpt>
      <trkpt lat="43.42962" lon="6.07151">
        <ele>291</ele>
        <time>2016-09-21T14:32:20Z</time>
      </trkpt>
      <trkpt lat="43.4296" lon="6.07152">
        <ele>290.39999389648</ele>
        <time>2016-09-21T14:32:25Z</time>
      </trkpt>
      <trkpt lat="43.4296" lon="6.07152">
        <ele>290.39999389648</ele>
        <time>2016-09-21T14:32:31Z</time>
      </trkpt>
      <trkpt lat="43.4296" lon="6.07152">
        <ele>290.39999389648</ele>
        <time>2016-09-21T14:33:05Z</time>
      </trkpt>
      <trkpt lat="43.42958" lon="6.07153">
        <ele>290.60000610352</ele>
        <time>2016-09-21T14:33:07Z</time>
      </trkpt>
      <trkpt lat="43.42939" lon="6.07153">
        <ele>290</ele>
        <time>2016-09-21T14:33:14Z</time>
      </trkpt>
      <trkpt lat="43.42935" lon="6.07152">
        <ele>289.79998779297</ele>
        <time>2016-09-21T14:33:15Z</time>
      </trkpt>
      <trkpt lat="43.42926" lon="6.07152">
        <ele>289.79998779297</ele>
        <time>2016-09-21T14:33:17Z</time>
      </trkpt>
      <trkpt lat="43.42917" lon="6.07152">
        <ele>289.60000610352</ele>
        <time>2016-09-21T14:33:19Z</time>
      </trkpt>
      <trkpt lat="43.42887" lon="6.07153">
        <ele>288.60000610352</ele>
        <time>2016-09-21T14:33:25Z</time>
      </trkpt>
      <trkpt lat="43.42865" lon="6.07154">
        <ele>288</ele>
        <time>2016-09-21T14:33:29Z</time>
      </trkpt>
      <trkpt lat="43.42828" lon="6.07158">
        <ele>287.20001220703</ele>
        <time>2016-09-21T14:33:35Z</time>
      </trkpt>
      <trkpt lat="43.42816" lon="6.07159">
        <ele>287</ele>
        <time>2016-09-21T14:33:37Z</time>
      </trkpt>
      <trkpt lat="43.42796" lon="6.07157">
        <ele>286.20001220703</ele>
        <time>2016-09-21T14:33:40Z</time>
      </trkpt>
      <trkpt lat="43.42784" lon="6.07156">
        <ele>285.60000610352</ele>
        <time>2016-09-21T14:33:42Z</time>
      </trkpt>
      <trkpt lat="43.4277" lon="6.07154">
        <ele>284.60000610352</ele>
        <time>2016-09-21T14:33:45Z</time>
      </trkpt>
      <trkpt lat="43.4275" lon="6.0715">
        <ele>283.39999389648</ele>
        <time>2016-09-21T14:33:52Z</time>
      </trkpt>
      <trkpt lat="43.42746" lon="6.07151">
        <ele>283</ele>
        <time>2016-09-21T14:33:55Z</time>
      </trkpt>
      <trkpt lat="43.42743" lon="6.07151">
        <ele>283</ele>
        <time>2016-09-21T14:33:58Z</time>
      </trkpt>
      <trkpt lat="43.42742" lon="6.0715">
        <ele>283</ele>
        <time>2016-09-21T14:34:04Z</time>
      </trkpt>
      <trkpt lat="43.42742" lon="6.0715">
        <ele>283</ele>
        <time>2016-09-21T14:34:05Z</time>
      </trkpt>
      <trkpt lat="43.42737" lon="6.07149">
        <ele>283</ele>
        <time>2016-09-21T14:34:10Z</time>
      </trkpt>
      <trkpt lat="43.42719" lon="6.07146">
        <ele>282.39999389648</ele>
        <time>2016-09-21T14:34:15Z</time>
      </trkpt>
      <trkpt lat="43.42714" lon="6.07146">
        <ele>282.20001220703</ele>
        <time>2016-09-21T14:34:16Z</time>
      </trkpt>
      <trkpt lat="43.42699" lon="6.07143">
        <ele>281.39999389648</ele>
        <time>2016-09-21T14:34:19Z</time>
      </trkpt>
      <trkpt lat="43.42693" lon="6.07142">
        <ele>281</ele>
        <time>2016-09-21T14:34:20Z</time>
      </trkpt>
      <trkpt lat="43.42667" lon="6.07138">
        <ele>279.79998779297</ele>
        <time>2016-09-21T14:34:24Z</time>
      </trkpt>
      <trkpt lat="43.4266" lon="6.07137">
        <ele>279.60000610352</ele>
        <time>2016-09-21T14:34:25Z</time>
      </trkpt>
      <trkpt lat="43.42616" lon="6.07132">
        <ele>277.60000610352</ele>
        <time>2016-09-21T14:34:31Z</time>
      </trkpt>
      <trkpt lat="43.42582" lon="6.07125">
        <ele>277</ele>
        <time>2016-09-21T14:34:35Z</time>
      </trkpt>
      <trkpt lat="43.42547" lon="6.07125">
        <ele>276.20001220703</ele>
        <time>2016-09-21T14:34:39Z</time>
      </trkpt>
      <trkpt lat="43.4254" lon="6.07126">
        <ele>275</ele>
        <time>2016-09-21T14:34:40Z</time>
      </trkpt>
      <trkpt lat="43.42535" lon="6.07126">
        <ele>273.79998779297</ele>
        <time>2016-09-21T14:34:41Z</time>
      </trkpt>
      <trkpt lat="43.42528" lon="6.07119">
        <ele>272.60000610352</ele>
        <time>2016-09-21T14:34:43Z</time>
      </trkpt>
      <trkpt lat="43.42526" lon="6.07114">
        <ele>272.60000610352</ele>
        <time>2016-09-21T14:34:44Z</time>
      </trkpt>
      <trkpt lat="43.42524" lon="6.07109">
        <ele>272.60000610352</ele>
        <time>2016-09-21T14:34:45Z</time>
      </trkpt>
      <trkpt lat="43.42523" lon="6.071">
        <ele>273.20001220703</ele>
        <time>2016-09-21T14:34:47Z</time>
      </trkpt>
      <trkpt lat="43.42522" lon="6.0709">
        <ele>273.79998779297</ele>
        <time>2016-09-21T14:34:49Z</time>
      </trkpt>
      <trkpt lat="43.42521" lon="6.07072">
        <ele>274.79998779297</ele>
        <time>2016-09-21T14:34:53Z</time>
      </trkpt>
      <trkpt lat="43.4252" lon="6.07063">
        <ele>275.20001220703</ele>
        <time>2016-09-21T14:34:55Z</time>
      </trkpt>
      <trkpt lat="43.42519" lon="6.0705">
        <ele>275.60000610352</ele>
        <time>2016-09-21T14:34:58Z</time>
      </trkpt>
      <trkpt lat="43.42519" lon="6.07038">
        <ele>276.20001220703</ele>
        <time>2016-09-21T14:35:01Z</time>
      </trkpt>
      <trkpt lat="43.42518" lon="6.07026">
        <ele>277</ele>
        <time>2016-09-21T14:35:04Z</time>
      </trkpt>
      <trkpt lat="43.42518" lon="6.07018">
        <ele>277.39999389648</ele>
        <time>2016-09-21T14:35:06Z</time>
      </trkpt>
      <trkpt lat="43.42517" lon="6.07006">
        <ele>277.79998779297</ele>
        <time>2016-09-21T14:35:09Z</time>
      </trkpt>
      <trkpt lat="43.42517" lon="6.06994">
        <ele>278.60000610352</ele>
        <time>2016-09-21T14:35:12Z</time>
      </trkpt>
      <trkpt lat="43.42516" lon="6.06985">
        <ele>279.20001220703</ele>
        <time>2016-09-21T14:35:15Z</time>
      </trkpt>
      <trkpt lat="43.4251" lon="6.06959">
        <ele>279.60000610352</ele>
        <time>2016-09-21T14:35:22Z</time>
      </trkpt>
      <trkpt lat="43.42508" lon="6.0695">
        <ele>280.79998779297</ele>
        <time>2016-09-21T14:35:25Z</time>
      </trkpt>
      <trkpt lat="43.42506" lon="6.06933">
        <ele>281.79998779297</ele>
        <time>2016-09-21T14:35:30Z</time>
      </trkpt>
      <trkpt lat="43.42505" lon="6.06919">
        <ele>282.60000610352</ele>
        <time>2016-09-21T14:35:35Z</time>
      </trkpt>
      <trkpt lat="43.42504" lon="6.06913">
        <ele>282.79998779297</ele>
        <time>2016-09-21T14:35:37Z</time>
      </trkpt>
      <trkpt lat="43.42504" lon="6.06889">
        <ele>283.79998779297</ele>
        <time>2016-09-21T14:35:45Z</time>
      </trkpt>
      <trkpt lat="43.42504" lon="6.06886">
        <ele>283.79998779297</ele>
        <time>2016-09-21T14:35:46Z</time>
      </trkpt>
      <trkpt lat="43.42505" lon="6.06863">
        <ele>285</ele>
        <time>2016-09-21T14:35:54Z</time>
      </trkpt>
      <trkpt lat="43.42506" lon="6.06861">
        <ele>285.20001220703</ele>
        <time>2016-09-21T14:35:55Z</time>
      </trkpt>
      <trkpt lat="43.42506" lon="6.06848">
        <ele>286</ele>
        <time>2016-09-21T14:36:00Z</time>
      </trkpt>
      <trkpt lat="43.42508" lon="6.06833">
        <ele>286.60000610352</ele>
        <time>2016-09-21T14:36:05Z</time>
      </trkpt>
      <trkpt lat="43.42509" lon="6.06828">
        <ele>287</ele>
        <time>2016-09-21T14:36:07Z</time>
      </trkpt>
      <trkpt lat="43.42511" lon="6.06817">
        <ele>288.20001220703</ele>
        <time>2016-09-21T14:36:11Z</time>
      </trkpt>
      <trkpt lat="43.42512" lon="6.06807">
        <ele>289</ele>
        <time>2016-09-21T14:36:15Z</time>
      </trkpt>
      <trkpt lat="43.42513" lon="6.06804">
        <ele>289.39999389648</ele>
        <time>2016-09-21T14:36:17Z</time>
      </trkpt>
      <trkpt lat="43.42516" lon="6.06791">
        <ele>290.39999389648</ele>
        <time>2016-09-21T14:36:24Z</time>
      </trkpt>
      <trkpt lat="43.42516" lon="6.06789">
        <ele>290.60000610352</ele>
        <time>2016-09-21T14:36:25Z</time>
      </trkpt>
      <trkpt lat="43.42522" lon="6.06771">
        <ele>291.20001220703</ele>
        <time>2016-09-21T14:36:35Z</time>
      </trkpt>
      <trkpt lat="43.42525" lon="6.06764">
        <ele>291.60000610352</ele>
        <time>2016-09-21T14:36:39Z</time>
      </trkpt>
      <trkpt lat="43.42528" lon="6.06751">
        <ele>292.39999389648</ele>
        <time>2016-09-21T14:36:45Z</time>
      </trkpt>
      <trkpt lat="43.42529" lon="6.06745">
        <ele>292.60000610352</ele>
        <time>2016-09-21T14:36:48Z</time>
      </trkpt>
      <trkpt lat="43.4253" lon="6.0673">
        <ele>293.60000610352</ele>
        <time>2016-09-21T14:36:55Z</time>
      </trkpt>
      <trkpt lat="43.4253" lon="6.06728">
        <ele>293.60000610352</ele>
        <time>2016-09-21T14:36:56Z</time>
      </trkpt>
      <trkpt lat="43.4253" lon="6.06718">
        <ele>294.79998779297</ele>
        <time>2016-09-21T14:37:02Z</time>
      </trkpt>
      <trkpt lat="43.42532" lon="6.06712">
        <ele>295.20001220703</ele>
        <time>2016-09-21T14:37:05Z</time>
      </trkpt>
      <trkpt lat="43.42533" lon="6.06703">
        <ele>296</ele>
        <time>2016-09-21T14:37:11Z</time>
      </trkpt>
      <trkpt lat="43.42533" lon="6.06696">
        <ele>296.20001220703</ele>
        <time>2016-09-21T14:37:15Z</time>
      </trkpt>
      <trkpt lat="43.42534" lon="6.06691">
        <ele>296.39999389648</ele>
        <time>2016-09-21T14:37:19Z</time>
      </trkpt>
      <trkpt lat="43.42533" lon="6.06684">
        <ele>296.60000610352</ele>
        <time>2016-09-21T14:37:23Z</time>
      </trkpt>
      <trkpt lat="43.42533" lon="6.0668">
        <ele>296.60000610352</ele>
        <time>2016-09-21T14:37:25Z</time>
      </trkpt>
      <trkpt lat="43.42535" lon="6.06675">
        <ele>297</ele>
        <time>2016-09-21T14:37:29Z</time>
      </trkpt>
      <trkpt lat="43.42538" lon="6.06668">
        <ele>297.20001220703</ele>
        <time>2016-09-21T14:37:34Z</time>
      </trkpt>
      <trkpt lat="43.42541" lon="6.06661">
        <ele>297</ele>
        <time>2016-09-21T14:37:40Z</time>
      </trkpt>
      <trkpt lat="43.42544" lon="6.0665">
        <ele>296.79998779297</ele>
        <time>2016-09-21T14:37:44Z</time>
      </trkpt>
      <trkpt lat="43.42545" lon="6.06647">
        <ele>296.79998779297</ele>
        <time>2016-09-21T14:37:45Z</time>
      </trkpt>
      <trkpt lat="43.42547" lon="6.06636">
        <ele>296.20001220703</ele>
        <time>2016-09-21T14:37:48Z</time>
      </trkpt>
      <trkpt lat="43.42553" lon="6.06622">
        <ele>296</ele>
        <time>2016-09-21T14:37:52Z</time>
      </trkpt>
      <trkpt lat="43.42563" lon="6.06615">
        <ele>295.39999389648</ele>
        <time>2016-09-21T14:37:55Z</time>
      </trkpt>
      <trkpt lat="43.42566" lon="6.06608">
        <ele>295.20001220703</ele>
        <time>2016-09-21T14:37:57Z</time>
      </trkpt>
      <trkpt lat="43.42569" lon="6.06596">
        <ele>295</ele>
        <time>2016-09-21T14:38:00Z</time>
      </trkpt>
      <trkpt lat="43.42573" lon="6.06579">
        <ele>295</ele>
        <time>2016-09-21T14:38:05Z</time>
      </trkpt>
      <trkpt lat="43.42579" lon="6.06538">
        <ele>294.60000610352</ele>
        <time>2016-09-21T14:38:15Z</time>
      </trkpt>
      <trkpt lat="43.42582" lon="6.06525">
        <ele>294</ele>
        <time>2016-09-21T14:38:17Z</time>
      </trkpt>
      <trkpt lat="43.42587" lon="6.06513">
        <ele>293.20001220703</ele>
        <time>2016-09-21T14:38:19Z</time>
      </trkpt>
      <trkpt lat="43.42588" lon="6.06507">
        <ele>292.79998779297</ele>
        <time>2016-09-21T14:38:20Z</time>
      </trkpt>
      <trkpt lat="43.42589" lon="6.06501">
        <ele>292.60000610352</ele>
        <time>2016-09-21T14:38:21Z</time>
      </trkpt>
      <trkpt lat="43.42589" lon="6.06483">
        <ele>291.39999389648</ele>
        <time>2016-09-21T14:38:24Z</time>
      </trkpt>
      <trkpt lat="43.42588" lon="6.06478">
        <ele>291</ele>
        <time>2016-09-21T14:38:25Z</time>
      </trkpt>
      <trkpt lat="43.42585" lon="6.06473">
        <ele>290.79998779297</ele>
        <time>2016-09-21T14:38:26Z</time>
      </trkpt>
      <trkpt lat="43.42581" lon="6.06464">
        <ele>290</ele>
        <time>2016-09-21T14:38:28Z</time>
      </trkpt>
      <trkpt lat="43.42576" lon="6.06456">
        <ele>289</ele>
        <time>2016-09-21T14:38:30Z</time>
      </trkpt>
      <trkpt lat="43.42573" lon="6.06451">
        <ele>288.39999389648</ele>
        <time>2016-09-21T14:38:31Z</time>
      </trkpt>
      <trkpt lat="43.4257" lon="6.06432">
        <ele>287.39999389648</ele>
        <time>2016-09-21T14:38:34Z</time>
      </trkpt>
      <trkpt lat="43.42569" lon="6.06425">
        <ele>287.20001220703</ele>
        <time>2016-09-21T14:38:35Z</time>
      </trkpt>
      <trkpt lat="43.4255" lon="6.06392">
        <ele>286.20001220703</ele>
        <time>2016-09-21T14:38:40Z</time>
      </trkpt>
      <trkpt lat="43.42535" lon="6.06367">
        <ele>285.20001220703</ele>
        <time>2016-09-21T14:38:44Z</time>
      </trkpt>
      <trkpt lat="43.42532" lon="6.06363">
        <ele>285.20001220703</ele>
        <time>2016-09-21T14:38:45Z</time>
      </trkpt>
      <trkpt lat="43.42527" lon="6.06358">
        <ele>285.79998779297</ele>
        <time>2016-09-21T14:38:49Z</time>
      </trkpt>
      <trkpt lat="43.42526" lon="6.06359">
        <ele>286.20001220703</ele>
        <time>2016-09-21T14:38:55Z</time>
      </trkpt>
      <trkpt lat="43.42526" lon="6.06359">
        <ele>286.20001220703</ele>
        <time>2016-09-21T14:39:05Z</time>
      </trkpt>
      <trkpt lat="43.42527" lon="6.06359">
        <ele>286.20001220703</ele>
        <time>2016-09-21T14:40:35Z</time>
      </trkpt>
      <trkpt lat="43.42527" lon="6.06359">
        <ele>286.20001220703</ele>
        <time>2016-09-21T14:40:51Z</time>
      </trkpt>
      <trkpt lat="43.42527" lon="6.06359">
        <ele>286.20001220703</ele>
        <time>2016-09-21T14:41:05Z</time>
      </trkpt>
      <trkpt lat="43.42525" lon="6.0636">
        <ele>286.20001220703</ele>
        <time>2016-09-21T14:41:15Z</time>
      </trkpt>
      <trkpt lat="43.42522" lon="6.06361">
        <ele>286.20001220703</ele>
        <time>2016-09-21T14:41:16Z</time>
      </trkpt>
      <trkpt lat="43.42508" lon="6.06365">
        <ele>285</ele>
        <time>2016-09-21T14:41:21Z</time>
      </trkpt>
      <trkpt lat="43.42488" lon="6.06375">
        <ele>284.20001220703</ele>
        <time>2016-09-21T14:41:25Z</time>
      </trkpt>
      <trkpt lat="43.42478" lon="6.06377">
        <ele>284.20001220703</ele>
        <time>2016-09-21T14:41:27Z</time>
      </trkpt>
      <trkpt lat="43.42467" lon="6.06377">
        <ele>283.79998779297</ele>
        <time>2016-09-21T14:41:29Z</time>
      </trkpt>
      <trkpt lat="43.42445" lon="6.06383">
        <ele>283</ele>
        <time>2016-09-21T14:41:33Z</time>
      </trkpt>
      <trkpt lat="43.42419" lon="6.06404">
        <ele>282</ele>
        <time>2016-09-21T14:41:39Z</time>
      </trkpt>
      <trkpt lat="43.42393" lon="6.06402">
        <ele>282</ele>
        <time>2016-09-21T14:41:45Z</time>
      </trkpt>
      <trkpt lat="43.42382" lon="6.06399">
        <ele>281.79998779297</ele>
        <time>2016-09-21T14:41:47Z</time>
      </trkpt>
      <trkpt lat="43.42376" lon="6.06401">
        <ele>281.20001220703</ele>
        <time>2016-09-21T14:41:48Z</time>
      </trkpt>
      <trkpt lat="43.42371" lon="6.06404">
        <ele>280.79998779297</ele>
        <time>2016-09-21T14:41:49Z</time>
      </trkpt>
      <trkpt lat="43.42363" lon="6.06413">
        <ele>280.20001220703</ele>
        <time>2016-09-21T14:41:51Z</time>
      </trkpt>
      <trkpt lat="43.4235" lon="6.06428">
        <ele>279.60000610352</ele>
        <time>2016-09-21T14:41:54Z</time>
      </trkpt>
      <trkpt lat="43.42346" lon="6.06432">
        <ele>279.60000610352</ele>
        <time>2016-09-21T14:41:55Z</time>
      </trkpt>
      <trkpt lat="43.42324" lon="6.06448">
        <ele>279.20001220703</ele>
        <time>2016-09-21T14:42:00Z</time>
      </trkpt>
      <trkpt lat="43.42301" lon="6.06476">
        <ele>278.20001220703</ele>
        <time>2016-09-21T14:42:05Z</time>
      </trkpt>
      <trkpt lat="43.42297" lon="6.06482">
        <ele>277.79998779297</ele>
        <time>2016-09-21T14:42:06Z</time>
      </trkpt>
      <trkpt lat="43.42283" lon="6.065">
        <ele>276.79998779297</ele>
        <time>2016-09-21T14:42:09Z</time>
      </trkpt>
      <trkpt lat="43.42272" lon="6.06509">
        <ele>276.20001220703</ele>
        <time>2016-09-21T14:42:11Z</time>
      </trkpt>
      <trkpt lat="43.42266" lon="6.06512">
        <ele>275.60000610352</ele>
        <time>2016-09-21T14:42:12Z</time>
      </trkpt>
      <trkpt lat="43.42249" lon="6.06518">
        <ele>273.79998779297</ele>
        <time>2016-09-21T14:42:15Z</time>
      </trkpt>
      <trkpt lat="43.42236" lon="6.06517">
        <ele>273</ele>
        <time>2016-09-21T14:42:17Z</time>
      </trkpt>
      <trkpt lat="43.42224" lon="6.06514">
        <ele>272.39999389648</ele>
        <time>2016-09-21T14:42:19Z</time>
      </trkpt>
      <trkpt lat="43.42214" lon="6.06513">
        <ele>272</ele>
        <time>2016-09-21T14:42:21Z</time>
      </trkpt>
      <trkpt lat="43.42199" lon="6.06513">
        <ele>271</ele>
        <time>2016-09-21T14:42:25Z</time>
      </trkpt>
      <trkpt lat="43.42196" lon="6.06501">
        <ele>269.79998779297</ele>
        <time>2016-09-21T14:42:28Z</time>
      </trkpt>
      <trkpt lat="43.42194" lon="6.06491">
        <ele>269.60000610352</ele>
        <time>2016-09-21T14:42:30Z</time>
      </trkpt>
      <trkpt lat="43.4219" lon="6.06475">
        <ele>269.79998779297</ele>
        <time>2016-09-21T14:42:33Z</time>
      </trkpt>
      <trkpt lat="43.42187" lon="6.06463">
        <ele>269.60000610352</ele>
        <time>2016-09-21T14:42:35Z</time>
      </trkpt>
      <trkpt lat="43.42177" lon="6.06413">
        <ele>269.39999389648</ele>
        <time>2016-09-21T14:42:43Z</time>
      </trkpt>
      <trkpt lat="43.42175" lon="6.06402">
        <ele>269.60000610352</ele>
        <time>2016-09-21T14:42:45Z</time>
      </trkpt>
      <trkpt lat="43.4217" lon="6.06375">
        <ele>269.60000610352</ele>
        <time>2016-09-21T14:42:50Z</time>
      </trkpt>
      <trkpt lat="43.42165" lon="6.06352">
        <ele>269.60000610352</ele>
        <time>2016-09-21T14:42:54Z</time>
      </trkpt>
      <trkpt lat="43.42164" lon="6.06347">
        <ele>269.60000610352</ele>
        <time>2016-09-21T14:42:55Z</time>
      </trkpt>
      <trkpt lat="43.42159" lon="6.06317">
        <ele>269.39999389648</ele>
        <time>2016-09-21T14:43:01Z</time>
      </trkpt>
      <trkpt lat="43.42157" lon="6.06299">
        <ele>270.39999389648</ele>
        <time>2016-09-21T14:43:05Z</time>
      </trkpt>
      <trkpt lat="43.42157" lon="6.06295">
        <ele>270.79998779297</ele>
        <time>2016-09-21T14:43:06Z</time>
      </trkpt>
      <trkpt lat="43.42156" lon="6.06281">
        <ele>272.20001220703</ele>
        <time>2016-09-21T14:43:10Z</time>
      </trkpt>
      <trkpt lat="43.42154" lon="6.0627">
        <ele>272.60000610352</ele>
        <time>2016-09-21T14:43:13Z</time>
      </trkpt>
      <trkpt lat="43.42154" lon="6.06263">
        <ele>273.20001220703</ele>
        <time>2016-09-21T14:43:15Z</time>
      </trkpt>
      <trkpt lat="43.42155" lon="6.06245">
        <ele>274</ele>
        <time>2016-09-21T14:43:20Z</time>
      </trkpt>
      <trkpt lat="43.42155" lon="6.06229">
        <ele>275</ele>
        <time>2016-09-21T14:43:25Z</time>
      </trkpt>
      <trkpt lat="43.42151" lon="6.0622">
        <ele>275.20001220703</ele>
        <time>2016-09-21T14:43:29Z</time>
      </trkpt>
      <trkpt lat="43.4214" lon="6.06217">
        <ele>275.79998779297</ele>
        <time>2016-09-21T14:43:35Z</time>
      </trkpt>
      <trkpt lat="43.42134" lon="6.06219">
        <ele>275.60000610352</ele>
        <time>2016-09-21T14:43:38Z</time>
      </trkpt>
      <trkpt lat="43.4212" lon="6.06224">
        <ele>274.79998779297</ele>
        <time>2016-09-21T14:43:44Z</time>
      </trkpt>
      <trkpt lat="43.42109" lon="6.06228">
        <ele>274.20001220703</ele>
        <time>2016-09-21T14:43:47Z</time>
      </trkpt>
      <trkpt lat="43.42089" lon="6.06236">
        <ele>273</ele>
        <time>2016-09-21T14:43:51Z</time>
      </trkpt>
      <trkpt lat="43.42066" lon="6.06242">
        <ele>271.60000610352</ele>
        <time>2016-09-21T14:43:55Z</time>
      </trkpt>
      <trkpt lat="43.42036" lon="6.06251">
        <ele>268.20001220703</ele>
        <time>2016-09-21T14:43:59Z</time>
      </trkpt>
      <trkpt lat="43.42028" lon="6.06254">
        <ele>267</ele>
        <time>2016-09-21T14:44:00Z</time>
      </trkpt>
      <trkpt lat="43.4202" lon="6.06257">
        <ele>265.79998779297</ele>
        <time>2016-09-21T14:44:01Z</time>
      </trkpt>
      <trkpt lat="43.42002" lon="6.06263">
        <ele>263.60000610352</ele>
        <time>2016-09-21T14:44:03Z</time>
      </trkpt>
      <trkpt lat="43.41993" lon="6.06266">
        <ele>262.60000610352</ele>
        <time>2016-09-21T14:44:04Z</time>
      </trkpt>
      <trkpt lat="43.41984" lon="6.06269">
        <ele>261.60000610352</ele>
        <time>2016-09-21T14:44:05Z</time>
      </trkpt>
      <trkpt lat="43.41965" lon="6.06275">
        <ele>259.60000610352</ele>
        <time>2016-09-21T14:44:07Z</time>
      </trkpt>
      <trkpt lat="43.41924" lon="6.06288">
        <ele>257</ele>
        <time>2016-09-21T14:44:12Z</time>
      </trkpt>
      <trkpt lat="43.419" lon="6.06292">
        <ele>255.60000610352</ele>
        <time>2016-09-21T14:44:15Z</time>
      </trkpt>
      <trkpt lat="43.41874" lon="6.06291">
        <ele>254.19999694824</ele>
        <time>2016-09-21T14:44:18Z</time>
      </trkpt>
      <trkpt lat="43.41857" lon="6.0629">
        <ele>252.80000305176</ele>
        <time>2016-09-21T14:44:20Z</time>
      </trkpt>
      <trkpt lat="43.41832" lon="6.0629">
        <ele>251.39999389648</ele>
        <time>2016-09-21T14:44:23Z</time>
      </trkpt>
      <trkpt lat="43.41816" lon="6.0629">
        <ele>250.60000610352</ele>
        <time>2016-09-21T14:44:25Z</time>
      </trkpt>
      <trkpt lat="43.41809" lon="6.06288">
        <ele>250</ele>
        <time>2016-09-21T14:44:26Z</time>
      </trkpt>
      <trkpt lat="43.41802" lon="6.06284">
        <ele>249.39999389648</ele>
        <time>2016-09-21T14:44:27Z</time>
      </trkpt>
      <trkpt lat="43.4179" lon="6.06275">
        <ele>248.60000610352</ele>
        <time>2016-09-21T14:44:29Z</time>
      </trkpt>
      <trkpt lat="43.41769" lon="6.0626">
        <ele>247.39999389648</ele>
        <time>2016-09-21T14:44:32Z</time>
      </trkpt>
      <trkpt lat="43.41745" lon="6.06251">
        <ele>246.19999694824</ele>
        <time>2016-09-21T14:44:35Z</time>
      </trkpt>
      <trkpt lat="43.41727" lon="6.06248">
        <ele>244.39999389648</ele>
        <time>2016-09-21T14:44:37Z</time>
      </trkpt>
      <trkpt lat="43.4171" lon="6.06247">
        <ele>243.39999389648</ele>
        <time>2016-09-21T14:44:39Z</time>
      </trkpt>
      <trkpt lat="43.41684" lon="6.06246">
        <ele>242.39999389648</ele>
        <time>2016-09-21T14:44:42Z</time>
      </trkpt>
      <trkpt lat="43.41661" lon="6.06243">
        <ele>242.39999389648</ele>
        <time>2016-09-21T14:44:45Z</time>
      </trkpt>
      <trkpt lat="43.41628" lon="6.06227">
        <ele>242.60000610352</ele>
        <time>2016-09-21T14:44:53Z</time>
      </trkpt>
      <trkpt lat="43.41623" lon="6.06228">
        <ele>242.60000610352</ele>
        <time>2016-09-21T14:44:55Z</time>
      </trkpt>
      <trkpt lat="43.41605" lon="6.06235">
        <ele>241.39999389648</ele>
        <time>2016-09-21T14:45:05Z</time>
      </trkpt>
      <trkpt lat="43.41604" lon="6.06236">
        <ele>241.19999694824</ele>
        <time>2016-09-21T14:45:08Z</time>
      </trkpt>
      <trkpt lat="43.41604" lon="6.06241">
        <ele>241.19999694824</ele>
        <time>2016-09-21T14:45:10Z</time>
      </trkpt>
      <trkpt lat="43.41603" lon="6.06254">
        <ele>241.19999694824</ele>
        <time>2016-09-21T14:45:15Z</time>
      </trkpt>
      <trkpt lat="43.41602" lon="6.06257">
        <ele>241.19999694824</ele>
        <time>2016-09-21T14:45:17Z</time>
      </trkpt>
      <trkpt lat="43.41586" lon="6.06277">
        <ele>240.39999389648</ele>
        <time>2016-09-21T14:45:25Z</time>
      </trkpt>
      <trkpt lat="43.41586" lon="6.06289">
        <ele>240.39999389648</ele>
        <time>2016-09-21T14:45:27Z</time>
      </trkpt>
      <trkpt lat="43.41584" lon="6.06309">
        <ele>239.80000305176</ele>
        <time>2016-09-21T14:45:30Z</time>
      </trkpt>
      <trkpt lat="43.41578" lon="6.06322">
        <ele>239.19999694824</ele>
        <time>2016-09-21T14:45:32Z</time>
      </trkpt>
      <trkpt lat="43.41566" lon="6.06342">
        <ele>238.19999694824</ele>
        <time>2016-09-21T14:45:35Z</time>
      </trkpt>
      <trkpt lat="43.41562" lon="6.06349">
        <ele>237.60000610352</ele>
        <time>2016-09-21T14:45:36Z</time>
      </trkpt>
      <trkpt lat="43.41555" lon="6.06368">
        <ele>236.80000305176</ele>
        <time>2016-09-21T14:45:38Z</time>
      </trkpt>
      <trkpt lat="43.41549" lon="6.06402">
        <ele>235.60000610352</ele>
        <time>2016-09-21T14:45:41Z</time>
      </trkpt>
      <trkpt lat="43.41543" lon="6.06433">
        <ele>234.19999694824</ele>
        <time>2016-09-21T14:45:44Z</time>
      </trkpt>
      <trkpt lat="43.41542" lon="6.0644">
        <ele>233.60000610352</ele>
        <time>2016-09-21T14:45:45Z</time>
      </trkpt>
      <trkpt lat="43.41541" lon="6.06447">
        <ele>233.19999694824</ele>
        <time>2016-09-21T14:45:46Z</time>
      </trkpt>
      <trkpt lat="43.41541" lon="6.06453">
        <ele>233</ele>
        <time>2016-09-21T14:45:47Z</time>
      </trkpt>
      <trkpt lat="43.41541" lon="6.06462">
        <ele>232.80000305176</ele>
        <time>2016-09-21T14:45:49Z</time>
      </trkpt>
      <trkpt lat="43.41539" lon="6.06464">
        <ele>232.60000610352</ele>
        <time>2016-09-21T14:45:51Z</time>
      </trkpt>
      <trkpt lat="43.41532" lon="6.06471">
        <ele>232.39999389648</ele>
        <time>2016-09-21T14:45:54Z</time>
      </trkpt>
      <trkpt lat="43.41531" lon="6.06476">
        <ele>232.19999694824</ele>
        <time>2016-09-21T14:45:55Z</time>
      </trkpt>
      <trkpt lat="43.41529" lon="6.06481">
        <ele>231.60000610352</ele>
        <time>2016-09-21T14:45:56Z</time>
      </trkpt>
      <trkpt lat="43.41526" lon="6.06496">
        <ele>230.39999389648</ele>
        <time>2016-09-21T14:45:59Z</time>
      </trkpt>
      <trkpt lat="43.41522" lon="6.06515">
        <ele>230.60000610352</ele>
        <time>2016-09-21T14:46:03Z</time>
      </trkpt>
      <trkpt lat="43.41515" lon="6.06558">
        <ele>230.60000610352</ele>
        <time>2016-09-21T14:46:10Z</time>
      </trkpt>
      <trkpt lat="43.4151" lon="6.0659">
        <ele>230.19999694824</ele>
        <time>2016-09-21T14:46:15Z</time>
      </trkpt>
      <trkpt lat="43.415" lon="6.06646">
        <ele>230.19999694824</ele>
        <time>2016-09-21T14:46:25Z</time>
      </trkpt>
      <trkpt lat="43.41495" lon="6.0668">
        <ele>229.60000610352</ele>
        <time>2016-09-21T14:46:31Z</time>
      </trkpt>
      <trkpt lat="43.41496" lon="6.06704">
        <ele>229.39999389648</ele>
        <time>2016-09-21T14:46:35Z</time>
      </trkpt>
      <trkpt lat="43.41494" lon="6.06746">
        <ele>228.39999389648</ele>
        <time>2016-09-21T14:46:41Z</time>
      </trkpt>
      <trkpt lat="43.4149" lon="6.06777">
        <ele>227.80000305176</ele>
        <time>2016-09-21T14:46:45Z</time>
      </trkpt>
      <trkpt lat="43.41485" lon="6.06801">
        <ele>227.39999389648</ele>
        <time>2016-09-21T14:46:48Z</time>
      </trkpt>
      <trkpt lat="43.41479" lon="6.06825">
        <ele>227</ele>
        <time>2016-09-21T14:46:51Z</time>
      </trkpt>
      <trkpt lat="43.41475" lon="6.06839">
        <ele>226.80000305176</ele>
        <time>2016-09-21T14:46:53Z</time>
      </trkpt>
      <trkpt lat="43.41473" lon="6.06853">
        <ele>226.80000305176</ele>
        <time>2016-09-21T14:46:55Z</time>
      </trkpt>
      <trkpt lat="43.41472" lon="6.0686">
        <ele>226.80000305176</ele>
        <time>2016-09-21T14:46:56Z</time>
      </trkpt>
      <trkpt lat="43.41475" lon="6.06885">
        <ele>226.80000305176</ele>
        <time>2016-09-21T14:47:05Z</time>
      </trkpt>
      <trkpt lat="43.41474" lon="6.06903">
        <ele>227</ele>
        <time>2016-09-21T14:47:15Z</time>
      </trkpt>
      <trkpt lat="43.41467" lon="6.06927">
        <ele>226.60000610352</ele>
        <time>2016-09-21T14:47:21Z</time>
      </trkpt>
      <trkpt lat="43.41467" lon="6.0693">
        <ele>226.60000610352</ele>
        <time>2016-09-21T14:47:22Z</time>
      </trkpt>
      <trkpt lat="43.41471" lon="6.06938">
        <ele>226.60000610352</ele>
        <time>2016-09-21T14:47:25Z</time>
      </trkpt>
      <trkpt lat="43.4148" lon="6.06948">
        <ele>226.39999389648</ele>
        <time>2016-09-21T14:47:29Z</time>
      </trkpt>
      <trkpt lat="43.41486" lon="6.06956">
        <ele>226</ele>
        <time>2016-09-21T14:47:32Z</time>
      </trkpt>
      <trkpt lat="43.41492" lon="6.06962">
        <ele>226</ele>
        <time>2016-09-21T14:47:35Z</time>
      </trkpt>
      <trkpt lat="43.41501" lon="6.06967">
        <ele>226</ele>
        <time>2016-09-21T14:47:39Z</time>
      </trkpt>
      <trkpt lat="43.41517" lon="6.06973">
        <ele>225.80000305176</ele>
        <time>2016-09-21T14:47:45Z</time>
      </trkpt>
      <trkpt lat="43.41546" lon="6.06969">
        <ele>225.80000305176</ele>
        <time>2016-09-21T14:47:52Z</time>
      </trkpt>
      <trkpt lat="43.41558" lon="6.06965">
        <ele>226</ele>
        <time>2016-09-21T14:47:55Z</time>
      </trkpt>
      <trkpt lat="43.41571" lon="6.06964">
        <ele>226.39999389648</ele>
        <time>2016-09-21T14:47:59Z</time>
      </trkpt>
      <trkpt lat="43.41573" lon="6.06984">
        <ele>226.60000610352</ele>
        <time>2016-09-21T14:48:04Z</time>
      </trkpt>
      <trkpt lat="43.41574" lon="6.06988">
        <ele>226.60000610352</ele>
        <time>2016-09-21T14:48:05Z</time>
      </trkpt>
      <trkpt lat="43.41578" lon="6.07024">
        <ele>226.39999389648</ele>
        <time>2016-09-21T14:48:13Z</time>
      </trkpt>
      <trkpt lat="43.41579" lon="6.07029">
        <ele>226.60000610352</ele>
        <time>2016-09-21T14:48:15Z</time>
      </trkpt>
      <trkpt lat="43.41579" lon="6.07033">
        <ele>226.60000610352</ele>
        <time>2016-09-21T14:48:19Z</time>
      </trkpt>
      <trkpt lat="43.4158" lon="6.07033">
        <ele>227</ele>
        <time>2016-09-21T14:48:25Z</time>
      </trkpt>
      <trkpt lat="43.4158" lon="6.07033">
        <ele>226.60000610352</ele>
        <time>2016-09-21T14:48:45Z</time>
      </trkpt>
      <trkpt lat="43.4158" lon="6.07033">
        <ele>227.19999694824</ele>
        <time>2016-09-21T14:52:29Z</time>
      </trkpt>
    </trkseg>
  </trk>
</gpx>